[[{"header":{"parameterUnit":"m.s-1","parameterCategory":1,"la1":31.0,"la2":29.5877,"lo1":-88.7671,"lo2":-86.6584,"dy":0.0162,"dx":0.0185,"nx":115,"ny":88,"refTime":"2024-03-25T00:00:00:Z","depth":0,"parameterNumber":2,"parameterNumberName":"U-component_of_WINDS"},"data":[0.0,0.0,0.0,0.0,0.0,0.0,0.0,0.0,0.0,0.0,0.0,0.0,0.0,0.0,0.0,0.0,0.0,0.0,0.0,0.0,0.0,0.0,0.0,0.0,0.0,0.0,0.0,0.0,0.0,0.0,0.0,0.0,0.0,0.0,0.0,0.0,0.0,0.0,0.0,0.0,0.0,0.0,0.0,0.0,0.0,0.0,0.0,0.0,0.0,0.0,0.0,0.0,0.0,0.0,0.0,0.0,0.0,0.0,0.0,0.0,0.0,0.0,0.0,0.0,0.0,0.0,0.0,0.0,0.0,0.0,0.0,0.0,0.0,0.0,0.0,0.0,0.0,0.0,0.0,0.0,0.0,0.0,0.0,0.0,0.0,0.0,0.0,0.0,0.0,0.0,0.0,0.0,0.0,0.0,0.0,0.0,0.0,0.0,0.0,0.0,0.0,0.0,0.0,0.0,0.0,0.0,0.0,0.0,0.0,0.0,0.0,0.0,0.0,0.0,0.0,0.0,0.0,0.0,0.0,0.0,0.0,0.0,0.0,0.0,0.0,0.0,0.0,0.0,0.0,0.0,0.0,0.0,0.0,0.0,0.0,0.0,0.0,0.0,0.0,0.0,0.0,0.0,0.0,0.0,0.0,0.0,0.0,0.0,0.0,0.0,0.0,0.0,0.0,0.0,0.0,0.0,0.0,0.0,0.0,0.0,0.0,0.0,0.0,0.0,0.0,0.0,0.0,0.0,0.0,0.0,0.0,0.0,0.0,0.0,0.0,0.0,0.0,0.0,0.0,0.0,0.0,0.0,0.0,0.0,0.0,0.0,0.0,0.0,0.0,0.0,0.0,0.0,0.0,0.0,0.0,0.0,0.0,0.0,0.0,0.0,0.0,0.0,0.0,0.0,0.0,0.0,0.0,0.0,0.0,0.0,0.0,0.0,0.0,0.0,0.0,0.0,0.0,0.0,0.0,0.0,0.0,0.0,0.0,0.0,0.0,0.0,0.0,0.0,0.0,0.0,0.0,0.0,0.0,0.0,0.0,0.0,0.0,0.0,0.0,0.0,0.0,0.0,0.0,0.0,0.0,0.0,0.0,0.0,0.0,0.0,0.0,0.0,0.0,0.0,0.0,0.0,0.0,0.0,0.0,0.0,0.0,0.0,0.0,0.0,0.0,0.0,0.0,0.0,0.0,0.0,0.0,0.0,0.0,0.0,0.0,0.0,0.0,0.0,0.0,0.0,0.0,0.0,0.0,0.0,0.0,0.0,0.0,0.0,0.0,0.0,0.0,0.0,0.0,0.0,0.0,0.0,0.0,0.0,0.0,0.0,0.0,0.0,0.0,0.0,0.0,0.0,0.0,0.0,0.0,0.0,0.0,0.0,0.0,0.0,0.0,0.0,0.0,0.0,0.0,0.0,0.0,0.0,0.0,0.0,0.0,0.0,0.0,0.0,0.0,0.0,0.0,0.0,0.0,0.0,0.0,0.0,0.0,0.0,0.0,0.0,0.0,0.0,0.0,0.0,0.0,0.0,0.0,0.0,0.0,0.0,0.0,0.0,0.0,0.0,0.0,0.0,0.0,0.0,0.0,0.0,0.0,0.0,0.0,0.0,0.0,0.0,0.0,0.0,0.0,0.0,0.0,0.0,0.0,0.0,0.0,0.0,0.0,0.0,0.0,0.0,0.0,0.0,0.0,0.0,0.0,0.0,0.0,0.0,0.0,0.0,0.0,0.0,0.0,0.0,0.0,0.0,0.0,0.0,0.0,0.0,0.0,0.0,0.0,0.0,0.0,0.0,0.0,0.0,0.0,0.0,0.0,0.0,0.0,0.0,0.0,0.0,0.0,0.0,0.0,0.0,0.0,0.0,0.0,0.0,0.0,0.0,0.0,0.0,0.0,0.0,0.0,0.0,0.0,0.0,0.0,0.0,0.0,0.0,0.0,0.0,0.0,0.0,0.0,0.0,0.0,0.0,0.0,0.0,0.0,0.0,0.0,0.0,0.0,0.0,0.0,0.0,0.0,0.0,0.0,0.0,0.0,0.0,0.0,0.0,0.0,0.0,0.0,0.0,0.0,0.0,0.0,0.0,0.0,0.0,0.0,0.0,0.0,0.0,0.0,0.0,0.0,0.0,0.0,0.0,0.0,0.0,0.0,0.0,0.0,0.0,0.0,0.0,0.0,0.0,0.0,0.0,0.0,0.0,0.0,0.0,0.0,0.0,0.0,0.0,0.0,0.0,0.0,0.0,0.0,0.0,0.0,0.0,0.0,0.0,0.0,0.0,0.0,0.0,0.0,0.0,0.0,0.0,0.0,0.0,0.0,0.0,0.0,0.0,0.0,0.0,0.0,0.0,0.0,0.0,0.0,0.0,0.0,0.0,0.0,0.0,0.0,0.0,0.0,0.0,0.0,0.0,0.0,0.0,0.0,0.0,0.0,0.0,0.0,0.0,0.0,0.0,0.0,0.0,0.0,0.0,0.0,0.0,0.0,0.0,0.0,0.0,0.0,0.0,0.0,0.0,0.0,0.0,0.0,0.0,0.0,0.0,0.0,0.0,0.0,0.0,0.0,0.0,0.0,0.0,0.0,0.0,0.0,0.0,0.0,0.0,0.0,0.0,0.0,0.0,0.0,0.0,0.0,0.0,0.0,0.0,0.0,0.0,0.0,0.0,0.0,0.0,0.0,0.0,0.0,0.0,0.0,0.0,0.0,0.0,0.0,0.0,0.0,0.0,0.0,0.0,0.0,0.0,0.0,0.0,0.0,0.0,0.0,0.0,0.0,0.0,0.0,0.0,0.0,0.0,0.0,0.0,0.0,0.0,0.0,0.0,0.0,0.0,0.0,0.0,0.0,0.0,0.0,0.0,0.0,0.0,0.0,0.0,0.0,0.0,0.0,0.0,0.0,0.0,0.0,0.0,0.0,0.0,0.0,0.0,0.0,0.0,0.0,0.0,0.0,0.0,0.0,0.0,0.0,0.0,0.0,0.0,0.0,0.0,0.0,0.0,0.0,0.0,0.0,0.0,0.0,0.0,0.0,0.0,0.0,0.0,0.0,0.0,0.0,0.0,0.0,0.0,0.0,0.0,0.0,0.0,0.0,0.0,0.0,0.0,0.0,0.0,0.0,0.0,0.0,0.0,0.0,0.0,0.0,0.0,0.0,0.0,0.0,0.0,0.0,0.0,0.0,0.0,0.0,0.0,0.0,0.0,0.0,0.0,0.0,0.0,0.0,0.0,0.0,0.0,0.0,0.0,0.0,0.0,0.0,0.0,0.0,0.0,0.0,0.0,0.0,0.0,0.0,0.0,0.0,0.0,0.0,0.0,0.0,0.0,0.0,0.0,0.0,0.0,0.0,0.0,0.0,0.0,0.0,0.0,0.0,0.0,0.0,0.0,0.0,0.0,0.0,0.0,0.0,0.0,0.0,0.0,0.0,0.0,0.0,0.0,0.0,0.0,0.0,0.0,0.0,0.0,0.0,0.0,0.0,0.0,0.0,0.0,0.0,0.0,0.0,0.0,0.0,0.0,0.0,0.0,0.0,0.0,0.0,0.0,0.0,0.0,0.0,0.0,0.0,0.0,0.0,0.0,0.0,0.0,0.0,0.0,0.0,0.0,0.0,0.0,0.0,0.0,0.0,0.0,0.0,0.0,0.0,0.0,0.0,0.0,0.0,0.0,0.0,0.0,0.0,0.0,0.0,0.0,0.0,0.0,0.0,0.0,0.0,0.0,0.0,0.0,0.0,0.0,0.0,0.0,0.0,0.0,0.0,0.0,0.0,0.0,0.0,0.0,0.0,0.0,0.0,0.0,0.0,0.0,0.0,0.0,0.0,0.0,0.0,0.0,0.0,0.0,0.0,0.0,0.0,0.0,0.0,0.0,0.0,0.0,0.0,0.0,0.0,0.0,0.0,0.0,0.0,0.0,0.0,0.0,0.0,0.0,0.0,0.0,0.0,0.0,0.0,0.0,0.0,0.0,0.0,0.0,0.0,0.0,0.0,0.0,0.0,0.0,0.0,0.0,0.0,0.0,0.0,0.0,0.0,0.0,0.0,0.0,0.0,0.0,0.0,0.0,0.0,0.0,0.0,0.0,0.0,0.0,0.0,0.0,0.0,0.0,0.0,0.0,0.0,0.0,0.0,0.0,0.0,0.0,0.0,0.0,0.0,0.0,0.0,0.0,0.0,0.0,0.0,0.0,0.0,0.0,0.0,0.0,0.0,0.0,0.0,0.0,0.0,0.0,0.0,0.0,0.0,0.0,0.0,0.0,-5.0488,0.0,0.0,0.0,0.0,0.0,0.0,0.0,0.0,0.0,0.0,0.0,0.0,0.0,0.0,0.0,0.0,0.0,0.0,0.0,0.0,0.0,0.0,0.0,0.0,0.0,0.0,0.0,0.0,0.0,0.0,0.0,0.0,0.0,0.0,0.0,0.0,0.0,0.0,0.0,0.0,0.0,0.0,0.0,0.0,0.0,0.0,0.0,0.0,0.0,0.0,0.0,0.0,0.0,0.0,0.0,0.0,0.0,0.0,0.0,0.0,0.0,0.0,0.0,0.0,0.0,0.0,0.0,0.0,0.0,0.0,0.0,0.0,0.0,0.0,0.0,0.0,0.0,0.0,0.0,0.0,0.0,0.0,0.0,0.0,0.0,0.0,0.0,0.0,0.0,0.0,0.0,0.0,0.0,0.0,0.0,0.0,0.0,0.0,0.0,0.0,0.0,0.0,0.0,0.0,0.0,0.0,0.0,0.0,0.0,0.0,-5.1719,-5.2305,-5.0254,-4.9648,-5.0742,0.0,0.0,0.0,0.0,0.0,0.0,0.0,0.0,0.0,0.0,0.0,0.0,0.0,0.0,0.0,0.0,0.0,0.0,0.0,0.0,0.0,0.0,0.0,0.0,0.0,0.0,0.0,0.0,0.0,0.0,0.0,0.0,0.0,0.0,0.0,0.0,0.0,0.0,0.0,0.0,0.0,0.0,0.0,0.0,0.0,0.0,0.0,0.0,0.0,0.0,0.0,0.0,0.0,0.0,0.0,0.0,0.0,0.0,0.0,0.0,0.0,0.0,0.0,0.0,0.0,0.0,0.0,0.0,0.0,0.0,0.0,0.0,0.0,0.0,0.0,0.0,0.0,0.0,0.0,0.0,0.0,0.0,0.0,0.0,0.0,0.0,0.0,0.0,0.0,0.0,0.0,0.0,0.0,0.0,0.0,0.0,0.0,0.0,0.0,0.0,0.0,0.0,0.0,0.0,0.0,0.0,0.0,0.0,0.0,0.0,0.0,0.0,-5.0234,-4.9668,-5.0605,0.0,0.0,0.0,0.0,0.0,0.0,0.0,0.0,0.0,0.0,0.0,0.0,0.0,0.0,0.0,0.0,0.0,0.0,0.0,0.0,0.0,0.0,0.0,0.0,0.0,0.0,0.0,0.0,0.0,0.0,0.0,0.0,0.0,0.0,0.0,0.0,0.0,0.0,0.0,0.0,0.0,0.0,0.0,0.0,0.0,0.0,0.0,0.0,0.0,0.0,0.0,0.0,0.0,0.0,0.0,0.0,0.0,0.0,0.0,0.0,0.0,0.0,0.0,0.0,0.0,0.0,0.0,0.0,0.0,0.0,0.0,0.0,0.0,0.0,0.0,0.0,0.0,0.0,0.0,0.0,0.0,0.0,0.0,0.0,0.0,0.0,0.0,0.0,0.0,0.0,0.0,0.0,0.0,0.0,0.0,0.0,0.0,0.0,0.0,0.0,0.0,0.0,0.0,0.0,0.0,0.0,0.0,0.0,0.0,0.0,-5.3262,-5.2129,-5.2207,0.0,-5.0391,0.0,0.0,0.0,0.0,0.0,0.0,0.0,0.0,0.0,0.0,0.0,0.0,0.0,0.0,0.0,0.0,0.0,0.0,0.0,0.0,0.0,0.0,0.0,0.0,0.0,0.0,0.0,0.0,0.0,0.0,0.0,0.0,0.0,0.0,0.0,0.0,0.0,0.0,0.0,0.0,0.0,0.0,0.0,0.0,0.0,0.0,0.0,0.0,0.0,0.0,0.0,0.0,0.0,0.0,0.0,0.0,0.0,0.0,0.0,0.0,0.0,0.0,0.0,0.0,0.0,0.0,0.0,0.0,0.0,0.0,0.0,0.0,0.0,0.0,0.0,0.0,0.0,0.0,0.0,0.0,0.0,0.0,0.0,0.0,0.0,0.0,0.0,0.0,0.0,0.0,0.0,0.0,0.0,0.0,0.0,0.0,0.0,0.0,0.0,0.0,0.0,0.0,0.0,0.0,0.0,0.0,0.0,0.0,0.0,0.0,-5.3789,-5.248,-5.1641,-5.0879,0.0,0.0,0.0,0.0,0.0,0.0,0.0,0.0,0.0,0.0,0.0,0.0,0.0,0.0,0.0,0.0,0.0,0.0,0.0,0.0,0.0,0.0,0.0,0.0,0.0,0.0,0.0,0.0,0.0,0.0,0.0,0.0,0.0,0.0,0.0,0.0,0.0,0.0,0.0,0.0,0.0,0.0,0.0,0.0,0.0,0.0,0.0,0.0,0.0,0.0,0.0,0.0,0.0,0.0,0.0,0.0,0.0,0.0,0.0,0.0,0.0,0.0,0.0,0.0,0.0,0.0,0.0,0.0,0.0,0.0,0.0,0.0,0.0,0.0,0.0,0.0,0.0,0.0,0.0,0.0,0.0,0.0,0.0,0.0,0.0,0.0,0.0,0.0,0.0,0.0,0.0,0.0,0.0,0.0,0.0,0.0,0.0,0.0,0.0,0.0,0.0,0.0,0.0,0.0,0.0,0.0,0.0,0.0,0.0,0.0,-5.4101,-5.375,-5.2558,-5.123,-5.041,-5.0176,0.0,0.0,0.0,0.0,0.0,0.0,0.0,0.0,0.0,0.0,0.0,0.0,0.0,0.0,0.0,0.0,0.0,0.0,0.0,0.0,0.0,0.0,0.0,0.0,0.0,0.0,0.0,0.0,0.0,0.0,0.0,0.0,0.0,0.0,0.0,0.0,0.0,0.0,0.0,0.0,0.0,0.0,0.0,0.0,0.0,0.0,0.0,0.0,0.0,0.0,0.0,0.0,0.0,0.0,0.0,0.0,0.0,0.0,0.0,0.0,0.0,0.0,0.0,0.0,0.0,0.0,0.0,0.0,0.0,0.0,0.0,0.0,0.0,0.0,0.0,0.0,0.0,0.0,0.0,0.0,0.0,0.0,0.0,0.0,0.0,0.0,0.0,0.0,0.0,0.0,0.0,0.0,0.0,0.0,0.0,0.0,0.0,0.0,0.0,0.0,0.0,0.0,0.0,0.0,0.0,0.0,0.0,0.0,-5.2832,-5.3203,-5.3008,-5.2148,-5.1621,-5.0996,0.0,0.0,0.0,0.0,0.0,0.0,0.0,0.0,0.0,0.0,0.0,0.0,0.0,0.0,0.0,0.0,0.0,0.0,0.0,0.0,0.0,0.0,0.0,0.0,0.0,0.0,0.0,0.0,0.0,0.0,0.0,0.0,0.0,0.0,0.0,0.0,0.0,0.0,0.0,0.0,0.0,0.0,0.0,0.0,0.0,0.0,0.0,0.0,0.0,0.0,0.0,0.0,0.0,0.0,0.0,0.0,0.0,0.0,0.0,0.0,0.0,0.0,0.0,0.0,0.0,0.0,0.0,0.0,0.0,0.0,0.0,0.0,0.0,0.0,0.0,0.0,0.0,0.0,0.0,0.0,0.0,0.0,0.0,0.0,0.0,0.0,0.0,0.0,0.0,0.0,0.0,0.0,0.0,0.0,0.0,0.0,0.0,0.0,0.0,0.0,0.0,0.0,0.0,0.0,0.0,0.0,0.0,0.0,0.0,-5.3555,-5.3164,-5.2676,-5.209,-5.1133,-5.0351,0.0,0.0,0.0,0.0,0.0,0.0,0.0,0.0,0.0,0.0,0.0,0.0,0.0,0.0,0.0,0.0,0.0,0.0,0.0,0.0,0.0,0.0,0.0,0.0,0.0,0.0,0.0,0.0,0.0,0.0,0.0,0.0,0.0,0.0,0.0,0.0,0.0,0.0,0.0,0.0,0.0,0.0,0.0,0.0,0.0,0.0,0.0,0.0,0.0,0.0,0.0,0.0,0.0,0.0,0.0,0.0,0.0,0.0,0.0,0.0,0.0,0.0,0.0,0.0,0.0,0.0,0.0,0.0,0.0,0.0,0.0,0.0,0.0,0.0,0.0,0.0,0.0,0.0,0.0,0.0,0.0,0.0,0.0,0.0,0.0,0.0,0.0,0.0,0.0,0.0,0.0,0.0,0.0,0.0,0.0,0.0,0.0,0.0,0.0,0.0,0.0,0.0,0.0,0.0,0.0,0.0,0.0,0.0,0.0,-5.3594,0.0,-5.2031,-5.1836,-5.0781,-5.0039,0.0,0.0,0.0,0.0,0.0,0.0,0.0,0.0,0.0,0.0,0.0,0.0,0.0,0.0,0.0,0.0,0.0,0.0,0.0,0.0,0.0,0.0,0.0,0.0,0.0,0.0,0.0,0.0,0.0,0.0,0.0,0.0,0.0,0.0,0.0,0.0,0.0,0.0,0.0,0.0,0.0,0.0,0.0,0.0,0.0,0.0,0.0,0.0,0.0,0.0,0.0,0.0,0.0,0.0,0.0,0.0,0.0,0.0,0.0,0.0,0.0,0.0,0.0,0.0,0.0,0.0,0.0,0.0,0.0,0.0,0.0,0.0,0.0,0.0,0.0,0.0,0.0,0.0,0.0,0.0,0.0,0.0,0.0,0.0,0.0,0.0,0.0,0.0,0.0,0.0,0.0,0.0,0.0,0.0,0.0,0.0,0.0,0.0,0.0,0.0,0.0,0.0,0.0,0.0,0.0,0.0,0.0,0.0,-5.3613,-5.2754,-5.1523,-5.1152,-5.1445,-5.0644,-5.0176,0.0,0.0,0.0,0.0,0.0,0.0,0.0,0.0,0.0,0.0,0.0,0.0,0.0,0.0,0.0,0.0,0.0,0.0,0.0,0.0,0.0,0.0,0.0,0.0,0.0,0.0,0.0,0.0,0.0,0.0,0.0,0.0,0.0,0.0,0.0,0.0,0.0,0.0,0.0,0.0,0.0,0.0,0.0,0.0,0.0,0.0,0.0,0.0,0.0,0.0,0.0,0.0,0.0,0.0,0.0,0.0,0.0,0.0,0.0,0.0,0.0,0.0,0.0,0.0,0.0,0.0,0.0,0.0,0.0,0.0,0.0,0.0,0.0,0.0,0.0,0.0,0.0,0.0,0.0,0.0,0.0,0.0,0.0,0.0,0.0,0.0,0.0,0.0,0.0,0.0,0.0,0.0,0.0,0.0,0.0,0.0,0.0,0.0,0.0,0.0,0.0,0.0,0.0,0.0,0.0,0.0,0.0,0.0,0.0,-5.3594,-5.2363,-5.2187,-5.3086,-5.0957,-5.0293,0.0,0.0,0.0,0.0,0.0,0.0,0.0,0.0,0.0,0.0,0.0,0.0,0.0,0.0,0.0,0.0,0.0,0.0,0.0,0.0,0.0,0.0,0.0,0.0,0.0,0.0,0.0,0.0,0.0,0.0,0.0,0.0,0.0,0.0,0.0,0.0,0.0,0.0,0.0,0.0,0.0,0.0,0.0,0.0,0.0,0.0,0.0,0.0,0.0,0.0,0.0,0.0,0.0,0.0,0.0,0.0,0.0,0.0,0.0,0.0,0.0,0.0,0.0,0.0,0.0,0.0,0.0,0.0,0.0,0.0,0.0,0.0,0.0,0.0,0.0,0.0,0.0,0.0,0.0,0.0,0.0,0.0,0.0,0.0,0.0,0.0,0.0,0.0,0.0,0.0,0.0,0.0,0.0,0.0,0.0,0.0,0.0,0.0,0.0,0.0,0.0,0.0,0.0,0.0,0.0,0.0,0.0,0.0,0.0,-5.5156,-5.3476,-5.2671,-5.2908,-5.0957,-5.0166,-5.0726,0.0,0.0,0.0,0.0,0.0,0.0,0.0,0.0,0.0,0.0,0.0,0.0,0.0,0.0,0.0,0.0,0.0,0.0,0.0,0.0,0.0,0.0,0.0,0.0,0.0,0.0,0.0,0.0,0.0,0.0,0.0,0.0,0.0,0.0,0.0,0.0,0.0,0.0,0.0,0.0,0.0,0.0,0.0,0.0,0.0,0.0,0.0,0.0,0.0,0.0,0.0,0.0,0.0,0.0,0.0,0.0,0.0,0.0,0.0,0.0,0.0,0.0,0.0,0.0,0.0,0.0,0.0,0.0,0.0,0.0,0.0,0.0,0.0,0.0,0.0,0.0,0.0,0.0,0.0,0.0,0.0,0.0,0.0,0.0,0.0,0.0,0.0,0.0,0.0,0.0,0.0,0.0,0.0,0.0,0.0,0.0,0.0,0.0,0.0,0.0,0.0,0.0,0.0,0.0,0.0,0.0,0.0,0.0,-5.7324,-5.5019,-5.3207,-5.1733,-5.0924,-5.0072,0.0,0.0,0.0,0.0,0.0,0.0,0.0,0.0,0.0,0.0,0.0,0.0,0.0,0.0,0.0,0.0,0.0,0.0,0.0,0.0,0.0,0.0,0.0,0.0,0.0,0.0,0.0,0.0,0.0,0.0,0.0,0.0,0.0,0.0,0.0,0.0,0.0,0.0,0.0,0.0,0.0,0.0,0.0,0.0,0.0,0.0,0.0,0.0,0.0,0.0,0.0,0.0,0.0,0.0,0.0,0.0,0.0,0.0,0.0,0.0,0.0,0.0,0.0,0.0,0.0,0.0,0.0,0.0,0.0,0.0,0.0,0.0,0.0,0.0,0.0,0.0,0.0,0.0,0.0,0.0,0.0,0.0,0.0,0.0,0.0,0.0,0.0,0.0,0.0,0.0,0.0,0.0,0.0,0.0,0.0,0.0,0.0,0.0,0.0,0.0,0.0,0.0,0.0,0.0,0.0,0.0,0.0,0.0,0.0,-5.8652,-5.8926,-5.8001,-5.5806,-5.2443,-5.1145,0.0,0.0,0.0,0.0,0.0,0.0,0.0,0.0,0.0,0.0,0.0,0.0,0.0,0.0,0.0,0.0,0.0,0.0,0.0,0.0,0.0,0.0,0.0,0.0,0.0,0.0,0.0,0.0,0.0,0.0,0.0,0.0,0.0,0.0,0.0,0.0,0.0,0.0,0.0,0.0,0.0,0.0,0.0,0.0,0.0,0.0,0.0,0.0,0.0,0.0,0.0,0.0,0.0,0.0,0.0,0.0,0.0,0.0,0.0,0.0,0.0,0.0,0.0,0.0,0.0,0.0,0.0,0.0,0.0,0.0,0.0,0.0,0.0,0.0,0.0,0.0,0.0,0.0,0.0,0.0,0.0,0.0,0.0,0.0,0.0,0.0,0.0,0.0,0.0,0.0,0.0,0.0,0.0,0.0,0.0,0.0,0.0,0.0,0.0,0.0,0.0,0.0,0.0,0.0,0.0,0.0,0.0,0.0,-5.9922,-6.0254,-6.2031,-6.1773,-5.9316,-5.5302,-5.3134,0.0,0.0,0.0,0.0,0.0,0.0,0.0,0.0,0.0,0.0,0.0,0.0,0.0,0.0,0.0,0.0,0.0,0.0,0.0,0.0,0.0,0.0,0.0,0.0,0.0,0.0,0.0,0.0,0.0,0.0,0.0,0.0,0.0,0.0,0.0,0.0,0.0,0.0,0.0,0.0,0.0,0.0,0.0,0.0,0.0,0.0,0.0,0.0,0.0,0.0,0.0,0.0,0.0,0.0,0.0,0.0,0.0,0.0,0.0,0.0,0.0,0.0,0.0,0.0,0.0,0.0,0.0,0.0,0.0,0.0,0.0,0.0,0.0,0.0,0.0,0.0,0.0,0.0,0.0,0.0,0.0,0.0,0.0,0.0,0.0,0.0,0.0,0.0,0.0,0.0,0.0,0.0,0.0,0.0,0.0,0.0,0.0,0.0,0.0,0.0,0.0,0.0,0.0,0.0,0.0,0.0,0.0,0.0,-6.2168,-6.1953,-6.4375,-6.4566,-6.2254,-5.8632,-5.5356,0.0,0.0,0.0,0.0,0.0,0.0,0.0,0.0,0.0,0.0,0.0,0.0,0.0,0.0,0.0,0.0,0.0,0.0,0.0,0.0,0.0,0.0,0.0,0.0,0.0,0.0,0.0,0.0,0.0,0.0,0.0,0.0,0.0,0.0,0.0,0.0,0.0,0.0,0.0,0.0,0.0,0.0,0.0,0.0,0.0,0.0,0.0,0.0,0.0,0.0,0.0,0.0,0.0,0.0,0.0,0.0,0.0,0.0,0.0,0.0,0.0,0.0,0.0,0.0,0.0,0.0,0.0,0.0,0.0,0.0,0.0,0.0,0.0,0.0,0.0,0.0,0.0,0.0,0.0,0.0,0.0,0.0,0.0,0.0,0.0,0.0,0.0,0.0,0.0,0.0,0.0,0.0,0.0,0.0,0.0,0.0,0.0,0.0,0.0,0.0,0.0,0.0,0.0,0.0,0.0,0.0,0.0,0.0,-6.2305,-6.3281,-6.5117,-6.5676,-6.4806,-5.8525,-5.4814,0.0,0.0,0.0,0.0,0.0,0.0,0.0,0.0,0.0,0.0,0.0,0.0,0.0,0.0,0.0,0.0,0.0,0.0,0.0,0.0,0.0,0.0,0.0,0.0,0.0,0.0,0.0,0.0,0.0,0.0,0.0,0.0,0.0,0.0,0.0,0.0,0.0,0.0,0.0,0.0,0.0,0.0,0.0,0.0,0.0,0.0,0.0,0.0,-3.4042,0.0,0.0,0.0,0.0,0.0,0.0,0.0,0.0,0.0,0.0,0.0,0.0,0.0,0.0,0.0,0.0,0.0,0.0,0.0,0.0,0.0,0.0,0.0,0.0,0.0,0.0,0.0,0.0,0.0,0.0,0.0,0.0,0.0,0.0,0.0,0.0,0.0,0.0,0.0,0.0,0.0,0.0,0.0,0.0,0.0,0.0,0.0,0.0,0.0,0.0,0.0,0.0,0.0,0.0,0.0,0.0,0.0,0.0,0.0,-6.3281,-6.4551,-6.6055,-6.6621,-6.5969,-6.0438,-5.6512,0.0,0.0,0.0,0.0,0.0,0.0,0.0,0.0,0.0,0.0,0.0,0.0,0.0,0.0,0.0,0.0,0.0,0.0,0.0,0.0,0.0,0.0,0.0,0.0,0.0,0.0,0.0,0.0,0.0,0.0,0.0,0.0,0.0,0.0,0.0,0.0,0.0,0.0,0.0,0.0,0.0,0.0,0.0,0.0,0.0,0.0,0.0,0.0,0.0,0.0,0.0,0.0,0.0,0.0,0.0,0.0,0.0,0.0,0.0,0.0,0.0,0.0,0.0,0.0,0.0,0.0,0.0,0.0,0.0,0.0,0.0,0.0,0.0,0.0,0.0,0.0,0.0,0.0,0.0,0.0,0.0,0.0,0.0,0.0,0.0,0.0,0.0,0.0,0.0,0.0,0.0,0.0,0.0,0.0,0.0,0.0,0.0,0.0,0.0,0.0,0.0,0.0,0.0,0.0,0.0,0.0,0.0,-6.2305,-6.4277,-6.584,-6.6933,-6.7265,-6.6738,-6.277,-5.9121,-5.6015,0.0,0.0,0.0,0.0,0.0,0.0,0.0,0.0,0.0,0.0,0.0,0.0,0.0,0.0,0.0,0.0,0.0,0.0,0.0,0.0,0.0,0.0,0.0,0.0,0.0,0.0,0.0,0.0,0.0,0.0,0.0,0.0,0.0,0.0,0.0,0.0,0.0,0.0,-3.503,-3.5284,0.0,0.0,0.0,0.0,0.0,0.0,0.0,0.0,-3.4523,0.0,0.0,0.0,0.0,0.0,0.0,0.0,0.0,0.0,0.0,0.0,0.0,0.0,0.0,0.0,0.0,0.0,0.0,0.0,0.0,0.0,0.0,0.0,0.0,0.0,0.0,0.0,0.0,0.0,0.0,0.0,0.0,0.0,0.0,0.0,0.0,0.0,0.0,0.0,0.0,0.0,0.0,0.0,0.0,0.0,0.0,0.0,0.0,0.0,0.0,0.0,0.0,0.0,0.0,0.0,0.0,-6.3379,-6.289,-6.4062,-6.709,-6.7383,-6.7129,-6.6308,-6.3801,-6.0833,-5.739,0.0,0.0,0.0,0.0,0.0,0.0,0.0,0.0,0.0,0.0,0.0,0.0,0.0,0.0,0.0,0.0,0.0,0.0,0.0,0.0,0.0,0.0,0.0,0.0,0.0,0.0,0.0,0.0,0.0,0.0,0.0,0.0,0.0,0.0,0.0,0.0,0.0,0.0,0.0,-3.7649,-3.8116,0.0,0.0,0.0,0.0,0.0,0.0,0.0,0.0,-3.479,0.0,0.0,0.0,0.0,0.0,0.0,0.0,0.0,0.0,0.0,0.0,0.0,0.0,0.0,0.0,0.0,0.0,0.0,0.0,0.0,0.0,0.0,0.0,0.0,0.0,0.0,0.0,0.0,0.0,0.0,0.0,0.0,0.0,0.0,0.0,0.0,0.0,0.0,0.0,0.0,0.0,0.0,0.0,0.0,0.0,0.0,0.0,0.0,0.0,0.0,0.0,0.0,0.0,0.0,0.0,-6.3086,-6.4004,-6.539,-6.7422,-6.7734,-6.7344,-6.6211,-6.3711,-6.1444,0.0,0.0,0.0,0.0,0.0,0.0,0.0,0.0,0.0,0.0,0.0,0.0,0.0,0.0,0.0,0.0,0.0,0.0,0.0,0.0,0.0,0.0,0.0,0.0,0.0,0.0,0.0,0.0,0.0,0.0,0.0,0.0,0.0,0.0,0.0,0.0,0.0,0.0,0.0,0.0,-3.9631,-3.9986,-3.9829,0.0,0.0,0.0,0.0,0.0,0.0,-3.5819,-3.5591,0.0,0.0,0.0,0.0,0.0,0.0,0.0,0.0,0.0,0.0,0.0,0.0,0.0,0.0,0.0,0.0,0.0,0.0,0.0,0.0,0.0,0.0,0.0,0.0,0.0,0.0,0.0,0.0,0.0,0.0,0.0,0.0,0.0,0.0,0.0,0.0,0.0,0.0,0.0,0.0,0.0,0.0,0.0,0.0,0.0,0.0,0.0,0.0,0.0,0.0,0.0,0.0,0.0,0.0,0.0,-6.248,-6.4863,-6.6601,-6.7598,-6.7988,-6.748,-6.5976,-6.3379,-6.1816,0.0,0.0,0.0,0.0,0.0,0.0,0.0,0.0,0.0,0.0,0.0,0.0,0.0,0.0,0.0,0.0,0.0,0.0,0.0,0.0,0.0,0.0,0.0,0.0,0.0,0.0,0.0,0.0,0.0,0.0,0.0,0.0,0.0,0.0,0.0,0.0,0.0,0.0,0.0,0.0,0.0,-4.1653,-4.2066,-4.0211,0.0,0.0,0.0,0.0,-3.6727,-3.7088,0.0,0.0,0.0,0.0,0.0,0.0,0.0,0.0,0.0,0.0,0.0,0.0,0.0,0.0,0.0,0.0,0.0,0.0,0.0,0.0,0.0,0.0,0.0,0.0,0.0,0.0,0.0,0.0,0.0,0.0,0.0,0.0,0.0,0.0,0.0,0.0,0.0,0.0,0.0,0.0,0.0,0.0,0.0,0.0,0.0,0.0,0.0,0.0,0.0,0.0,0.0,0.0,0.0,0.0,0.0,0.0,-6.2871,-6.4746,-6.6465,-6.8008,-6.8164,-6.7187,-6.5137,-6.3652,-6.2168,0.0,0.0,0.0,0.0,0.0,0.0,0.0,0.0,0.0,0.0,0.0,0.0,0.0,0.0,0.0,0.0,0.0,0.0,0.0,0.0,0.0,0.0,0.0,0.0,0.0,0.0,0.0,0.0,0.0,0.0,0.0,0.0,0.0,0.0,0.0,0.0,0.0,0.0,0.0,0.0,0.0,-4.333,-4.2728,-4.1412,-4.0187,0.0,0.0,-3.8544,-3.8758,-3.9693,0.0,0.0,0.0,0.0,0.0,0.0,0.0,0.0,0.0,0.0,0.0,0.0,0.0,0.0,0.0,0.0,0.0,0.0,0.0,0.0,0.0,0.0,0.0,0.0,0.0,0.0,0.0,0.0,0.0,0.0,0.0,0.0,0.0,0.0,0.0,0.0,0.0,0.0,0.0,0.0,0.0,0.0,0.0,0.0,0.0,0.0,0.0,0.0,0.0,0.0,0.0,0.0,0.0,0.0,0.0,-6.0293,-6.2988,-6.543,-6.7265,-6.8476,-6.832,-6.7383,-6.5703,-6.3242,-6.1582,0.0,0.0,0.0,0.0,0.0,0.0,0.0,0.0,0.0,0.0,0.0,0.0,0.0,0.0,0.0,0.0,0.0,0.0,0.0,0.0,0.0,0.0,0.0,0.0,0.0,0.0,0.0,0.0,0.0,0.0,0.0,0.0,0.0,0.0,0.0,0.0,0.0,0.0,0.0,0.0,0.0,0.0,-4.4954,-4.3591,0.0,0.0,0.0,-4.0561,-4.0855,0.0,0.0,0.0,0.0,0.0,0.0,0.0,0.0,0.0,0.0,0.0,0.0,0.0,0.0,0.0,0.0,0.0,0.0,0.0,0.0,0.0,0.0,0.0,0.0,0.0,0.0,0.0,0.0,0.0,0.0,0.0,0.0,0.0,0.0,0.0,0.0,0.0,0.0,0.0,0.0,0.0,0.0,0.0,0.0,0.0,0.0,0.0,0.0,0.0,0.0,0.0,0.0,0.0,0.0,0.0,0.0,0.0,-6.3008,-6.6094,-6.8047,-6.8769,-6.8398,-6.75,-6.6055,-6.3144,0.0,0.0,0.0,0.0,0.0,0.0,0.0,0.0,0.0,0.0,0.0,0.0,0.0,0.0,0.0,0.0,0.0,0.0,0.0,0.0,0.0,0.0,0.0,0.0,0.0,0.0,0.0,-4.7686,0.0,0.0,0.0,0.0,0.0,0.0,0.0,0.0,0.0,0.0,0.0,0.0,0.0,0.0,-4.6356,-4.6453,-4.5249,-4.4115,0.0,0.0,-4.2525,-4.2739,-4.2779,-4.2044,0.0,0.0,0.0,0.0,0.0,0.0,0.0,0.0,0.0,0.0,0.0,0.0,0.0,0.0,0.0,0.0,0.0,0.0,0.0,0.0,0.0,0.0,0.0,0.0,0.0,0.0,0.0,0.0,0.0,0.0,0.0,0.0,0.0,0.0,0.0,0.0,0.0,0.0,0.0,0.0,0.0,0.0,0.0,0.0,0.0,0.0,0.0,0.0,0.0,0.0,0.0,0.0,0.0,0.0,-6.1269,-6.3066,-6.6406,-6.8359,-6.8789,-6.8398,-6.7363,-6.5664,-6.3867,-6.1953,0.0,0.0,0.0,0.0,0.0,0.0,0.0,0.0,0.0,0.0,0.0,0.0,0.0,0.0,0.0,0.0,0.0,0.0,0.0,0.0,0.0,0.0,0.0,0.0,0.0,0.0,0.0,0.0,0.0,0.0,0.0,0.0,0.0,0.0,0.0,0.0,0.0,0.0,0.0,0.0,0.0,-4.5418,-4.5799,-4.5683,-4.5598,0.0,0.0,-4.4262,-4.4289,-4.5611,-4.5344,-4.143,0.0,0.0,0.0,0.0,0.0,0.0,0.0,0.0,0.0,0.0,0.0,0.0,0.0,0.0,0.0,0.0,0.0,0.0,0.0,0.0,0.0,0.0,0.0,0.0,0.0,0.0,0.0,0.0,0.0,0.0,0.0,0.0,0.0,0.0,0.0,0.0,0.0,0.0,0.0,0.0,0.0,0.0,0.0,0.0,0.0,0.0,0.0,0.0,0.0,0.0,0.0,0.0,0.0,-6.1426,-6.3437,-6.6289,-6.8222,-6.9121,-6.8262,-6.7324,-6.6406,-6.3945,-6.1738,0.0,0.0,0.0,0.0,0.0,0.0,0.0,0.0,0.0,0.0,0.0,0.0,0.0,0.0,0.0,0.0,0.0,0.0,0.0,0.0,0.0,0.0,0.0,0.0,0.0,0.0,0.0,0.0,-4.258,-4.0282,-3.8325,0.0,0.0,0.0,0.0,0.0,0.0,0.0,0.0,0.0,0.0,-4.6448,-4.713,-4.7165,0.0,0.0,-4.6266,-4.6052,-4.6052,-4.5865,-4.4877,-4.2392,-4.1216,0.0,0.0,0.0,0.0,0.0,0.0,0.0,0.0,0.0,0.0,0.0,0.0,0.0,0.0,0.0,0.0,0.0,0.0,0.0,0.0,0.0,0.0,0.0,0.0,0.0,0.0,0.0,0.0,0.0,0.0,0.0,0.0,0.0,0.0,0.0,0.0,0.0,0.0,0.0,0.0,0.0,0.0,0.0,0.0,0.0,0.0,0.0,0.0,0.0,0.0,0.0,0.0,-6.164,-6.3672,-6.6191,-6.8066,-6.9219,-6.8105,-6.7285,-6.6816,-6.4199,-6.1953,0.0,0.0,0.0,0.0,0.0,0.0,0.0,0.0,0.0,0.0,0.0,0.0,0.0,0.0,0.0,0.0,0.0,0.0,0.0,0.0,0.0,0.0,0.0,0.0,0.0,0.0,0.0,0.0,-4.0587,-3.8119,-3.7643,0.0,0.0,0.0,0.0,0.0,0.0,0.0,0.0,0.0,0.0,-4.6797,-4.7705,-4.7861,-4.7816,-4.7509,-4.7161,-4.6934,-4.6934,-4.6146,-4.4877,-4.2966,0.0,0.0,0.0,0.0,0.0,0.0,0.0,0.0,0.0,0.0,0.0,0.0,0.0,0.0,0.0,0.0,0.0,0.0,0.0,0.0,0.0,0.0,0.0,0.0,0.0,0.0,0.0,-6.4992,0.0,0.0,-6.3252,0.0,0.0,0.0,0.0,0.0,0.0,0.0,0.0,0.0,0.0,0.0,0.0,0.0,0.0,0.0,0.0,0.0,0.0,0.0,0.0,0.0,0.0,-6.1933,-6.3691,-6.6191,-6.791,-6.8789,-6.7949,-6.7285,-6.6816,-6.4785,-6.2832,-6.1035,0.0,0.0,0.0,0.0,0.0,0.0,0.0,0.0,0.0,0.0,0.0,0.0,0.0,0.0,0.0,0.0,0.0,0.0,0.0,0.0,0.0,0.0,0.0,0.0,0.0,0.0,-4.3232,-3.9443,-3.6797,0.0,0.0,0.0,0.0,0.0,0.0,0.0,0.0,0.0,0.0,-4.5043,-4.6039,-4.7048,-4.7549,-4.803,-4.8297,-4.7388,-4.6654,-4.668,-4.6841,-4.6039,0.0,0.0,0.0,0.0,0.0,0.0,0.0,0.0,0.0,0.0,0.0,0.0,0.0,0.0,0.0,0.0,0.0,0.0,0.0,0.0,0.0,0.0,0.0,0.0,0.0,0.0,0.0,-6.3628,-6.2687,0.0,0.0,0.0,0.0,0.0,0.0,0.0,0.0,0.0,0.0,0.0,-6.041,-6.0137,0.0,0.0,0.0,0.0,0.0,0.0,0.0,0.0,0.0,0.0,0.0,0.0,-6.2226,-6.4473,-6.6211,-6.7637,-6.875,-6.7676,-6.6875,-6.6426,-6.4922,-6.1887,-5.7192,0.0,0.0,0.0,0.0,0.0,0.0,0.0,0.0,0.0,0.0,0.0,0.0,0.0,0.0,0.0,0.0,0.0,0.0,0.0,0.0,0.0,0.0,0.0,0.0,0.0,-4.188,0.0,0.0,0.0,0.0,0.0,0.0,0.0,0.0,0.0,0.0,0.0,-4.1541,-4.3697,-4.5025,-4.6066,-4.6948,-4.7736,-4.8324,0.0,0.0,0.0,0.0,0.0,0.0,0.0,0.0,0.0,0.0,0.0,0.0,0.0,0.0,-4.3955,-4.1136,-4.0227,-3.9893,-3.9893,0.0,0.0,0.0,0.0,0.0,0.0,0.0,0.0,0.0,0.0,0.0,0.0,0.0,0.0,-6.197,-6.0965,-6.0698,0.0,0.0,0.0,0.0,0.0,0.0,0.0,0.0,-6.0137,-6.0918,-6.1699,-6.1426,-6.0996,-6.043,-6.0176,-5.9101,0.0,0.0,0.0,0.0,0.0,0.0,0.0,0.0,-6.2207,-6.4453,-6.5918,-6.7187,-6.8242,-6.7246,-6.6504,-6.6191,-6.4531,-6.1267,-5.6141,-5.4303,-5.2364,0.0,0.0,0.0,0.0,0.0,0.0,0.0,0.0,0.0,0.0,0.0,0.0,0.0,0.0,0.0,0.0,0.0,0.0,0.0,0.0,0.0,0.0,0.0,-4.073,0.0,0.0,0.0,0.0,0.0,0.0,0.0,0.0,0.0,-4.0935,-4.1456,-4.2552,-4.4503,-4.5331,-4.6173,-4.7362,0.0,0.0,0.0,0.0,0.0,0.0,0.0,-4.6386,-4.5585,-4.5331,-4.5304,-4.5585,-4.652,-4.6907,-4.5945,0.0,0.0,-4.3273,-4.2352,-4.2018,-4.2018,-4.1911,-4.1844,-4.1964,-4.175,-4.1563,0.0,0.0,0.0,0.0,-6.6202,0.0,0.0,0.0,-6.1136,-6.0051,0.0,-5.831,0.0,0.0,0.0,0.0,-5.8059,-5.918,0.0,0.0,-6.1172,-6.1777,-6.1816,-6.1855,-6.1387,-6.0625,-6.1367,-6.0644,-5.8594,-5.7324,0.0,0.0,0.0,0.0,0.0,0.0,-6.1973,-6.375,-6.541,-6.664,-6.7422,-6.664,-6.6172,-6.6055,-6.3672,-6.0903,-5.7646,-5.5991,-5.3964,-5.1627,-5.1096,0.0,0.0,0.0,0.0,0.0,0.0,0.0,0.0,0.0,0.0,0.0,0.0,0.0,0.0,0.0,0.0,0.0,0.0,0.0,0.0,-4.2642,0.0,0.0,0.0,0.0,0.0,0.0,0.0,0.0,0.0,0.0,-4.2031,-4.2913,-4.4235,-4.5932,0.0,0.0,0.0,0.0,-4.7736,-4.8337,-4.8404,-4.8203,-4.7642,-4.7976,-4.7749,-4.6119,0.0,0.0,-4.7308,-4.7869,-4.8083,-4.6934,-4.7014,-4.6961,-4.6333,-4.5411,-4.4863,-4.4837,-4.4182,-4.3768,-4.3982,-4.3808,-4.3514,-6.5113,0.0,0.0,0.0,0.0,-6.5791,-6.463,-6.2161,-6.1296,-5.9975,-5.8377,-5.7705,0.0,0.0,0.0,0.0,0.0,0.0,-6.0019,-6.1191,-6.2207,-6.2988,-6.3574,-6.3867,-6.3574,-6.2773,-6.2695,-6.1699,-5.9922,-5.9219,-5.8262,-5.7051,0.0,0.0,0.0,0.0,-6.2539,-6.4512,-6.5664,-6.6484,-6.7031,-6.6211,-6.5332,-6.4433,-6.2793,-6.0883,-5.8804,-5.7759,-5.5948,-5.3287,-5.3538,0.0,0.0,0.0,0.0,0.0,0.0,0.0,0.0,0.0,0.0,0.0,0.0,0.0,0.0,0.0,0.0,0.0,0.0,0.0,-4.1517,-4.0414,-3.9936,0.0,0.0,0.0,0.0,0.0,0.0,0.0,0.0,0.0,-4.4823,-4.5024,-4.5384,0.0,0.0,-4.7094,-4.7402,-4.7642,-4.8096,-4.8898,-4.8831,0.0,-4.8457,-4.8043,-4.7722,-4.7629,-4.8751,-4.9553,-4.9312,-4.9646,-4.9646,-4.8684,-4.8751,-4.8698,-4.7869,-4.6867,-4.6173,-4.6092,-4.5892,-4.5758,-4.5839,-4.5638,-4.5398,-6.7118,-6.5282,-6.5283,-6.5163,-6.5303,-6.6353,-6.5133,-6.2549,-6.2227,-6.1158,-5.9624,-5.8482,-5.8027,-5.8105,-5.7754,0.0,0.0,0.0,-6.0254,-6.1738,-6.2441,-6.332,-6.4297,-6.459,-6.4336,-6.3711,-6.3594,-6.2734,-6.1191,-6.0937,-6.0039,-5.8515,0.0,0.0,-5.9687,-6.1035,-6.2617,-6.4394,-6.5273,-6.5918,-6.6328,-6.5527,-6.4473,-6.3203,-6.2383,-6.133,-6.0033,-5.9073,-5.7679,-5.5776,-5.4574,-5.2717,0.0,0.0,0.0,0.0,0.0,0.0,0.0,0.0,0.0,0.0,0.0,-5.6237,-5.4056,0.0,0.0,0.0,-4.3868,-4.267,-4.2556,-4.1309,0.0,0.0,0.0,0.0,0.0,0.0,0.0,-4.3716,-4.5759,-4.6921,-4.6405,-4.7375,-4.7908,-4.753,-4.7469,-4.7602,-4.7896,0.0,-4.9101,-4.9313,-4.9795,-4.9928,-4.9447,-4.8791,-4.8537,-4.9005,-4.9753,-5.0354,-5.0488,-5.0475,-5.0234,-4.978,-4.9593,-4.9379,-4.8831,-4.8137,-4.7575,-4.7362,-4.7215,-4.7148,-4.7135,-4.6907,-4.6654,-6.9285,-6.7393,-6.6775,-6.6263,-6.6088,-6.7135,-6.6177,-6.3955,-6.3652,-6.3137,-6.2187,-6.0152,-5.9648,-6.0273,-5.9531,0.0,-5.9297,-5.9687,-6.0547,-6.1777,-6.2226,-6.3066,-6.4238,-6.4297,-6.4121,-6.375,-6.4082,-6.3633,-6.2461,-6.2402,-6.1758,-6.0488,-5.9375,-5.9394,-6.0488,-6.1328,-6.2422,-6.3711,-6.4531,-6.5098,-6.543,-6.4629,-6.3594,-6.2363,-6.2305,-6.1933,-6.1191,-6.009,-5.9202,-5.8535,-5.4945,-5.1996,-4.9981,0.0,0.0,0.0,0.0,0.0,0.0,0.0,0.0,0.0,0.0,0.0,0.0,0.0,0.0,-4.3985,-4.2513,0.0,-4.5766,-4.421,0.0,0.0,0.0,-4.2779,-4.4726,-4.5744,-4.6471,-4.6561,0.0,0.0,-4.746,-4.9933,-5.1306,-4.9755,-4.8522,-4.8056,-4.9098,-5.0064,-5.0376,-4.9648,-5.0952,-5.1659,-5.0471,-4.9889,-4.9686,-4.998,-5.0381,-5.0622,-5.0889,-5.0568,-5.0221,-5.0114,-4.9726,-4.9352,-4.9299,-4.9205,-4.9125,-4.8524,-4.819,-4.799,-4.7963,-4.7749,-4.7388,-7.1322,-7.1064,-7.0871,-6.9361,-6.7299,-6.7909,-6.744,-6.6324,-6.5418,-6.4019,-6.2227,-6.0447,-5.959,-5.9473,-5.9277,-5.9531,-6.0137,-6.0234,-6.0976,-6.2207,-6.2676,-6.3223,-6.3828,-6.416,-6.4258,-6.416,-6.3945,-6.3496,-6.291,-6.2871,-6.2207,-6.1015,-6.1269,-6.1289,-6.0976,-6.1777,-6.2851,-6.416,-6.4668,-6.4687,-6.414,-6.3613,-6.2871,-6.1894,-6.1875,-6.1777,-6.1562,-6.133,-6.0554,-5.9202,-5.7841,-5.5551,-5.2233,-5.1481,0.0,0.0,0.0,0.0,0.0,0.0,0.0,0.0,0.0,-5.4672,-5.0328,0.0,-4.7467,0.0,-4.1808,-4.1793,-4.4113,-4.3912,0.0,0.0,-4.4797,-4.5446,-4.7912,-4.7717,-4.7922,-4.9494,-5.1645,-5.2633,-5.1623,-5.3035,-5.3558,-5.1598,-5.0091,-4.9139,-4.8978,-5.0324,-5.1271,-5.1292,-5.2403,-5.2899,-5.1529,-5.0362,-4.982,-5.01,-5.0207,-5.0421,-5.0942,-5.0728,-5.0421,-5.0221,-5.0247,-5.002,-4.9406,-4.9459,-4.9473,-4.9139,-4.8818,-4.8591,-4.8591,-4.835,-4.8043,-7.2081,-7.2134,-7.2074,-7.0869,-6.9076,-6.9889,-6.9699,-6.8528,-6.7389,-6.5723,-6.3493,-6.1563,-6.043,-6.0039,-6.0039,-6.0273,-6.0723,-6.0723,-6.1308,-6.2363,-6.2812,-6.3262,-6.3691,-6.3926,-6.4043,-6.4023,-6.3594,-6.3262,-6.3027,-6.2832,-6.2363,-6.168,-6.1933,-6.1933,-6.1699,-6.2324,-6.3105,-6.4023,-6.4082,-6.3769,-6.3125,-6.2676,-6.2207,-6.1719,-6.1348,-6.123,-6.1426,-6.125,-6.0786,-6.0149,-5.9168,-5.7311,-5.4338,-5.2939,-5.1783,0.0,0.0,0.0,0.0,0.0,0.0,0.0,0.0,0.0,0.0,0.0,-4.7909,-4.4877,-4.3953,-4.4163,-4.5619,-4.5488,-4.5509,-4.5765,-4.5888,-4.7064,-4.965,-5.0312,-5.0962,-5.2454,-5.4674,-5.552,-5.4007,-5.5598,-5.6022,-5.3732,-5.2701,-5.1548,-5.0038,-5.1353,-5.2677,-5.1942,-5.3573,-5.4068,-5.2039,-5.1238,-5.0647,-5.0103,-5.006,-5.0261,-5.0568,-5.0394,-5.0141,-4.9994,-4.9994,-4.9873,-4.9392,-4.9406,-4.9459,-4.9326,-4.9152,-4.8938,-4.8671,-4.839,-4.807,-7.225,-7.179,-7.1858,-7.1551,-7.1135,-7.2249,-7.1877,-7.0292,-6.908,-6.7329,-6.5048,-6.2745,-6.1504,-6.1172,-6.1172,-6.1287,-6.1403,-6.1403,-6.1795,-6.254,-6.2971,-6.3264,-6.3515,-6.3574,-6.3613,-6.3574,-6.3164,-6.2949,-6.2949,-6.2558,-6.2344,-6.2265,-6.1953,-6.1992,-6.2363,-6.2754,-6.3164,-6.3594,-6.3281,-6.289,-6.2461,-6.2031,-6.1777,-6.168,-6.0879,-6.0605,-6.0976,-6.0644,-6.0605,-6.0957,-5.9553,-5.8019,-5.6422,-5.4351,-5.3609,0.0,-5.3968,0.0,0.0,0.0,0.0,0.0,0.0,0.0,0.0,-5.0254,-4.9094,-4.7285,-4.7346,-4.7878,-4.8665,-4.8178,-4.7692,-4.732,-4.7584,-4.8796,-5.1191,-5.2991,-5.4446,-5.5185,-5.769,-5.8387,-5.6088,-5.7748,-5.8432,-5.6091,-5.5691,-5.4641,-5.1815,-5.3062,-5.4157,-5.2729,-5.4682,-5.523,-5.3091,-5.2315,-5.169,-5.0363,-5.0009,-5.006,-5.0154,-4.994,-4.9726,-4.97,-4.9526,-4.9299,-4.9232,-4.9179,-4.9152,-4.9125,-4.9098,-4.8952,-4.8564,-4.8243,-4.7803,-7.2578,-7.2514,-7.2771,-7.2624,-7.2162,-7.2347,-7.1426,-6.9869,-6.8684,-6.6483,-6.3921,-6.2417,-6.166,-6.1601,-6.1601,-6.2182,-6.3108,-6.3108,-6.3188,-6.3368,-6.3809,-6.3462,-6.2637,-6.2988,-6.3164,-6.3125,-6.2695,-6.248,-6.25,-6.2402,-6.2187,-6.1855,-6.2109,-6.2285,-6.2363,0.0,0.0,0.0,-6.3437,-6.334,-6.291,-6.2461,-6.207,-6.1719,-6.0898,0.0,-6.0547,-6.0488,-6.0469,-6.0547,-5.9929,0.0,0.0,0.0,0.0,0.0,0.0,0.0,0.0,0.0,0.0,0.0,-5.3161,-5.2454,-5.0489,-4.9807,-4.9941,-5.1011,-4.9812,-4.9506,-5.1112,-5.1339,-5.1516,-5.1707,-5.1829,-5.2872,-5.5137,-5.525,-5.5729,-5.7701,-5.9458,-6.0325,-5.9738,-6.0741,-6.0603,-5.8608,-5.83,-5.7454,-5.5111,-5.5417,-5.5786,-5.5611,-5.603,-5.6114,-5.552,-5.3456,-5.2041,-5.1372,-5.0267,-4.9795,-4.9994,-4.99,-4.9713,-4.97,-4.9486,-4.9192,-4.8952,-4.8711,-4.8591,-4.8551,-4.8564,-4.8591,-4.8698,-4.8484,-4.8123,-7.3121,-7.26,-7.2853,-7.2588,0.0,-7.1755,-7.1023,-6.9937,-6.9215,-6.7072,-6.4014,-6.1979,-6.1074,-6.1094,-6.165,-6.2339,-6.2931,-6.3704,-6.3826,-6.3273,-6.3917,-6.3538,-6.2363,-6.2598,-6.2715,-6.2695,-6.2246,-6.2051,-6.2051,-6.2031,-6.1933,-6.1719,-6.1933,-6.2051,-6.2031,-6.2051,-6.2265,-6.2695,-6.2715,-6.2598,-6.2363,-6.1738,-6.1406,-6.1367,-6.0371,0.0,0.0,0.0,0.0,0.0,0.0,0.0,0.0,-5.9922,0.0,-5.9492,-5.9687,-5.8993,-5.7168,-5.6646,-5.5761,-5.4325,-5.4164,-5.3474,-5.1759,-5.1654,-5.2166,-5.2954,-5.2268,-5.1905,-5.228,-5.1909,-5.1989,-5.269,-5.2825,-5.368,-5.5604,-5.6526,-5.7217,-5.8017,-5.9697,-6.0867,-6.0867,-6.1862,-6.1929,-6.0795,-6.0558,-5.9762,-5.8187,-5.7491,-5.7445,-5.7694,-5.7507,-5.7125,-5.6388,-5.5085,-5.3237,-5.2194,-5.0976,-5.028,-4.9822,-4.9606,-4.9499,-4.9486,-4.9259,-4.8978,-4.8831,-4.8577,-4.8417,-4.8537,-4.8471,-4.8417,-4.8551,-4.8243,-4.7816,-7.393,-7.3068,-7.2975,-7.2481,-7.1874,-7.1336,-7.0493,-6.9689,-6.9358,0.0,0.0,-6.1821,-6.0658,-6.0772,-6.1794,-6.2453,-6.2944,-6.4326,-6.4358,-6.338,-6.3961,-6.3648,-6.2481,-6.2324,-6.2265,-6.2226,-6.1816,-6.164,-6.1699,-6.164,-6.164,-6.1699,-6.1719,-6.168,-6.1621,-6.168,-6.1855,-6.2109,-6.1933,-6.1836,-6.1816,-6.1074,-6.0801,-6.1094,-5.9922,-5.9453,-5.9785,-5.9473,-5.9492,-5.9902,-5.9922,-6.0078,-6.041,-6.0449,-6.0449,-6.0449,-6.0449,-5.9896,-5.8804,-5.7725,-5.6843,-5.5982,-5.5982,-5.5336,-5.3969,-5.4441,-5.4984,-5.4982,-5.5285,-5.5015,-5.3981,-5.3068,-5.2716,-5.3542,-5.3818,-5.4677,-5.5881,-5.7704,-5.8823,-5.8408,-5.9915,-6.1052,-6.1319,-6.2253,-6.2819,-6.2219,-6.1987,-6.1753,-6.0444,-5.9072,-5.8489,-5.8703,-5.845,-5.8149,-5.7125,-5.6244,-5.523,-5.3077,-5.2332,-5.1453,-5.0144,-4.9715,-4.9554,-4.9205,-4.8938,-4.8738,-4.8644,-4.8377,-4.8337,-4.8591,-4.8471,-4.8297,-4.8257,-4.7869,-4.7415,-7.4829,-7.47,-7.427,-7.3531,-7.2512,-7.1983,-7.0274,-6.7955,-6.7242,-6.584,-6.4016,-6.2606,-6.1908,-6.1888,-6.2114,-6.3353,-6.5271,-6.5577,-6.5598,-6.5397,-6.4892,-6.4006,-6.2748,-6.2086,-6.1816,-6.1777,-6.1367,-6.1367,-6.164,-6.1348,-6.1348,-6.166,-6.1719,-6.1523,-6.123,-6.1523,-6.1562,-6.1289,-6.1933,-6.2265,-6.2265,-6.1797,-6.1387,-6.1074,-6.0215,-5.9746,-5.9805,-5.9746,-5.9922,-6.0332,-6.0351,-6.039,-6.043,-6.0449,-6.0449,-6.0449,-6.0449,-6.0013,-5.9202,-5.8989,-5.8457,-5.7703,-5.8147,-5.7975,-5.6806,-5.7071,-5.7866,-5.9216,-5.9306,-5.9075,-5.8249,-5.808,-5.7585,-5.7161,-5.8216,-5.8939,-5.8364,-5.9862,-6.0817,-6.0459,-6.0967,-6.1673,-6.232,-6.2823,-6.3174,-6.267,-6.2841,-6.2689,-6.1878,-5.9985,-5.8738,-5.8675,-5.8627,-5.8452,-5.8005,-5.7125,-5.6259,-5.581,-5.4359,-5.3048,-5.1599,-5.1159,-5.0636,-4.9218,-4.8803,-4.839,-4.815,-4.7816,-4.7829,-4.8043,-4.8043,-4.799,-4.8003,-4.7722,-4.7322,-7.5677,-7.5082,-7.4496,-7.3488,-7.2183,-7.1049,-6.9616,-6.8155,-6.7408,-6.5633,-6.3207,-6.1959,-6.1523,-6.1523,-6.2192,-6.3411,-6.508,-6.6014,-6.6012,-6.5374,-6.4708,-6.3804,-6.2736,-6.1611,-6.1152,-6.1328,-6.0937,-6.082,-6.1015,-6.1055,-6.1074,-6.1035,-6.1015,-6.1035,-6.1094,-6.1035,-6.1152,-6.1426,-6.1816,-6.2012,-6.1992,-6.1601,-6.1289,-6.1074,-6.0469,-6.0156,-6.0156,-6.0156,-6.0234,-6.043,-6.0449,-6.0547,-6.0762,-6.0781,-6.0898,-6.1113,-6.1133,-6.0979,-6.0592,-5.9892,-5.9476,-5.9298,-5.8934,-5.9117,-5.9679,-5.9348,-5.9515,-6.021,-6.0518,-6.0332,-5.9838,-5.9502,-5.9556,-6.0014,-6.0551,-6.0984,-6.1243,-6.1627,-6.1835,-6.1538,-6.1336,-6.1921,-6.3249,-6.4,-6.4368,-6.4176,-6.4018,-6.3611,-6.35,-6.2088,-6.0631,-5.9809,-5.9281,-5.9042,-5.8739,-5.8005,-5.7269,-5.6533,-5.568,-5.465,-5.3194,-5.2317,-5.1313,-5.0319,-4.9291,-4.827,-4.799,-4.7696,-4.7669,-4.7829,-4.7789,-4.7762,-4.7829,-4.7589,-4.7081,-7.6472,-7.5473,-7.5109,-7.38,-7.2002,-7.0528,-6.9479,-6.8438,-6.7949,-6.5931,-6.3025,-6.1834,-6.114,-6.103,-6.2131,-6.3335,-6.4463,-6.6018,-6.6299,-6.5343,-6.456,-6.373,-6.2889,-6.144,-6.0834,-6.0859,-6.0508,-6.0351,-6.0469,-6.0683,-6.0683,-6.0449,-6.0449,-6.0566,-6.0781,-6.0566,-6.0762,-6.1387,-6.1426,-6.1523,-6.1699,-6.1387,-6.1191,-6.1074,-6.0762,-6.0586,-6.0586,-6.0586,-6.0625,-6.0723,-6.0723,-6.0879,-6.1211,-6.123,-6.1387,-6.168,-6.1719,-6.1719,-6.1602,-6.0764,-6.0311,-6.0635,-5.9917,-6.0154,-6.1714,-6.1457,-6.1125,-6.1218,-6.1583,-6.1527,-6.1,-6.0638,-6.0749,-6.1975,-6.2153,-6.2503,-6.3249,-6.3458,-6.3216,-6.2764,-6.2456,-6.294,-6.3897,-6.463,-6.5101,-6.5033,-6.4946,-6.4806,-6.4894,-6.4491,-6.3504,-6.208,-6.1015,-6.0582,-5.9995,-5.9725,-5.8994,-5.7686,-5.7032,-5.6023,-5.4736,-5.3151,-5.1855,-5.1151,-4.9581,-4.8428,-4.7976,-4.7696,-4.7642,-4.7843,-4.7789,-4.7696,-4.7869,-4.7469,-4.6907,-7.7284,-7.6758,-7.6583,-7.5103,-7.2737,-7.1908,-7.0124,-6.8054,-6.791,-6.6528,-6.4246,-6.3028,-6.1912,-6.114,-6.2241,-6.3335,-6.4529,-6.5671,-6.6251,-6.5995,-6.5301,-6.4439,-6.3216,-6.2383,-6.1454,-6.0563,-6.0078,-6.0039,-6.0332,-6.0098,-6.0098,-6.041,-6.0449,-6.0254,-6.0019,-6.0254,-6.0469,-6.0547,-6.0547,-6.0937,-6.166,-6.168,-6.1484,-6.1094,-6.1055,-6.1035,-6.1035,-6.1035,-6.1211,-6.1562,-6.1582,-6.1601,-6.164,-6.166,-6.168,-6.1699,-6.1719,-6.1719,-6.1719,-6.1602,-6.1505,-6.1563,-6.1776,-6.2066,-6.2808,-6.3116,-6.3544,-6.3713,-6.3849,-6.3316,-6.2334,-6.2697,-6.2706,-6.2478,-6.3896,-6.477,-6.4228,-6.5329,-6.5889,-6.4963,-6.4861,-6.4961,-6.4187,-6.4507,-6.4792,-6.5408,-6.6136,-6.6797,-6.7089,-6.6968,-6.6848,-6.5647,-6.4193,-6.3507,-6.3771,-6.2785,-6.1528,-6.1085,-5.9434,-5.7737,-5.6266,-5.4587,-5.2877,-5.2082,-4.9872,-4.8573,-4.8093,-4.7709,-4.7616,-4.7789,-4.7843,-4.7869,-4.7856,-4.7482,-4.6921,-7.7385,-7.6858,-7.6532,-7.5261,-7.317,-7.1333,-6.9944,-6.8834,-6.7905,-6.6707,-6.5471,-6.4617,-6.3691,-6.2986,-6.2789,-6.3661,-6.552,-6.6271,-6.6484,-6.6186,-6.5499,-6.4519,-6.3321,-6.2019,-6.0911,-6.0019,-5.9648,-5.9531,-5.9648,-5.9512,-5.9648,-6.0,-5.9824,-5.9726,-5.9785,-5.9726,-6.0058,-6.0781,-6.0312,-6.0488,-6.123,-6.1348,-6.1387,-6.1445,-6.1445,-6.1465,-6.1445,-6.1465,-6.1543,-6.1699,-6.1719,-6.1719,-6.1719,-6.1719,-6.1719,-6.1719,-6.1719,-6.1719,-6.1719,-6.1719,-6.1719,-6.1719,-6.1875,-6.2168,-6.2598,-6.3047,-6.3476,-6.3887,-6.416,-6.4054,-6.3605,-6.3984,-6.4141,-6.4055,-6.5293,-6.6169,-6.5811,-6.6052,-6.6079,-6.5965,-6.5576,-6.564,-6.6087,-6.6757,-6.7163,-6.7366,-6.7933,-6.8374,-6.8748,-6.8773,-6.8992,-6.9298,-6.8252,-6.6569,-6.5733,-6.4614,-6.349,-6.2203,-6.1127,-5.9848,-5.7879,-5.6312,-5.4786,-5.3681,-5.1322,-4.9748,-4.915,-4.8043,-4.7549,-4.7682,-4.7682,-4.7669,-4.7682,-4.7495,-4.7094,-7.7285,-7.6632,-7.6055,-7.4986,-7.3453,-7.145,-7.0111,-6.9383,-6.8051,-6.7119,-6.664,-6.5563,-6.5234,-6.5219,-6.3987,-6.442,-6.5842,-6.6698,-6.6911,-6.6569,-6.5904,-6.5003,-6.3732,-6.2042,-6.0738,-6.0073,-5.956,-5.9199,-5.9199,-5.9199,-5.9355,-5.9551,-5.9336,-5.9336,-5.957,-5.9316,-5.9746,-6.0723,-6.0176,-6.0234,-6.0957,-6.0957,-6.1113,-6.1504,-6.166,-6.1719,-6.1719,-6.1719,-6.1719,-6.1719,-6.1719,-6.1719,-6.1719,-6.1719,-6.1719,-6.1719,-6.1719,-6.1719,-6.1719,-6.1719,-6.1719,-6.1719,-6.1719,-6.1894,-6.2305,-6.2676,-6.3105,-6.3652,-6.3965,-6.416,-6.4336,-6.4687,-6.4922,-6.5,-6.6015,-6.668,-6.6612,-6.64,-6.6517,-6.6731,-6.6418,-6.6378,-6.7455,-6.8212,-6.8685,-6.8968,-6.9452,-6.9876,-7.0201,-7.0261,-7.0438,-7.1797,-7.1038,-6.963,-6.7541,-6.6569,-6.5296,-6.3335,-6.2299,-6.0711,-5.8754,-5.6974,-5.603,-5.4383,-5.2586,-5.1382,-5.0954,-4.9761,-4.8477,-4.8206,-4.7922,-4.7651,-4.7535,-4.7495,-4.7282,-7.7059,-7.608,-7.5502,-7.4638,-7.3552,-7.2789,-7.1459,-6.9568,-6.8489,-6.7927,-6.7526,-6.563,-6.5751,-6.7481,-6.5862,-6.5262,-6.5606,-6.6569,-6.7336,-6.7609,-6.6764,-6.5917,-6.5047,-6.2983,-6.1482,-6.0647,-5.9666,-5.9199,-5.9199,-5.9199,-5.9199,-5.9219,-5.9199,-5.9199,-5.9238,-5.9219,-5.9609,-6.0351,-6.0058,-6.0215,-6.0937,-6.0703,-6.0723,-6.1133,-6.1504,-6.1699,-6.1719,-6.1719,-6.1719,-6.1719,-6.1719,-6.1719,-6.1719,-6.1719,-6.1719,-6.1719,-6.1719,-6.1719,-6.1719,-6.1719,-6.1719,-6.1719,-6.1719,-6.1894,-6.2246,-6.2402,-6.2812,-6.3594,-6.3711,-6.3906,-6.4277,-6.4629,-6.4883,-6.4941,-6.5703,-6.6191,-6.625,-6.6885,-6.7333,-6.7548,-6.759,-6.7689,-6.7532,-6.7703,-6.8692,-6.9378,-7.0402,-7.1233,-7.1525,-7.1642,-7.1758,-7.1778,-7.1836,-7.172,-7.1428,-6.9786,-6.7533,-6.5376,-6.3321,-6.0926,-5.8412,-5.6448,-5.605,-5.5353,-5.3897,-5.3022,-5.2752,-5.1965,-5.0854,-4.9893,-4.849,-4.7922,-4.7638,-4.7495,-4.7268,-7.6733,-7.5979,-7.5075,-7.4407,-7.399,-7.2442,-7.1273,-7.0469,-6.8828,-6.824,-6.8194,-6.6985,-6.6971,-6.7814,-6.7268,-6.7002,-6.6973,-6.7737,-6.8054,-6.7798,-6.7118,-6.6297,-6.5068,-6.2941,-6.1571,-6.0879,-5.9718,-5.9199,-5.9199,-5.9199,-5.9199,-5.9199,-5.9199,-5.9199,-5.9199,-5.9199,-5.959,-6.0293,-6.0019,-6.0234,-6.0996,-6.0937,-6.0937,-6.1074,-6.123,-6.1445,-6.1719,-6.1719,-6.1719,-6.1719,-6.1719,-6.1719,-6.1719,-6.1719,-6.1719,-6.1719,-6.1719,-6.1719,-6.1719,-6.1719,-6.1719,-6.1719,-6.1719,-6.1777,-6.1973,-6.2207,-6.2617,-6.3164,-6.3555,-6.3867,-6.4219,-6.4453,-6.4531,-6.4648,-6.5293,-6.582,-6.5957,-6.6562,-6.7187,-6.7519,-6.8125,-6.8548,-6.8699,-6.9224,-6.99,-7.0556,-7.1097,-7.1445,-7.1543,-7.1601,-7.1621,-7.166,-7.1816,-7.1992,-7.1992,-7.1447,-6.9927,-6.7551,-6.5247,-6.301,-6.0542,-5.8661,-5.799,-5.7187,-5.5588,-5.487,-5.4729,-5.3642,-5.2442,-5.0725,-4.9327,-4.8692,-4.7638,-4.776,-4.739,-7.6306,-7.5653,-7.4623,-7.4146,-7.3925,-7.2354,-7.1479,-7.1096,-6.972,-6.9151,-6.9084,-6.8256,-6.8061,-6.8319,-6.8124,-6.7973,-6.7919,-6.8422,-6.8581,-6.8325,-6.7589,-6.6901,-6.603,-6.3761,-6.2275,-6.148,-5.9941,-5.9199,-5.9199,-5.9199,-5.9199,-5.9199,-5.9199,-5.9199,-5.9199,-5.9199,-5.959,-6.0215,-6.0156,-6.039,-6.0996,-6.1094,-6.1094,-6.1094,-6.1094,-6.1269,-6.1699,-6.1719,-6.1719,-6.1719,-6.1719,-6.1719,-6.1719,-6.1719,-6.1719,-6.1719,-6.1719,-6.1719,-6.1719,-6.1719,-6.1719,-6.1719,-6.1719,-6.1719,-6.1738,-6.2109,-6.2558,-6.2988,-6.3437,-6.3867,-6.4199,-6.4316,-6.4316,-6.4414,-6.5078,-6.5586,-6.5644,-6.6367,-6.7012,-6.7519,-6.8262,-6.8926,-6.9433,-7.0078,-7.0703,-7.1289,-7.1367,-7.1406,-7.1543,-7.1445,-7.1367,-7.1387,-7.1601,-7.164,-7.1601,-7.1292,-7.0284,-6.8075,-6.7082,-6.4823,-6.2611,-6.0978,-5.9645,-5.8823,-5.7929,-5.735,-5.6306,-5.5219,-5.3577,-5.1851,-5.0864,-5.0342,-4.9162,-4.7927,-4.7682,-7.5753,-7.5176,-7.4071,-7.3669,-7.3569,-7.2896,-7.2051,-7.1383,-7.1071,-7.0665,-7.0102,-6.9136,-6.8874,-6.9189,-6.8402,-6.7985,-6.8181,-6.8477,-6.8841,-6.9063,-6.7804,-6.7607,-6.8107,-6.5054,-6.3335,-6.2836,-6.0476,-5.9291,-5.9199,-5.9199,-5.9199,-5.9199,-5.9199,-5.9199,-5.9199,-5.9258,-5.9629,-6.0254,-6.041,-6.0664,-6.1035,-6.1152,-6.1152,-6.1133,-6.1133,-6.1328,-6.1699,-6.1719,-6.1719,-6.1719,-6.1719,-6.1719,-6.1719,-6.1719,-6.1719,-6.1719,-6.1719,-6.1719,-6.1719,-6.1719,-6.1719,-6.1719,-6.1719,-6.1719,-6.1777,-6.2129,-6.2558,-6.2988,-6.3437,-6.3867,-6.4258,-6.4336,-6.4316,-6.4394,-6.5078,-6.5566,-6.5742,-6.6387,-6.7051,-6.7539,-6.8301,-6.8984,-6.9433,-6.9902,-7.0488,-7.1211,-7.1406,-7.1465,-7.1719,-7.1601,-7.1445,-7.1347,-7.1406,-7.1426,-7.125,-7.092,-6.9612,-6.8455,-6.7833,-6.6632,-6.4109,-6.2263,-6.1145,-6.0163,-5.9249,-5.853,-5.796,-5.6923,-5.5988,-5.4385,-5.3369,-5.1875,-5.0548,-4.9317,-4.855,-7.5728,-7.5176,-7.4473,-7.3946,-7.3544,-7.2966,-7.2526,-7.2146,-7.1575,-7.0877,-7.025,-6.9334,-6.9135,-6.9246,-6.8475,-6.845,-6.9002,-6.8558,-6.8262,-6.825,-6.7315,-6.7234,-6.7476,-6.5194,-6.3057,-6.1748,-6.0809,-5.9941,-5.9311,-5.9199,-5.9199,-5.9199,-5.9199,-5.9199,-5.9219,-5.9473,-5.9902,-6.039,-6.0742,-6.1094,-6.1484,-6.1523,-6.1523,-6.1523,-6.1523,-6.1601,-6.1699,-6.1719,-6.1719,-6.1719,-6.1719,-6.1719,-6.1719,-6.1719,-6.1719,-6.1719,-6.1719,-6.1719,-6.1719,-6.1719,-6.1719,-6.1719,-6.1719,-6.1719,-6.1758,-6.2148,-6.2578,-6.3008,-6.3437,-6.3945,-6.4512,-6.4473,-6.4355,-6.4316,-6.5058,-6.5605,-6.582,-6.6875,-6.7558,-6.7656,-6.8515,-6.9355,-6.9765,-7.0058,-7.0508,-7.1465,-7.1523,-7.1465,-7.1562,-7.1719,-7.1484,-7.1094,-7.1191,-7.125,-7.1055,-7.0898,-7.0111,-6.9171,-6.8633,-6.8134,-6.5885,-6.3862,-6.2737,-6.1475,-6.0566,-5.9848,-5.9273,-5.861,-5.7716,-5.6567,-5.5077,-5.3571,-5.191,-5.083,-5.0249,-7.5862,-7.4573,-7.4021,-7.3594,-7.3242,-7.2866,-7.274,-7.2646,-7.2051,-7.1567,-7.108,-6.9979,-6.9574,-6.96,-6.8752,-6.8717,-6.9235,-6.8727,-6.8644,-6.8342,-6.7287,-6.7223,-6.7597,-6.5575,-6.3399,-6.1824,-6.1332,-6.0513,-5.9414,-5.9414,-5.9414,-5.9414,-5.9258,-5.9277,-5.9414,-5.9668,-6.0078,-6.0625,-6.0937,-6.1289,-6.1621,-6.1719,-6.1719,-6.1719,-6.1719,-6.1719,-6.1719,-6.1719,-6.1719,-6.1719,-6.1719,-6.1719,-6.1719,-6.1719,-6.1719,-6.1719,-6.1719,-6.1719,-6.1719,-6.1719,-6.1797,-6.1914,-6.1953,-6.2051,-6.2226,-6.2598,-6.3008,-6.3281,-6.3672,-6.4199,-6.4746,-6.4726,-6.4629,-6.4785,-6.5254,-6.5703,-6.6133,-6.7305,-6.7988,-6.8066,-6.875,-6.9453,-6.9765,-7.0058,-7.0449,-7.1269,-7.1445,-7.1484,-7.1543,-7.1699,-7.1347,-7.1055,-7.1035,-7.0996,-7.0879,-7.0742,-7.0644,-7.0088,-6.9533,-6.8902,-6.7532,-6.5992,-6.4626,-6.2956,-6.1832,-6.1132,-6.0603,-6.0143,-5.946,-5.8112,-5.6884,-5.5763,-5.4491,-5.3145,-5.2295,-7.5966,-7.376,-7.3016,-7.2866,-7.2791,-7.274,-7.274,-7.2715,-7.2545,-7.247,-7.2131,-7.0829,-7.0328,-7.0212,-6.926,-6.9021,-6.8997,-6.9332,-6.94,-6.9104,-6.8252,-6.7784,-6.7827,-6.6478,-6.5019,-6.3391,-6.2288,-6.1227,-6.0276,-5.9957,-5.9844,-5.9805,-5.9551,-5.9473,-5.9805,-5.9863,-6.0332,-6.0937,-6.1113,-6.1367,-6.1699,-6.1719,-6.1719,-6.1719,-6.1719,-6.1719,-6.1719,-6.1719,-6.1719,-6.1719,-6.1719,-6.1719,-6.1719,-6.1719,-6.1719,-6.1797,-6.1777,-6.1836,-6.1816,-6.1933,-6.2051,-6.2363,-6.2422,-6.2558,-6.289,-6.3242,-6.3535,-6.3633,-6.4004,-6.4473,-6.4883,-6.4902,-6.5098,-6.5527,-6.5664,-6.6015,-6.6816,-6.7676,-6.8105,-6.834,-6.8926,-6.9472,-6.959,-6.9902,-7.0312,-7.0801,-7.1172,-7.1387,-7.1738,-7.1719,-7.1426,-7.1191,-7.0937,-7.0722,-7.0586,-7.0469,-7.041,-7.0433,-6.9972,-6.9586,-6.907,-6.7684,-6.6121,-6.4428,-6.3363,-6.2632,-6.1931,-6.1673,-6.1044,-6.0109,-5.9006,-5.8192,-5.6803,-5.5231,-5.3815,-7.6607,-7.5062,-7.3894,-7.3117,-7.2765,-7.274,-7.274,-7.2665,-7.2288,-7.1962,-7.1417,-7.0655,-7.0495,-7.0795,-6.979,-6.9686,-7.0151,-6.9914,-6.9622,-6.9525,-6.9255,-6.8785,-6.8628,-6.8514,-6.744,-6.5801,-6.4275,-6.3063,-6.2251,-6.0936,-6.0387,-6.0273,-6.0137,-6.0117,-6.0293,-6.0566,-6.084,-6.1094,-6.1406,-6.1582,-6.168,-6.1719,-6.1719,-6.1719,-6.1719,-6.1719,-6.1719,-6.1719,-6.1719,-6.1719,-6.1719,-6.1719,-6.1719,-6.1738,-6.1875,-6.2109,-6.2187,-6.2344,-6.2598,-6.2637,-6.2734,-6.2832,-6.2851,-6.291,-6.3027,-6.3437,-6.3652,-6.375,-6.4062,-6.4629,-6.5176,-6.5176,-6.5351,-6.5898,-6.6074,-6.6406,-6.7168,-6.7812,-6.8301,-6.8633,-6.9121,-6.9492,-6.9785,-7.0039,-7.039,-7.0918,-7.1094,-7.1211,-7.168,-7.166,-7.1347,-7.1015,-7.0742,-7.0488,-7.0293,-7.0195,-7.0254,-7.0566,-7.0413,-7.0316,-6.978,-6.8808,-6.7201,-6.5646,-6.5376,-6.4663,-6.379,-6.3199,-6.2474,-6.1701,-6.0635,-5.9362,-5.8089,-5.653,-5.5126,-7.7904,-7.614,-7.4797,-7.3961,-7.3562,-7.2998,-7.274,-7.2615,-7.2138,-7.1736,-7.1309,-7.0581,-7.043,-7.064,-7.031,-7.0397,-7.0774,-7.0872,-7.0975,-7.1024,-7.1245,-7.0614,-6.9927,-6.9984,-6.9341,-6.7754,-6.6668,-6.526,-6.3537,-6.2281,-6.1504,-6.0778,-6.0527,-6.0527,-6.0723,-6.0937,-6.1191,-6.1348,-6.1601,-6.1719,-6.1719,-6.1719,-6.1719,-6.1719,-6.1719,-6.1719,-6.1719,-6.1719,-6.1719,-6.1719,-6.1719,-6.1719,-6.1738,-6.1894,-6.2109,-6.2363,-6.2519,-6.2773,-6.2949,-6.3027,-6.3125,-6.3262,-6.3301,-6.3418,-6.3574,-6.3828,-6.3984,-6.4258,-6.4453,-6.498,-6.5644,-6.5762,-6.5996,-6.6406,-6.664,-6.6953,-6.7461,-6.8066,-6.8496,-6.8828,-6.918,-6.9512,-6.9824,-7.0097,-7.0547,-7.0937,-7.1074,-7.1406,-7.1797,-7.1523,-7.1347,-7.1152,-7.0957,-7.082,-7.0625,-7.0508,-7.041,-7.0664,-7.0937,-7.082,-7.0475,-6.9919,-6.8864,-6.7673,-6.731,-6.6701,-6.5567,-6.4531,-6.3539,-6.2668,-6.1639,-6.0654,-5.9362,-5.8291,-5.6868,-7.9641,-7.7268,-7.5761,-7.5091,-7.4933,-7.375,-7.3281,-7.2898,-7.2318,-7.1947,-7.1485,-7.0631,-7.028,-7.0472,-7.0815,-7.0932,-7.0782,-7.1906,-7.2501,-7.2731,-7.2986,-7.2637,-7.1514,-7.1275,-7.0768,-6.9672,-6.9494,-6.7802,-6.6022,-6.4954,-6.3273,-6.2204,-6.1335,-6.0935,-6.1094,-6.1191,-6.1367,-6.1601,-6.168,-6.1719,-6.1719,-6.1719,-6.1719,-6.1719,-6.1719,-6.1777,-6.1816,-6.1816,-6.1836,-6.1875,-6.1777,-6.1758,-6.1816,-6.2187,-6.2383,-6.2539,-6.2871,-6.3125,-6.3203,-6.3301,-6.3359,-6.3672,-6.375,-6.3887,-6.414,-6.4297,-6.4492,-6.4746,-6.4961,-6.539,-6.6015,-6.6523,-6.6699,-6.6836,-6.7168,-6.7441,-6.7695,-6.8301,-6.8828,-6.8887,-6.9238,-6.9394,-6.9648,-7.0078,-7.0644,-7.0605,-7.084,-7.125,-7.1543,-7.1504,-7.1504,-7.1601,-7.1426,-7.1289,-7.1094,-7.0898,-7.082,-7.0879,-7.1269,-7.1328,-7.1211,-7.0748,-7.0267,-6.9631,-6.9093,-6.8231,-6.7089,-6.6006,-6.5036,-6.3933,-6.3144,-6.2198,-6.1232,-6.0194,-5.8953,-8.0515,-7.9386,-7.7465,-7.6646,-7.6464,-7.5852,-7.5117,-7.4274,-7.2982,-7.2007,-7.1217,-7.0129,-7.0179,-7.0882,-7.1083,-7.1435,-7.1937,-7.2514,-7.2941,-7.3468,-7.3971,-7.4304,-7.3674,-7.306,-7.2643,-7.2408,-7.1588,-7.1039,-7.0327,-6.7965,-6.6368,-6.4946,-6.3442,-6.2391,-6.1756,-6.1639,-6.1601,-6.1699,-6.1719,-6.1719,-6.1719,-6.1719,-6.1719,-6.1758,-6.1758,-6.1933,-6.2168,-6.2226,-6.2402,-6.25,-6.2168,-6.1953,-6.2187,-6.2363,-6.2578,-6.291,-6.3301,-6.3672,-6.3945,-6.3965,-6.4062,-6.4101,-6.4121,-6.4219,-6.4297,-6.4629,-6.4805,-6.5019,-6.5254,-6.5683,-6.6211,-6.6621,-6.6816,-6.6953,-6.7265,-6.7656,-6.8027,-6.8496,-6.8906,-6.9219,-6.9355,-6.9433,-6.9472,-6.9902,-7.0234,-7.0293,-7.0605,-7.1015,-7.123,-7.1406,-7.1543,-7.168,-7.166,-7.1484,-7.1328,-7.1191,-7.1211,-7.1191,-7.1504,-7.1719,-7.1601,-7.1562,-7.1079,-7.0962,-7.0846,-6.9901,-6.8655,-6.7968,-6.6977,-6.595,-6.4695,-6.3367,-6.2321,-6.1743,-6.0586,-8.2107,-8.0996,-7.8951,-7.8057,-7.7906,-7.6853,-7.5852,-7.4778,-7.3595,-7.2384,-7.1469,-7.0556,-7.0581,-7.1083,-7.1334,-7.1736,-7.2012,-7.2539,-7.3192,-7.3795,-7.4096,-7.4448,-7.4903,-7.4166,-7.3822,-7.391,-7.3304,-7.2687,-7.1177,-7.0312,-6.8516,-6.6741,-6.5422,-6.4124,-6.2841,-6.2165,-6.1699,-6.1719,-6.1719,-6.1719,-6.1719,-6.1719,-6.1855,-6.1973,-6.2031,-6.2226,-6.2637,-6.2676,-6.293,-6.3047,-6.2715,-6.2422,-6.2676,-6.2871,-6.3105,-6.334,-6.373,-6.4043,-6.4258,-6.4316,-6.4297,-6.4316,-6.4316,-6.4316,-6.4394,-6.4707,-6.5039,-6.5273,-6.5625,-6.6055,-6.6465,-6.668,-6.6855,-6.6992,-6.7441,-6.791,-6.8183,-6.8555,-6.8984,-6.9316,-6.9433,-6.9433,-6.957,-6.9824,-7.0019,-7.0156,-7.0215,-7.0625,-7.1133,-7.1289,-7.1445,-7.1582,-7.1699,-7.164,-7.1523,-7.1484,-7.1582,-7.1621,-7.1777,-7.1894,-7.1836,-7.1855,-7.1875,-7.1719,-7.1523,-7.1289,-7.0208,-6.965,-6.8865,-6.766,-6.6283,-6.4752,-6.3375,-6.2662,-6.137,-8.4047,-8.2473,-8.0672,-7.9729,-7.9323,-7.7816,-7.6646,-7.5538,-7.4142,-7.3166,-7.2108,-7.1444,-7.0882,-7.1284,-7.1661,-7.161,-7.1811,-7.259,-7.3669,-7.4222,-7.4197,-7.4573,-7.4903,-7.4707,-7.412,-7.3759,-7.4175,-7.2946,-7.1529,-7.0922,-7.0379,-6.8047,-6.6967,-6.597,-6.4664,-6.3073,-6.2281,-6.2397,-6.1952,-6.1719,-6.1719,-6.1719,-6.1914,-6.2226,-6.2324,-6.2598,-6.2988,-6.3164,-6.334,-6.3711,-6.3418,-6.3262,-6.3301,-6.3457,-6.3672,-6.3691,-6.4023,-6.4316,-6.4414,-6.4394,-6.4336,-6.4375,-6.4336,-6.4375,-6.4492,-6.4863,-6.5254,-6.5683,-6.6074,-6.6445,-6.6816,-6.6855,-6.6894,-6.707,-6.7676,-6.8086,-6.832,-6.8613,-6.8984,-6.9336,-6.9433,-6.9433,-6.9531,-6.9707,-6.9863,-7.0019,-7.0058,-7.0293,-7.0801,-7.123,-7.1406,-7.164,-7.1797,-7.1836,-7.1719,-7.168,-7.1797,-7.1836,-7.1972,-7.1972,-7.1992,-7.1972,-7.1953,-7.1914,-7.1738,-7.1504,-7.1289,-7.0727,-6.9862,-6.9113,-6.798,-6.6351,-6.5033,-6.3752,-6.2154,-8.5708,-8.4133,-8.3335,-8.2283,-8.1059,-8.0253,-7.9263,-7.8135,-7.5613,-7.4208,-7.3492,-7.1525,-7.1243,-7.1703,-7.1836,-7.2087,-7.2659,-7.3584,-7.4218,-7.4523,-7.4623,-7.5025,-7.5101,-7.5003,-7.4466,-7.4291,-7.4842,-7.4536,-7.3381,-7.3164,-7.1953,-7.0285,-6.9074,-6.7931,-6.6579,-6.5007,-6.3765,-6.365,-6.2513,-6.1719,-6.1952,-6.1894,-6.2031,-6.2441,-6.2519,-6.289,-6.3418,-6.3594,-6.3769,-6.414,-6.414,-6.4082,-6.3984,-6.3828,-6.375,-6.3808,-6.4101,-6.4414,-6.4668,-6.4512,-6.4551,-6.4648,-6.459,-6.459,-6.4844,-6.5234,-6.5664,-6.6055,-6.6465,-6.6777,-6.6836,-6.6933,-6.709,-6.7324,-6.7637,-6.8008,-6.8515,-6.8808,-6.9004,-6.9375,-6.9433,-6.9453,-6.9512,-6.957,-6.9648,-6.9785,-6.9863,-7.0195,-7.0722,-7.1133,-7.1445,-7.1699,-7.1953,-7.1972,-7.1933,-7.1914,-7.1933,-7.1914,-7.1992,-7.1992,-7.1992,-7.1992,-7.1972,-7.1933,-7.1894,-7.1738,-7.1523,-7.1347,-7.1057,-7.0248,-6.9093,-6.8056,-6.6444,-6.4988,-6.318,-8.6531,-8.4787,-8.4046,-8.325,-8.2426,-8.1171,-8.0332,-7.9448,-7.751,-7.6136,-7.5016,-7.3518,-7.2782,-7.3054,-7.3063,-7.3367,-7.3976,-7.4382,-7.4754,-7.4821,-7.4849,-7.5,-7.5201,-7.5251,-7.4514,-7.4267,-7.5073,-7.5085,-7.3798,-7.3793,-7.2952,-7.1867,-7.0776,-6.9716,-6.8155,-6.5805,-6.535,-6.5007,-6.3419,-6.2281,-6.2901,-6.2478,-6.2481,-6.2871,-6.3047,-6.3398,-6.3828,-6.4004,-6.4101,-6.4258,-6.4297,-6.4316,-6.4238,-6.416,-6.4004,-6.4043,-6.4219,-6.4512,-6.4844,-6.4746,-6.4844,-6.5195,-6.5039,-6.5058,-6.5312,-6.5664,-6.6094,-6.6465,-6.666,-6.6972,-6.7168,-6.7187,-6.7422,-6.7793,-6.8027,-6.834,-6.8711,-6.8984,-6.9219,-6.9414,-6.9433,-6.9433,-6.9453,-6.9472,-6.9453,-6.9531,-6.9668,-7.0117,-7.0664,-7.0957,-7.1308,-7.1758,-7.1992,-7.1992,-7.1992,-7.1992,-7.1992,-7.1992,-7.1992,-7.1992,-7.1992,-7.1992,-7.1992,-7.1972,-7.1933,-7.1875,-7.1855,-7.168,-7.1523,-7.1367,-7.0537,-6.938,-6.7861,-6.6111,-6.4435,-8.7455,-8.5396,-8.4696,-8.4187,-8.3648,-8.1886,-8.1024,-8.0488,-7.9059,-7.7895,-7.6917,-7.5669,-7.4976,-7.4815,-7.4707,-7.4872,-7.5319,-7.5259,-7.5284,-7.5461,-7.5123,-7.505,-7.5151,-7.5254,-7.4984,-7.4442,-7.5027,-7.4709,-7.326,-7.3722,-7.3523,-7.2588,-7.1913,-7.1808,-7.0402,-6.8134,-6.7369,-6.6465,-6.4778,-6.367,-6.3987,-6.3672,-6.3207,-6.3574,-6.3691,-6.3848,-6.4199,-6.4258,-6.4258,-6.4297,-6.4316,-6.4316,-6.4316,-6.4316,-6.4316,-6.4316,-6.4394,-6.4668,-6.4941,-6.5078,-6.5195,-6.5469,-6.5469,-6.5488,-6.5703,-6.5996,-6.6523,-6.6875,-6.6894,-6.7129,-6.75,-6.7539,-6.7773,-6.8222,-6.8574,-6.8867,-6.9004,-6.918,-6.9316,-6.9433,-6.9453,-6.9453,-6.9472,-6.9472,-6.9492,-6.9609,-6.9746,-7.0215,-7.0683,-7.0722,-7.1074,-7.1699,-7.1992,-7.1992,-7.1992,-7.1992,-7.1992,-7.1992,-7.1992,-7.1992,-7.1992,-7.1992,-7.2012,-7.2031,-7.1992,-7.1953,-7.1992,-7.1992,-7.1816,-7.166,-7.1582,-7.0769,-6.893,-6.7659,-6.6294,-8.905,-8.7009,-8.6843,-8.6105,-8.4688,-8.316,-8.2454,-8.2058,-7.975,-7.8682,-7.8733,-7.7119,-7.6482,-7.6502,-7.627,-7.6219,-7.6279,-7.6099,-7.619,-7.6347,-7.5945,-7.5502,-7.5402,-7.5778,-7.5504,-7.5085,-7.5257,-7.4025,-7.3185,-7.3924,-7.3598,-7.2659,-7.3476,-7.3856,-7.316,-7.1019,-7.0909,-7.0468,-6.8065,-6.6055,-6.5319,-6.5263,-6.4689,-6.4154,-6.375,-6.3906,-6.4258,-6.4316,-6.4316,-6.4316,-6.4316,-6.4316,-6.4316,-6.4316,-6.4316,-6.4414,-6.4668,-6.5039,-6.5371,-6.543,-6.5547,-6.5625,-6.5371,-6.5312,-6.5703,-6.6308,-6.6894,-6.7344,-6.7129,-6.7324,-6.7832,-6.7754,-6.8008,-6.8418,-6.8828,-6.9062,-6.9238,-6.9277,-6.9414,-6.9512,-6.9531,-6.9531,-6.9531,-6.9531,-6.9551,-6.9668,-6.9883,-7.0371,-7.0781,-7.0898,-7.1055,-7.1719,-7.1992,-7.1992,-7.1992,-7.1992,-7.2012,-7.2012,-7.209,-7.209,-7.2148,-7.2168,-7.209,-7.209,-7.2051,-7.2012,-7.1992,-7.1992,-7.1992,-7.1933,-7.1797,-7.102,-6.9965,-6.8903,-6.787,-8.9076,-8.7446,-8.7038,-8.645,-8.5603,-8.4163,-8.3584,-8.3392,-8.2084,-8.1082,-8.0378,-7.9128,-7.8281,-7.8013,-7.7689,-7.795,-7.8076,-7.7509,-7.7157,-7.7016,-7.6593,-7.6003,-7.5804,-7.5929,-7.5854,-7.5855,-7.5933,-7.5774,-7.4678,-7.4341,-7.4385,-7.4408,-7.4764,-7.5227,-7.512,-7.3415,-7.3191,-7.2547,-7.0982,-6.8986,-6.7645,-6.6654,-6.6019,-6.5629,-6.4607,-6.4262,-6.4258,-6.4316,-6.4316,-6.4316,-6.4316,-6.4316,-6.4316,-6.4316,-6.4316,-6.4375,-6.4961,-6.5371,-6.5547,-6.5586,-6.584,-6.6015,-6.5742,-6.5547,-6.5957,-6.6504,-6.7051,-6.7441,-6.7344,-6.7676,-6.8301,-6.834,-6.8633,-6.8945,-6.9101,-6.9199,-6.9355,-6.9394,-6.9453,-6.9551,-6.9648,-6.9707,-6.9805,-6.9922,-6.9961,-7.0039,-7.0254,-7.0625,-7.1094,-7.1445,-7.1621,-7.1875,-7.1992,-7.1992,-7.1992,-7.1992,-7.207,-7.2129,-7.2422,-7.2422,-7.2422,-7.2422,-7.2324,-7.2207,-7.2168,-7.2109,-7.2031,-7.1992,-7.1992,-7.1992,-7.1992,-7.1253,-7.0649,-6.9582,-6.8447,-8.8843,-8.7865,-8.709,-8.6676,-8.6535,-8.51,-8.4678,-8.4987,-8.4245,-8.3279,-8.2045,-8.0918,-7.9938,-7.9414,-7.944,-7.9804,-8.0318,-7.9295,-7.8597,-7.7905,-7.7111,-7.6449,-7.6103,-7.6055,-7.6055,-7.608,-7.6232,-7.6257,-7.6172,-7.5966,-7.5903,-7.6029,-7.6135,-7.6395,-7.6053,-7.5416,-7.4941,-7.5053,-7.3546,-7.1873,-7.0488,-6.8985,-6.8182,-6.7245,-6.607,-6.4903,-6.4782,-6.4316,-6.4316,-6.4316,-6.4316,-6.4316,-6.4316,-6.4316,-6.4316,-6.4433,-6.4941,-6.539,-6.5625,-6.584,-6.6191,-6.6289,-6.6308,-6.5918,-6.6348,-6.6777,-6.7324,-6.7871,-6.7734,-6.8144,-6.8691,-6.8867,-6.8965,-6.918,-6.9394,-6.9433,-6.9453,-6.9472,-6.959,-6.9765,-6.9902,-7.0097,-7.0195,-7.0371,-7.043,-7.0449,-7.0664,-7.0957,-7.1367,-7.1836,-7.2109,-7.2285,-7.2441,-7.2461,-7.2441,-7.2383,-7.2324,-7.2344,-7.2637,-7.2793,-7.2832,-7.2715,-7.2578,-7.2441,-7.2324,-7.2109,-7.1992,-7.1992,-7.1992,-7.1992,-7.1972,-7.1855,-7.1312,-7.0323,-6.9411,-8.8693,-8.8574,-8.7895,-8.7545,-8.7456,-8.5995,-8.5708,-8.6144,-8.5334,-8.4383,-8.3336,-8.2026,-8.1163,-8.1236,-8.1195,-8.1593,-8.2372,-8.1031,-8.0215,-7.9423,-7.8279,-7.7162,-7.6573,-7.6252,-7.6055,-7.6055,-7.623,-7.6507,-7.6783,-7.7004,-7.6619,-7.6226,-7.7189,-7.7448,-7.7521,-7.7198,-7.6806,-7.6718,-7.5587,-7.4615,-7.3451,-7.2164,-7.0963,-6.9106,-6.7705,-6.665,-6.609,-6.5266,-6.4661,-6.4661,-6.454,-6.4316,-6.4316,-6.4316,-6.4316,-6.4531,-6.4883,-6.5351,-6.5683,-6.6094,-6.6406,-6.6348,-6.6269,-6.6328,-6.668,-6.7168,-6.7793,-6.8398,-6.8262,-6.8535,-6.8945,-6.914,-6.916,-6.9297,-6.9433,-6.9433,-6.9472,-6.9551,-6.9687,-6.9961,-7.0215,-7.0488,-7.0722,-7.0898,-7.0898,-7.0918,-7.1172,-7.1484,-7.1758,-7.2168,-7.248,-7.2734,-7.3008,-7.3105,-7.3144,-7.3066,-7.2851,-7.289,-7.3105,-7.3222,-7.3281,-7.3105,-7.2988,-7.2676,-7.2519,-7.2246,-7.1992,-7.1992,-7.1992,-7.1992,-7.1992,-7.2031,-7.1933,-7.1215,-7.0553,-8.9292,-8.9232,-8.8574,-8.7826,-8.7048,-8.646,-8.6453,-8.6821,-8.6579,-8.5578,-8.4134,-8.2311,-8.143,-8.1563,-8.2028,-8.252,-8.3051,-8.2454,-8.1795,-8.0877,-7.9616,-7.8076,-7.7166,-7.6424,-7.6055,-7.603,-7.6055,-7.6331,-7.6908,-7.7436,-7.7733,-7.7767,-7.8238,-7.862,-7.8744,-7.8643,-7.8453,-7.8096,-7.736,-7.6426,-7.5758,-7.3763,-7.2329,-7.1494,-6.9599,-6.8654,-6.7984,-6.7507,-6.6571,-6.5849,-6.5508,-6.5145,-6.4559,-6.4559,-6.4555,-6.4648,-6.5039,-6.5573,-6.5801,-6.6094,-6.5976,-6.6055,-6.6269,-6.6719,-6.6972,-6.7285,-6.793,-6.8398,-6.8691,-6.8906,-6.9219,-6.9297,-6.9316,-6.9414,-6.9433,-6.9433,-6.9512,-6.9609,-6.9844,-7.0137,-7.0605,-7.1015,-7.125,-7.1465,-7.1426,-7.1406,-7.1699,-7.1992,-7.2226,-7.2558,-7.291,-7.3144,-7.3379,-7.3457,-7.3496,-7.3418,-7.334,-7.3457,-7.3594,-7.3652,-7.3711,-7.3691,-7.3515,-7.3125,-7.2656,-7.2324,-7.2109,-7.2031,-7.2031,-7.209,-7.2265,-7.2441,-7.2265,-7.1992,-7.1389,-8.9501,-8.9561,-8.8723,-8.7975,-8.7287,-8.7077,-8.7265,-8.7669,-8.7498,-8.6418,-8.4562,-8.271,-8.1914,-8.2134,-8.2518,-8.3461,-8.403,-8.3868,-8.3337,-8.2293,-8.0979,-7.9222,-7.7891,-7.6886,-7.6447,-7.6101,-7.6055,-7.6331,-7.6883,-7.7436,-7.7912,-7.8361,-7.9068,-7.9216,-7.9388,-7.9465,-7.9508,-7.9476,-7.8898,-7.8386,-7.7941,-7.5856,-7.4149,-7.3576,-7.1937,-7.0538,-6.9856,-6.9266,-6.832,-6.7507,-6.691,-6.621,-6.5608,-6.5083,-6.5261,-6.525,-6.5604,-6.614,-6.6121,-6.6133,-6.5976,-6.623,-6.668,-6.707,-6.7305,-6.7637,-6.8379,-6.8887,-6.9023,-6.9121,-6.9453,-6.9394,-6.9375,-6.9433,-6.9433,-6.9453,-6.959,-6.9707,-7.0019,-7.0332,-7.084,-7.1328,-7.1601,-7.1777,-7.1797,-7.1816,-7.209,-7.2324,-7.2539,-7.291,-7.3398,-7.3594,-7.375,-7.375,-7.373,-7.3828,-7.3926,-7.3965,-7.4082,-7.4121,-7.416,-7.4062,-7.3789,-7.3281,-7.2812,-7.2422,-7.2246,-7.2187,-7.2207,-7.2246,-7.2441,-7.2656,-7.2461,-7.2207,-7.1972,-8.9142,-8.9471,-8.8364,-8.8185,-8.8514,-8.7945,-8.7954,-8.8381,-8.7823,-8.666,-8.5113,-8.3443,-8.2937,-8.3182,-8.3517,-8.4354,-8.5325,-8.5228,-8.4724,-8.3703,-8.2536,-8.0353,-7.8719,-7.7557,-7.6861,-7.5724,-7.5804,-7.6331,-7.6883,-7.7436,-7.7988,-7.854,-7.9068,-7.9394,-7.9444,-7.9947,-8.0394,-8.071,-8.0109,-8.0158,-7.9796,-7.8013,-7.6782,-7.5856,-7.4149,-7.277,-7.2169,-7.1144,-7.0229,-6.9275,-6.9177,-6.8248,-6.7013,-6.7593,-6.7196,-6.5917,-6.6548,-6.6722,-6.6277,-6.6727,-6.6797,-6.6777,-6.7168,-6.7519,-6.8047,-6.8496,-6.8808,-6.9199,-6.9394,-6.9433,-6.9492,-6.9472,-6.9512,-6.9551,-6.9551,-6.959,-6.9746,-7.0117,-7.0488,-7.0722,-7.1113,-7.1523,-7.1816,-7.2031,-7.209,-7.2207,-7.2461,-7.2695,-7.293,-7.334,-7.3867,-7.3984,-7.4101,-7.414,-7.418,-7.4375,-7.4492,-7.4531,-7.4453,-7.4394,-7.4199,-7.3945,-7.3652,-7.3301,-7.289,-7.2402,-7.2363,-7.2363,-7.2558,-7.2773,-7.2695,-7.2754,-7.2578,-7.2402,-7.2187,-9.01,-9.0249,-8.983,-8.9771,-8.9741,-8.8334,-8.8065,-8.8403,-8.7468,-8.6667,-8.6266,-8.4855,-8.4187,-8.4361,-8.4922,-8.5507,-8.5871,-8.6482,-8.5988,-8.5231,-8.3972,-8.2198,-8.0304,-7.8693,-7.764,-7.6835,-7.6548,-7.6455,-7.6883,-7.7436,-7.7988,-7.8515,-7.9093,-7.9369,-7.9645,-8.0173,-8.0901,-8.0966,-8.0761,-8.0646,-8.0659,-7.9477,-7.837,-7.8148,-7.6626,-7.5472,-7.4811,-7.371,-7.2665,-7.1694,-7.1503,-7.0687,-6.9786,-7.0228,-6.9881,-6.8822,-6.9108,-6.7894,-6.7525,-6.7422,-6.7558,-6.75,-6.75,-6.791,-6.8476,-6.8691,-6.9023,-6.9394,-6.9687,-6.9785,-6.9883,-6.9902,-6.9902,-6.9902,-6.9922,-6.9922,-7.0097,-7.0664,-7.1113,-7.125,-7.1543,-7.1972,-7.2324,-7.2539,-7.2617,-7.2793,-7.3066,-7.3281,-7.3496,-7.3906,-7.4375,-7.4394,-7.4453,-7.4512,-7.459,-7.4687,-7.4648,-7.4551,-7.4492,-7.4394,-7.416,-7.3887,-7.3496,-7.3164,-7.2773,-7.2402,-7.248,-7.2656,-7.3144,-7.3359,-7.3301,-7.3125,-7.2969,-7.2715,-7.2402,-9.0429,-9.0608,-9.0399,-9.0429,-9.0399,-8.9023,-8.8454,-8.8164,-8.7082,-8.6705,-8.668,-8.5837,-8.5267,-8.525,-8.5704,-8.6231,-8.5983,-8.6405,-8.6538,-8.6024,-8.4927,-8.314,-8.1471,-8.0183,-7.9258,-7.8279,-7.7434,-7.7051,-7.8089,-7.7813,-7.8139,-7.8792,-7.9193,-7.9495,-7.9896,-8.0524,-8.1001,-8.1091,-8.1207,-8.1762,-8.1401,-8.0661,-8.0026,-7.9777,-7.907,-7.8079,-7.7611,-7.6797,-7.5632,-7.4726,-7.4044,-7.3333,-7.2745,-7.2518,-7.2319,-7.1494,-7.0299,-6.9253,-6.8783,-6.8019,-6.8117,-6.8027,-6.7949,-6.8222,-6.875,-6.8945,-6.9297,-6.9648,-6.9922,-7.0039,-7.0097,-7.0137,-7.0254,-7.0234,-7.0273,-7.0273,-7.0527,-7.1094,-7.1582,-7.1719,-7.2148,-7.2558,-7.2832,-7.3047,-7.3203,-7.3437,-7.3672,-7.3867,-7.4062,-7.4414,-7.4765,-7.4824,-7.4824,-7.4863,-7.4883,-7.4883,-7.4805,-7.4609,-7.4512,-7.4433,-7.4199,-7.3945,-7.3476,-7.2988,-7.2617,-7.2402,-7.2656,-7.2949,-7.3418,-7.3789,-7.3945,-7.3711,-7.3418,-7.3086,-7.2773,-9.007,-9.0489,-8.998,-9.01,-9.0459,-8.9741,-8.8843,-8.7736,-8.7107,-8.6746,-8.666,-8.6779,-8.6485,-8.5968,-8.5995,-8.6067,-8.6288,-8.6305,-8.6264,-8.6054,-8.5626,-8.406,-8.2904,-8.1793,-8.1055,-7.9903,-7.8802,-7.8543,-7.9703,-7.857,-7.8415,-7.9193,-7.9495,-7.9821,-8.0298,-8.08,-8.1152,-8.1397,-8.1892,-8.2436,-8.2311,-8.1851,-8.1577,-8.1517,-8.0889,-8.0404,-7.9875,-7.9251,-7.8525,-7.7724,-7.6985,-7.5611,-7.4812,-7.4929,-7.382,-7.2473,-7.1121,-7.0521,-6.9811,-6.9054,-6.8645,-6.8652,-6.875,-6.8828,-6.8926,-6.918,-6.9453,-6.9726,-6.998,-7.0078,-7.0156,-7.0351,-7.0547,-7.0586,-7.0625,-7.0742,-7.0937,-7.1387,-7.1914,-7.2344,-7.2871,-7.3242,-7.334,-7.3515,-7.3906,-7.416,-7.4375,-7.4512,-7.4687,-7.4726,-7.5058,-7.5234,-7.5254,-7.5254,-7.5234,-7.5156,-7.5,-7.4844,-7.4609,-7.4492,-7.4258,-7.3984,-7.3574,-7.3105,-7.2539,-7.248,-7.3008,-7.3379,-7.3672,-7.4004,-7.4277,-7.4043,-7.3672,-7.3515,-7.3203,-9.0459,-9.0608,-9.0429,-9.0489,-9.0459,-8.9471,-8.8723,-8.8364,-8.8185,-8.8322,-8.8755,-8.8755,-8.8285,-8.8295,-8.8706,-8.7957,-8.7537,-8.731,-8.7113,-8.684,-8.6517,-8.5829,-8.4954,-8.401,-8.317,-8.1993,-8.0886,-7.9854,-7.9444,-7.8645,-7.8969,-7.9796,-7.9871,-8.0248,-8.0725,-8.1302,-8.1478,-8.1754,-8.2357,-8.2734,-8.306,-8.2627,-8.2784,-8.2729,-8.2389,-8.2068,-8.1817,-8.0966,-8.0383,-8.0304,-8.0123,-7.9505,-7.9952,-7.9209,-7.7792,-7.472,-7.331,-7.2296,-7.0825,-6.9666,-6.9082,-6.916,-6.9219,-6.9258,-6.9297,-6.9355,-6.9531,-6.9844,-7.0097,-7.0234,-7.0488,-7.0722,-7.0918,-7.1055,-7.1172,-7.1406,-7.164,-7.209,-7.2597,-7.3027,-7.3574,-7.3711,-7.3828,-7.4277,-7.4648,-7.4902,-7.5097,-7.5215,-7.5254,-7.5293,-7.5312,-7.5508,-7.5644,-7.5625,-7.5488,-7.541,-7.5234,-7.5058,-7.4785,-7.4492,-7.4238,-7.3965,-7.3672,-7.332,-7.2871,-7.3105,-7.3652,-7.3867,-7.3906,-7.4219,-7.4472,-7.4219,-7.3965,-7.3847,-7.3594,-9.0638,-9.0638,-9.0638,-9.0638,-9.0519,-8.9801,-8.9441,-8.9322,-8.8663,-8.8783,-8.9621,-8.9621,-8.9514,-8.9238,-8.9451,-8.9058,-8.8068,-8.7922,-8.7944,-8.8276,-8.7555,-8.7141,-8.6587,-8.5953,-8.5142,-8.4118,-8.3018,-8.1766,-8.092,-8.0012,-7.9961,-7.9746,-8.0047,-8.0549,-8.1001,-8.1478,-8.1905,-8.2156,-8.2483,-8.2759,-8.301,-8.3186,-8.3437,-8.393,-8.3485,-8.3499,-8.3673,-8.2666,-8.2297,-8.2337,-8.2247,-8.1912,-8.2162,-8.1451,-8.1292,-7.8455,-7.6751,-7.5163,-7.3495,-7.128,-7.029,-6.9565,-6.9433,-6.9433,-6.9414,-6.9433,-6.9726,-7.0039,-7.0254,-7.0488,-7.082,-7.1133,-7.1367,-7.1582,-7.1836,-7.209,-7.25,-7.293,-7.334,-7.375,-7.4004,-7.416,-7.4453,-7.4961,-7.5254,-7.5293,-7.5547,-7.5918,-7.5859,-7.5742,-7.5683,-7.5722,-7.5898,-7.5996,-7.5801,-7.5527,-7.5312,-7.5058,-7.4746,-7.4472,-7.4219,-7.4023,-7.3808,-7.3574,-7.3281,-7.3652,-7.4062,-7.3984,-7.4043,-7.4394,-7.4609,-7.4414,-7.4297,-7.4258,-7.3926,-9.0608,-9.0519,-9.0489,-9.0429,-9.0549,-9.0369,-9.0399,-9.0429,-8.8783,-8.8574,-8.9621,-8.9771,-8.9716,-8.969,-8.9669,-8.9425,-8.8915,-8.8713,-8.9032,-8.9816,-8.8868,-8.8476,-8.8071,-8.7347,-8.6937,-8.6217,-8.5137,-8.3693,-8.3651,-8.2234,-8.032,-7.9651,-8.028,-8.0859,-8.1227,-8.1754,-8.2181,-8.2483,-8.2658,-8.2859,-8.3186,-8.3286,-8.3487,-8.4692,-8.4808,-8.4808,-8.5312,-8.5001,-8.4236,-8.3895,-8.3489,-8.2918,-8.2917,-8.3238,-8.3322,-8.2059,-7.9706,-7.7928,-7.5756,-7.3336,-7.1202,-7.0199,-6.9565,-6.9433,-6.9433,-6.9433,-6.9707,-7.0078,-7.0312,-7.0683,-7.1015,-7.1328,-7.1562,-7.1914,-7.2265,-7.2656,-7.3144,-7.3574,-7.3984,-7.4297,-7.4355,-7.4531,-7.4883,-7.5332,-7.5469,-7.5527,-7.584,-7.6328,-7.6426,-7.623,-7.6055,-7.5976,-7.6094,-7.6133,-7.5762,-7.5488,-7.5293,-7.5039,-7.4785,-7.459,-7.4433,-7.4219,-7.3984,-7.4082,-7.4258,-7.414,-7.4297,-7.4355,-7.4433,-7.459,-7.4726,-7.4609,-7.457,-7.4551,-7.4336,-9.0339,-8.986,-8.9352,-8.9412,-8.9801,-8.9352,-8.9771,-9.0549,-8.9651,-8.9621,-9.0309,-9.0316,-9.0293,-9.0192,-9.0139,-8.9897,-8.9451,-8.9868,-9.0051,-9.0459,-9.0072,-9.0003,-8.9887,-8.9317,-8.8715,-8.7756,-8.6715,-8.537,-8.4156,-8.2595,-8.1536,-8.1238,-8.1593,-8.1815,-8.169,-8.2137,-8.2508,-8.2683,-8.2708,-8.301,-8.3462,-8.3939,-8.4391,-8.5069,-8.527,-8.5496,-8.5861,-8.5774,-8.5525,-8.5437,-8.5724,-8.5504,-8.503,-8.5434,-8.4932,-8.3609,-8.1842,-8.0167,-7.8251,-7.5505,-7.2863,-7.1481,-7.0721,-6.9827,-6.9433,-6.9433,-6.9648,-7.0058,-7.043,-7.082,-7.1211,-7.1504,-7.1797,-7.2226,-7.2676,-7.3183,-7.3711,-7.416,-7.459,-7.4687,-7.4707,-7.4961,-7.5293,-7.5527,-7.5664,-7.5898,-7.6191,-7.6543,-7.6719,-7.664,-7.6328,-7.625,-7.6308,-7.623,-7.5781,-7.543,-7.5234,-7.5176,-7.5,-7.4824,-7.4687,-7.4707,-7.4746,-7.5176,-7.5371,-7.5058,-7.4863,-7.5,-7.5078,-7.498,-7.4863,-7.4765,-7.4726,-7.4707,-7.457,-9.0429,-9.001,-8.9412,-8.9142,-8.9202,-8.9142,-8.9561,-9.01,-9.013,-9.0279,-9.0608,-9.0638,-9.0638,-9.0638,-9.0555,-9.0741,-9.0362,-9.0985,-9.1526,-9.1774,-9.1571,-9.1625,-9.1497,-9.1098,-9.0127,-8.9118,-8.7923,-8.6474,-8.4625,-8.3704,-8.3095,-8.2361,-8.247,-8.2515,-8.2213,-8.2476,-8.2683,-8.2683,-8.2683,-8.311,-8.3638,-8.4039,-8.4466,-8.4993,-8.5445,-8.5747,-8.5973,-8.5998,-8.5998,-8.6148,-8.6362,-8.6887,-8.6815,-8.7171,-8.7004,-8.6054,-8.4491,-8.2705,-8.0828,-7.8104,-7.4997,-7.372,-7.2626,-7.2129,-7.0029,-7.0068,-7.0377,-7.075,-7.0488,-7.084,-7.1445,-7.1836,-7.209,-7.2461,-7.293,-7.3418,-7.3926,-7.4414,-7.4765,-7.5,-7.5058,-7.5215,-7.5566,-7.5976,-7.6094,-7.623,-7.6543,-7.6758,-7.6933,-7.6914,-7.664,-7.6406,-7.6387,-7.6074,-7.5547,-7.5293,-7.5156,-7.5117,-7.5137,-7.5254,-7.5273,-7.539,-7.5586,-7.5801,-7.584,-7.5586,-7.5488,-7.5508,-7.5332,-7.5137,-7.5019,-7.4922,-7.4902,-7.4883,-7.4805,-9.0579,-9.0429,-8.9801,-8.9292,-8.8933,-8.9412,-8.9741,-8.992,-9.0399,-9.0638,-9.0638,-9.0638,-9.0668,-9.0758,-9.0938,-9.1327,-9.1662,-9.1971,-9.2653,-9.2959,-9.277,-9.2688,-9.251,-9.2152,-9.116,-9.0092,-8.8868,-8.7351,-8.5607,-8.5039,-8.4256,-8.3158,-8.2826,-8.2777,-8.2668,-8.2618,-8.2683,-8.2683,-8.2834,-8.3311,-8.3638,-8.3914,-8.4466,-8.4918,-8.5295,-8.5521,-8.5847,-8.5998,-8.5998,-8.6274,-8.6651,-8.7441,-8.8093,-8.8429,-8.8604,-8.7898,-8.6798,-8.5494,-8.413,-8.1318,-7.858,-7.6452,-7.5526,-7.4056,-7.2095,-7.1701,-7.2012,-7.159,-7.133,-7.1035,-7.164,-7.2012,-7.2285,-7.2695,-7.3164,-7.3672,-7.418,-7.4648,-7.4961,-7.5273,-7.543,-7.5547,-7.5976,-7.6387,-7.6465,-7.6601,-7.6777,-7.6992,-7.7109,-7.6914,-7.668,-7.6426,-7.625,-7.5859,-7.5273,-7.5215,-7.5117,-7.5058,-7.5117,-7.5508,-7.584,-7.5937,-7.6035,-7.6152,-7.6113,-7.6074,-7.5898,-7.582,-7.5605,-7.5449,-7.5351,-7.5293,-7.5117,-7.5097,-7.5058,-9.0339,-8.9801,-8.9142,-8.9082,-8.9441,-8.9621,-8.998,-9.0399,-9.0549,-9.0638,-9.0585,-9.0698,-9.0878,-9.1476,-9.2045,-9.2254,-9.2105,-9.2643,-9.3122,-9.3485,-9.3704,-9.3567,-9.3189,-9.2776,-9.1703,-9.0705,-8.9752,-8.867,-8.7328,-8.6614,-8.5726,-8.4678,-8.4053,-8.3526,-8.2645,-8.2779,-8.2766,-8.2791,-8.2809,-8.3211,-8.3989,-8.4391,-8.4893,-8.537,-8.5847,-8.5897,-8.5998,-8.5998,-8.5998,-8.6299,-8.6952,-8.7981,-8.8634,-8.9011,-8.9136,-8.8954,-8.7954,-8.7343,-8.5756,-8.3672,-8.1173,-8.0167,-7.902,-7.7194,-7.5866,-7.5264,-7.491,-7.3378,-7.2805,-7.1866,-7.2068,-7.1933,-7.2207,-7.2793,-7.332,-7.3926,-7.4492,-7.4883,-7.5254,-7.5547,-7.5781,-7.6152,-7.6699,-7.6777,-7.6523,-7.664,-7.6719,-7.6953,-7.7148,-7.6953,-7.6758,-7.6504,-7.625,-7.5508,-7.4922,-7.5156,-7.5156,-7.5058,-7.5215,-7.582,-7.623,-7.6426,-7.6543,-7.6601,-7.6738,-7.6816,-7.6582,-7.6113,-7.6152,-7.6015,-7.584,-7.5703,-7.5488,-7.5371,-7.539]},{"header":{"parameterUnit":"m.s-1","parameterCategory":1,"la1":31.0,"la2":29.5877,"lo1":-88.7671,"lo2":-86.6584,"dy":0.0162,"dx":0.0185,"nx":115,"ny":88,"refTime":"2024-03-25T00:00:00:Z","depth":0,"parameterNumber":3,"parameterNumberName":"V-component_of_WINDS"},"data":[0.0,0.0,0.0,0.0,0.0,0.0,0.0,0.0,0.0,0.0,0.0,0.0,0.0,0.0,0.0,0.0,0.0,0.0,0.0,0.0,0.0,0.0,0.0,0.0,0.0,0.0,0.0,0.0,0.0,0.0,0.0,0.0,0.0,0.0,0.0,0.0,0.0,0.0,0.0,0.0,0.0,0.0,0.0,0.0,0.0,0.0,0.0,0.0,0.0,0.0,0.0,0.0,0.0,0.0,0.0,0.0,0.0,0.0,0.0,0.0,0.0,0.0,0.0,0.0,0.0,0.0,0.0,0.0,0.0,0.0,0.0,0.0,0.0,0.0,0.0,0.0,0.0,0.0,0.0,0.0,0.0,0.0,0.0,0.0,0.0,0.0,0.0,0.0,0.0,0.0,0.0,0.0,0.0,0.0,0.0,0.0,0.0,0.0,0.0,0.0,0.0,0.0,0.0,0.0,0.0,0.0,0.0,0.0,0.0,0.0,0.0,0.0,0.0,0.0,0.0,0.0,0.0,0.0,0.0,0.0,0.0,0.0,0.0,0.0,0.0,0.0,0.0,0.0,0.0,0.0,0.0,0.0,0.0,0.0,0.0,0.0,0.0,0.0,0.0,0.0,0.0,0.0,0.0,0.0,0.0,0.0,0.0,0.0,0.0,0.0,0.0,0.0,0.0,0.0,0.0,0.0,0.0,0.0,0.0,0.0,0.0,0.0,0.0,0.0,0.0,0.0,0.0,0.0,0.0,0.0,0.0,0.0,0.0,0.0,0.0,0.0,0.0,0.0,0.0,0.0,0.0,0.0,0.0,0.0,0.0,0.0,0.0,0.0,0.0,0.0,0.0,0.0,0.0,0.0,0.0,0.0,0.0,0.0,0.0,0.0,0.0,0.0,0.0,0.0,0.0,0.0,0.0,0.0,0.0,0.0,0.0,0.0,0.0,0.0,0.0,0.0,0.0,0.0,0.0,0.0,0.0,0.0,0.0,0.0,0.0,0.0,0.0,0.0,0.0,0.0,0.0,0.0,0.0,0.0,0.0,0.0,0.0,0.0,0.0,0.0,0.0,0.0,0.0,0.0,0.0,0.0,0.0,0.0,0.0,0.0,0.0,0.0,0.0,0.0,0.0,0.0,0.0,0.0,0.0,0.0,0.0,0.0,0.0,0.0,0.0,0.0,0.0,0.0,0.0,0.0,0.0,0.0,0.0,0.0,0.0,0.0,0.0,0.0,0.0,0.0,0.0,0.0,0.0,0.0,0.0,0.0,0.0,0.0,0.0,0.0,0.0,0.0,0.0,0.0,0.0,0.0,0.0,0.0,0.0,0.0,0.0,0.0,0.0,0.0,0.0,0.0,0.0,0.0,0.0,0.0,0.0,0.0,0.0,0.0,0.0,0.0,0.0,0.0,0.0,0.0,0.0,0.0,0.0,0.0,0.0,0.0,0.0,0.0,0.0,0.0,0.0,0.0,0.0,0.0,0.0,0.0,0.0,0.0,0.0,0.0,0.0,0.0,0.0,0.0,0.0,0.0,0.0,0.0,0.0,0.0,0.0,0.0,0.0,0.0,0.0,0.0,0.0,0.0,0.0,0.0,0.0,0.0,0.0,0.0,0.0,0.0,0.0,0.0,0.0,0.0,0.0,0.0,0.0,0.0,0.0,0.0,0.0,0.0,0.0,0.0,0.0,0.0,0.0,0.0,0.0,0.0,0.0,0.0,0.0,0.0,0.0,0.0,0.0,0.0,0.0,0.0,0.0,0.0,0.0,0.0,0.0,0.0,0.0,0.0,0.0,0.0,0.0,0.0,0.0,0.0,0.0,0.0,0.0,0.0,0.0,0.0,0.0,0.0,0.0,0.0,0.0,0.0,0.0,0.0,0.0,0.0,0.0,0.0,0.0,0.0,0.0,0.0,0.0,0.0,0.0,0.0,0.0,0.0,0.0,0.0,0.0,0.0,0.0,0.0,0.0,0.0,0.0,0.0,0.0,0.0,0.0,0.0,0.0,0.0,0.0,0.0,0.0,0.0,0.0,0.0,0.0,0.0,0.0,0.0,0.0,0.0,0.0,0.0,0.0,0.0,0.0,0.0,0.0,0.0,0.0,0.0,0.0,0.0,0.0,0.0,0.0,0.0,0.0,0.0,0.0,0.0,0.0,0.0,0.0,0.0,0.0,0.0,0.0,0.0,0.0,0.0,0.0,0.0,0.0,0.0,0.0,0.0,0.0,0.0,0.0,0.0,0.0,0.0,0.0,0.0,0.0,0.0,0.0,0.0,0.0,0.0,0.0,0.0,0.0,0.0,0.0,0.0,0.0,0.0,0.0,0.0,0.0,0.0,0.0,0.0,0.0,0.0,0.0,0.0,0.0,0.0,0.0,0.0,0.0,0.0,0.0,0.0,0.0,0.0,0.0,0.0,0.0,0.0,0.0,0.0,0.0,0.0,0.0,0.0,0.0,0.0,0.0,0.0,0.0,0.0,0.0,0.0,0.0,0.0,0.0,0.0,0.0,0.0,0.0,0.0,0.0,0.0,0.0,0.0,0.0,0.0,0.0,0.0,0.0,0.0,0.0,0.0,0.0,0.0,0.0,0.0,0.0,0.0,0.0,0.0,0.0,0.0,0.0,0.0,0.0,0.0,0.0,0.0,0.0,0.0,0.0,0.0,0.0,0.0,0.0,0.0,0.0,0.0,0.0,0.0,0.0,0.0,0.0,0.0,0.0,0.0,0.0,0.0,0.0,0.0,0.0,0.0,0.0,0.0,0.0,0.0,0.0,0.0,0.0,0.0,0.0,0.0,0.0,0.0,0.0,0.0,0.0,0.0,0.0,0.0,0.0,0.0,0.0,0.0,0.0,0.0,0.0,0.0,0.0,0.0,0.0,0.0,0.0,0.0,0.0,0.0,0.0,0.0,0.0,0.0,0.0,0.0,0.0,0.0,0.0,0.0,0.0,0.0,0.0,0.0,0.0,0.0,0.0,0.0,0.0,0.0,0.0,0.0,0.0,0.0,0.0,0.0,0.0,0.0,0.0,0.0,0.0,0.0,0.0,0.0,0.0,0.0,0.0,0.0,0.0,0.0,0.0,0.0,0.0,0.0,0.0,0.0,0.0,0.0,0.0,0.0,0.0,0.0,0.0,0.0,0.0,0.0,0.0,0.0,0.0,0.0,0.0,0.0,0.0,0.0,0.0,0.0,0.0,0.0,0.0,0.0,0.0,0.0,0.0,0.0,0.0,0.0,0.0,0.0,0.0,0.0,0.0,0.0,0.0,0.0,0.0,0.0,0.0,0.0,0.0,0.0,0.0,0.0,0.0,0.0,0.0,0.0,0.0,0.0,0.0,0.0,0.0,0.0,0.0,0.0,0.0,0.0,0.0,0.0,0.0,0.0,0.0,0.0,0.0,0.0,0.0,0.0,0.0,0.0,0.0,0.0,0.0,0.0,0.0,0.0,0.0,0.0,0.0,0.0,0.0,0.0,0.0,0.0,0.0,0.0,0.0,0.0,0.0,0.0,0.0,0.0,0.0,0.0,0.0,0.0,0.0,0.0,0.0,0.0,0.0,0.0,0.0,0.0,0.0,0.0,0.0,0.0,0.0,0.0,0.0,0.0,0.0,0.0,0.0,0.0,0.0,0.0,0.0,0.0,0.0,0.0,0.0,0.0,0.0,0.0,0.0,0.0,0.0,0.0,0.0,0.0,0.0,0.0,0.0,0.0,0.0,0.0,0.0,0.0,0.0,0.0,0.0,0.0,0.0,0.0,0.0,0.0,0.0,0.0,0.0,0.0,0.0,0.0,0.0,0.0,0.0,0.0,0.0,0.0,0.0,0.0,0.0,0.0,0.0,0.0,0.0,0.0,0.0,0.0,0.0,0.0,0.0,0.0,0.0,0.0,0.0,0.0,0.0,0.0,0.0,0.0,0.0,0.0,0.0,0.0,0.0,0.0,0.0,0.0,0.0,0.0,0.0,0.0,0.0,0.0,0.0,0.0,0.0,0.0,0.0,0.0,0.0,0.0,0.0,0.0,0.0,0.0,0.0,0.0,0.0,0.0,0.0,0.0,0.0,0.0,0.0,0.0,0.0,0.0,0.0,0.0,0.0,0.0,0.0,0.0,0.0,0.0,0.0,0.0,0.0,0.0,0.0,0.0,0.0,0.0,0.0,0.0,0.0,0.0,0.0,0.0,0.0,0.0,0.0,0.0,0.0,0.0,0.0,0.0,0.0,0.0,0.0,0.0,0.0,0.0,0.0,0.0,0.0,0.0,0.0,0.0,8.7448,0.0,0.0,0.0,0.0,0.0,0.0,0.0,0.0,0.0,0.0,0.0,0.0,0.0,0.0,0.0,0.0,0.0,0.0,0.0,0.0,0.0,0.0,0.0,0.0,0.0,0.0,0.0,0.0,0.0,0.0,0.0,0.0,0.0,0.0,0.0,0.0,0.0,0.0,0.0,0.0,0.0,0.0,0.0,0.0,0.0,0.0,0.0,0.0,0.0,0.0,0.0,0.0,0.0,0.0,0.0,0.0,0.0,0.0,0.0,0.0,0.0,0.0,0.0,0.0,0.0,0.0,0.0,0.0,0.0,0.0,0.0,0.0,0.0,0.0,0.0,0.0,0.0,0.0,0.0,0.0,0.0,0.0,0.0,0.0,0.0,0.0,0.0,0.0,0.0,0.0,0.0,0.0,0.0,0.0,0.0,0.0,0.0,0.0,0.0,0.0,0.0,0.0,0.0,0.0,0.0,0.0,0.0,0.0,0.0,0.0,8.9579,9.0594,8.7042,8.5993,8.7888,0.0,0.0,0.0,0.0,0.0,0.0,0.0,0.0,0.0,0.0,0.0,0.0,0.0,0.0,0.0,0.0,0.0,0.0,0.0,0.0,0.0,0.0,0.0,0.0,0.0,0.0,0.0,0.0,0.0,0.0,0.0,0.0,0.0,0.0,0.0,0.0,0.0,0.0,0.0,0.0,0.0,0.0,0.0,0.0,0.0,0.0,0.0,0.0,0.0,0.0,0.0,0.0,0.0,0.0,0.0,0.0,0.0,0.0,0.0,0.0,0.0,0.0,0.0,0.0,0.0,0.0,0.0,0.0,0.0,0.0,0.0,0.0,0.0,0.0,0.0,0.0,0.0,0.0,0.0,0.0,0.0,0.0,0.0,0.0,0.0,0.0,0.0,0.0,0.0,0.0,0.0,0.0,0.0,0.0,0.0,0.0,0.0,0.0,0.0,0.0,0.0,0.0,0.0,0.0,0.0,0.0,0.0,0.0,0.0,0.0,0.0,0.0,8.7008,8.6027,8.7651,0.0,0.0,0.0,0.0,0.0,0.0,0.0,0.0,0.0,0.0,0.0,0.0,0.0,0.0,0.0,0.0,0.0,0.0,0.0,0.0,0.0,0.0,0.0,0.0,0.0,0.0,0.0,0.0,0.0,0.0,0.0,0.0,0.0,0.0,0.0,0.0,0.0,0.0,0.0,0.0,0.0,0.0,0.0,0.0,0.0,0.0,0.0,0.0,0.0,0.0,0.0,0.0,0.0,0.0,0.0,0.0,0.0,0.0,0.0,0.0,0.0,0.0,0.0,0.0,0.0,0.0,0.0,0.0,0.0,0.0,0.0,0.0,0.0,0.0,0.0,0.0,0.0,0.0,0.0,0.0,0.0,0.0,0.0,0.0,0.0,0.0,0.0,0.0,0.0,0.0,0.0,0.0,0.0,0.0,0.0,0.0,0.0,0.0,0.0,0.0,0.0,0.0,0.0,0.0,0.0,0.0,0.0,0.0,0.0,0.0,9.2252,9.029,9.0425,0.0,8.7279,0.0,0.0,0.0,0.0,0.0,0.0,0.0,0.0,0.0,0.0,0.0,0.0,0.0,0.0,0.0,0.0,0.0,0.0,0.0,0.0,0.0,0.0,0.0,0.0,0.0,0.0,0.0,0.0,0.0,0.0,0.0,0.0,0.0,0.0,0.0,0.0,0.0,0.0,0.0,0.0,0.0,0.0,0.0,0.0,0.0,0.0,0.0,0.0,0.0,0.0,0.0,0.0,0.0,0.0,0.0,0.0,0.0,0.0,0.0,0.0,0.0,0.0,0.0,0.0,0.0,0.0,0.0,0.0,0.0,0.0,0.0,0.0,0.0,0.0,0.0,0.0,0.0,0.0,0.0,0.0,0.0,0.0,0.0,0.0,0.0,0.0,0.0,0.0,0.0,0.0,0.0,0.0,0.0,0.0,0.0,0.0,0.0,0.0,0.0,0.0,0.0,0.0,0.0,0.0,0.0,0.0,0.0,0.0,0.0,0.0,9.3165,9.0899,8.9444,8.8125,0.0,0.0,0.0,0.0,0.0,0.0,0.0,0.0,0.0,0.0,0.0,0.0,0.0,0.0,0.0,0.0,0.0,0.0,0.0,0.0,0.0,0.0,0.0,0.0,0.0,0.0,0.0,0.0,0.0,0.0,0.0,0.0,0.0,0.0,0.0,0.0,0.0,0.0,0.0,0.0,0.0,0.0,0.0,0.0,0.0,0.0,0.0,0.0,0.0,0.0,0.0,0.0,0.0,0.0,0.0,0.0,0.0,0.0,0.0,0.0,0.0,0.0,0.0,0.0,0.0,0.0,0.0,0.0,0.0,0.0,0.0,0.0,0.0,0.0,0.0,0.0,0.0,0.0,0.0,0.0,0.0,0.0,0.0,0.0,0.0,0.0,0.0,0.0,0.0,0.0,0.0,0.0,0.0,0.0,0.0,0.0,0.0,0.0,0.0,0.0,0.0,0.0,0.0,0.0,0.0,0.0,0.0,0.0,0.0,0.0,9.3706,9.3098,9.1034,8.8734,8.7313,8.6907,0.0,0.0,0.0,0.0,0.0,0.0,0.0,0.0,0.0,0.0,0.0,0.0,0.0,0.0,0.0,0.0,0.0,0.0,0.0,0.0,0.0,0.0,0.0,0.0,0.0,0.0,0.0,0.0,0.0,0.0,0.0,0.0,0.0,0.0,0.0,0.0,0.0,0.0,0.0,0.0,0.0,0.0,0.0,0.0,0.0,0.0,0.0,0.0,0.0,0.0,0.0,0.0,0.0,0.0,0.0,0.0,0.0,0.0,0.0,0.0,0.0,0.0,0.0,0.0,0.0,0.0,0.0,0.0,0.0,0.0,0.0,0.0,0.0,0.0,0.0,0.0,0.0,0.0,0.0,0.0,0.0,0.0,0.0,0.0,0.0,0.0,0.0,0.0,0.0,0.0,0.0,0.0,0.0,0.0,0.0,0.0,0.0,0.0,0.0,0.0,0.0,0.0,0.0,0.0,0.0,0.0,0.0,0.0,9.1508,9.215,9.1812,9.0324,8.941,8.8328,0.0,0.0,0.0,0.0,0.0,0.0,0.0,0.0,0.0,0.0,0.0,0.0,0.0,0.0,0.0,0.0,0.0,0.0,0.0,0.0,0.0,0.0,0.0,0.0,0.0,0.0,0.0,0.0,0.0,0.0,0.0,0.0,0.0,0.0,0.0,0.0,0.0,0.0,0.0,0.0,0.0,0.0,0.0,0.0,0.0,0.0,0.0,0.0,0.0,0.0,0.0,0.0,0.0,0.0,0.0,0.0,0.0,0.0,0.0,0.0,0.0,0.0,0.0,0.0,0.0,0.0,0.0,0.0,0.0,0.0,0.0,0.0,0.0,0.0,0.0,0.0,0.0,0.0,0.0,0.0,0.0,0.0,0.0,0.0,0.0,0.0,0.0,0.0,0.0,0.0,0.0,0.0,0.0,0.0,0.0,0.0,0.0,0.0,0.0,0.0,0.0,0.0,0.0,0.0,0.0,0.0,0.0,0.0,0.0,9.2759,9.2083,9.1237,9.0222,8.8564,8.7211,0.0,0.0,0.0,0.0,0.0,0.0,0.0,0.0,0.0,0.0,0.0,0.0,0.0,0.0,0.0,0.0,0.0,0.0,0.0,0.0,0.0,0.0,0.0,0.0,0.0,0.0,0.0,0.0,0.0,0.0,0.0,0.0,0.0,0.0,0.0,0.0,0.0,0.0,0.0,0.0,0.0,0.0,0.0,0.0,0.0,0.0,0.0,0.0,0.0,0.0,0.0,0.0,0.0,0.0,0.0,0.0,0.0,0.0,0.0,0.0,0.0,0.0,0.0,0.0,0.0,0.0,0.0,0.0,0.0,0.0,0.0,0.0,0.0,0.0,0.0,0.0,0.0,0.0,0.0,0.0,0.0,0.0,0.0,0.0,0.0,0.0,0.0,0.0,0.0,0.0,0.0,0.0,0.0,0.0,0.0,0.0,0.0,0.0,0.0,0.0,0.0,0.0,0.0,0.0,0.0,0.0,0.0,0.0,0.0,9.2827,0.0,9.0121,8.9782,8.7955,8.667,0.0,0.0,0.0,0.0,0.0,0.0,0.0,0.0,0.0,0.0,0.0,0.0,0.0,0.0,0.0,0.0,0.0,0.0,0.0,0.0,0.0,0.0,0.0,0.0,0.0,0.0,0.0,0.0,0.0,0.0,0.0,0.0,0.0,0.0,0.0,0.0,0.0,0.0,0.0,0.0,0.0,0.0,0.0,0.0,0.0,0.0,0.0,0.0,0.0,0.0,0.0,0.0,0.0,0.0,0.0,0.0,0.0,0.0,0.0,0.0,0.0,0.0,0.0,0.0,0.0,0.0,0.0,0.0,0.0,0.0,0.0,0.0,0.0,0.0,0.0,0.0,0.0,0.0,0.0,0.0,0.0,0.0,0.0,0.0,0.0,0.0,0.0,0.0,0.0,0.0,0.0,0.0,0.0,0.0,0.0,0.0,0.0,0.0,0.0,0.0,0.0,0.0,0.0,0.0,0.0,0.0,0.0,0.0,9.2861,9.1372,8.9241,8.8598,8.9106,8.7719,8.6907,0.0,0.0,0.0,0.0,0.0,0.0,0.0,0.0,0.0,0.0,0.0,0.0,0.0,0.0,0.0,0.0,0.0,0.0,0.0,0.0,0.0,0.0,0.0,0.0,0.0,0.0,0.0,0.0,0.0,0.0,0.0,0.0,0.0,0.0,0.0,0.0,0.0,0.0,0.0,0.0,0.0,0.0,0.0,0.0,0.0,0.0,0.0,0.0,0.0,0.0,0.0,0.0,0.0,0.0,0.0,0.0,0.0,0.0,0.0,0.0,0.0,0.0,0.0,0.0,0.0,0.0,0.0,0.0,0.0,0.0,0.0,0.0,0.0,0.0,0.0,0.0,0.0,0.0,0.0,0.0,0.0,0.0,0.0,0.0,0.0,0.0,0.0,0.0,0.0,0.0,0.0,0.0,0.0,0.0,0.0,0.0,0.0,0.0,0.0,0.0,0.0,0.0,0.0,0.0,0.0,0.0,0.0,0.0,0.0,9.2827,9.0696,9.0391,9.1947,8.826,8.711,0.0,0.0,0.0,0.0,0.0,0.0,0.0,0.0,0.0,0.0,0.0,0.0,0.0,0.0,0.0,0.0,0.0,0.0,0.0,0.0,0.0,0.0,0.0,0.0,0.0,0.0,0.0,0.0,0.0,0.0,0.0,0.0,0.0,0.0,0.0,0.0,0.0,0.0,0.0,0.0,0.0,0.0,0.0,0.0,0.0,0.0,0.0,0.0,0.0,0.0,0.0,0.0,0.0,0.0,0.0,0.0,0.0,0.0,0.0,0.0,0.0,0.0,0.0,0.0,0.0,0.0,0.0,0.0,0.0,0.0,0.0,0.0,0.0,0.0,0.0,0.0,0.0,0.0,0.0,0.0,0.0,0.0,0.0,0.0,0.0,0.0,0.0,0.0,0.0,0.0,0.0,0.0,0.0,0.0,0.0,0.0,0.0,0.0,0.0,0.0,0.0,0.0,0.0,0.0,0.0,0.0,0.0,0.0,0.0,9.5533,9.2624,9.169,9.304,8.961,8.8218,8.9203,0.0,0.0,0.0,0.0,0.0,0.0,0.0,0.0,0.0,0.0,0.0,0.0,0.0,0.0,0.0,0.0,0.0,0.0,0.0,0.0,0.0,0.0,0.0,0.0,0.0,0.0,0.0,0.0,0.0,0.0,0.0,0.0,0.0,0.0,0.0,0.0,0.0,0.0,0.0,0.0,0.0,0.0,0.0,0.0,0.0,0.0,0.0,0.0,0.0,0.0,0.0,0.0,0.0,0.0,0.0,0.0,0.0,0.0,0.0,0.0,0.0,0.0,0.0,0.0,0.0,0.0,0.0,0.0,0.0,0.0,0.0,0.0,0.0,0.0,0.0,0.0,0.0,0.0,0.0,0.0,0.0,0.0,0.0,0.0,0.0,0.0,0.0,0.0,0.0,0.0,0.0,0.0,0.0,0.0,0.0,0.0,0.0,0.0,0.0,0.0,0.0,0.0,0.0,0.0,0.0,0.0,0.0,0.0,9.9288,9.5296,9.3094,9.285,9.1869,9.0332,0.0,0.0,0.0,0.0,0.0,0.0,0.0,0.0,0.0,0.0,0.0,0.0,0.0,0.0,0.0,0.0,0.0,0.0,0.0,0.0,0.0,0.0,0.0,0.0,0.0,0.0,0.0,0.0,0.0,0.0,0.0,0.0,0.0,0.0,0.0,0.0,0.0,0.0,0.0,0.0,0.0,0.0,0.0,0.0,0.0,0.0,0.0,0.0,0.0,0.0,0.0,0.0,0.0,0.0,0.0,0.0,0.0,0.0,0.0,0.0,0.0,0.0,0.0,0.0,0.0,0.0,0.0,0.0,0.0,0.0,0.0,0.0,0.0,0.0,0.0,0.0,0.0,0.0,0.0,0.0,0.0,0.0,0.0,0.0,0.0,0.0,0.0,0.0,0.0,0.0,0.0,0.0,0.0,0.0,0.0,0.0,0.0,0.0,0.0,0.0,0.0,0.0,0.0,0.0,0.0,0.0,0.0,0.0,0.0,10.1589,10.2062,10.1737,10.0418,9.6338,9.4198,0.0,0.0,0.0,0.0,0.0,0.0,0.0,0.0,0.0,0.0,0.0,0.0,0.0,0.0,0.0,0.0,0.0,0.0,0.0,0.0,0.0,0.0,0.0,0.0,0.0,0.0,0.0,0.0,0.0,0.0,0.0,0.0,0.0,0.0,0.0,0.0,0.0,0.0,0.0,0.0,0.0,0.0,0.0,0.0,0.0,0.0,0.0,0.0,0.0,0.0,0.0,0.0,0.0,0.0,0.0,0.0,0.0,0.0,0.0,0.0,0.0,0.0,0.0,0.0,0.0,0.0,0.0,0.0,0.0,0.0,0.0,0.0,0.0,0.0,0.0,0.0,0.0,0.0,0.0,0.0,0.0,0.0,0.0,0.0,0.0,0.0,0.0,0.0,0.0,0.0,0.0,0.0,0.0,0.0,0.0,0.0,0.0,0.0,0.0,0.0,0.0,0.0,0.0,0.0,0.0,0.0,0.0,0.0,10.3787,10.4363,10.7441,10.8355,10.6734,10.2386,9.8629,0.0,0.0,0.0,0.0,0.0,0.0,0.0,0.0,0.0,0.0,0.0,0.0,0.0,0.0,0.0,0.0,0.0,0.0,0.0,0.0,0.0,0.0,0.0,0.0,0.0,0.0,0.0,0.0,0.0,0.0,0.0,0.0,0.0,0.0,0.0,0.0,0.0,0.0,0.0,0.0,0.0,0.0,0.0,0.0,0.0,0.0,0.0,0.0,0.0,0.0,0.0,0.0,0.0,0.0,0.0,0.0,0.0,0.0,0.0,0.0,0.0,0.0,0.0,0.0,0.0,0.0,0.0,0.0,0.0,0.0,0.0,0.0,0.0,0.0,0.0,0.0,0.0,0.0,0.0,0.0,0.0,0.0,0.0,0.0,0.0,0.0,0.0,0.0,0.0,0.0,0.0,0.0,0.0,0.0,0.0,0.0,0.0,0.0,0.0,0.0,0.0,0.0,0.0,0.0,0.0,0.0,0.0,0.0,10.7678,10.7306,11.1501,11.2967,11.1447,10.8268,10.3023,0.0,0.0,0.0,0.0,0.0,0.0,0.0,0.0,0.0,0.0,0.0,0.0,0.0,0.0,0.0,0.0,0.0,0.0,0.0,0.0,0.0,0.0,0.0,0.0,0.0,0.0,0.0,0.0,0.0,0.0,0.0,0.0,0.0,0.0,0.0,0.0,0.0,0.0,0.0,0.0,0.0,0.0,0.0,0.0,0.0,0.0,0.0,0.0,0.0,0.0,0.0,0.0,0.0,0.0,0.0,0.0,0.0,0.0,0.0,0.0,0.0,0.0,0.0,0.0,0.0,0.0,0.0,0.0,0.0,0.0,0.0,0.0,0.0,0.0,0.0,0.0,0.0,0.0,0.0,0.0,0.0,0.0,0.0,0.0,0.0,0.0,0.0,0.0,0.0,0.0,0.0,0.0,0.0,0.0,0.0,0.0,0.0,0.0,0.0,0.0,0.0,0.0,0.0,0.0,0.0,0.0,0.0,0.0,10.7915,10.9606,11.2786,11.4042,11.31,10.8637,10.446,0.0,0.0,0.0,0.0,0.0,0.0,0.0,0.0,0.0,0.0,0.0,0.0,0.0,0.0,0.0,0.0,0.0,0.0,0.0,0.0,0.0,0.0,0.0,0.0,0.0,0.0,0.0,0.0,0.0,0.0,0.0,0.0,0.0,0.0,0.0,0.0,0.0,0.0,0.0,0.0,0.0,0.0,0.0,0.0,0.0,0.0,0.0,0.0,9.3529,0.0,0.0,0.0,0.0,0.0,0.0,0.0,0.0,0.0,0.0,0.0,0.0,0.0,0.0,0.0,0.0,0.0,0.0,0.0,0.0,0.0,0.0,0.0,0.0,0.0,0.0,0.0,0.0,0.0,0.0,0.0,0.0,0.0,0.0,0.0,0.0,0.0,0.0,0.0,0.0,0.0,0.0,0.0,0.0,0.0,0.0,0.0,0.0,0.0,0.0,0.0,0.0,0.0,0.0,0.0,0.0,0.0,0.0,0.0,10.9606,11.1805,11.441,11.5391,11.4549,10.9596,10.5727,0.0,0.0,0.0,0.0,0.0,0.0,0.0,0.0,0.0,0.0,0.0,0.0,0.0,0.0,0.0,0.0,0.0,0.0,0.0,0.0,0.0,0.0,0.0,0.0,0.0,0.0,0.0,0.0,0.0,0.0,0.0,0.0,0.0,0.0,0.0,0.0,0.0,0.0,0.0,0.0,0.0,0.0,0.0,0.0,0.0,0.0,0.0,0.0,0.0,0.0,0.0,0.0,0.0,0.0,0.0,0.0,0.0,0.0,0.0,0.0,0.0,0.0,0.0,0.0,0.0,0.0,0.0,0.0,0.0,0.0,0.0,0.0,0.0,0.0,0.0,0.0,0.0,0.0,0.0,0.0,0.0,0.0,0.0,0.0,0.0,0.0,0.0,0.0,0.0,0.0,0.0,0.0,0.0,0.0,0.0,0.0,0.0,0.0,0.0,0.0,0.0,0.0,0.0,0.0,0.0,0.0,0.0,10.7915,11.1331,11.4038,11.5932,11.6507,11.5594,11.0664,10.6932,10.4797,0.0,0.0,0.0,0.0,0.0,0.0,0.0,0.0,0.0,0.0,0.0,0.0,0.0,0.0,0.0,0.0,0.0,0.0,0.0,0.0,0.0,0.0,0.0,0.0,0.0,0.0,0.0,0.0,0.0,0.0,0.0,0.0,0.0,0.0,0.0,0.0,0.0,0.0,9.6245,9.6942,0.0,0.0,0.0,0.0,0.0,0.0,0.0,0.0,9.485,0.0,0.0,0.0,0.0,0.0,0.0,0.0,0.0,0.0,0.0,0.0,0.0,0.0,0.0,0.0,0.0,0.0,0.0,0.0,0.0,0.0,0.0,0.0,0.0,0.0,0.0,0.0,0.0,0.0,0.0,0.0,0.0,0.0,0.0,0.0,0.0,0.0,0.0,0.0,0.0,0.0,0.0,0.0,0.0,0.0,0.0,0.0,0.0,0.0,0.0,0.0,0.0,0.0,0.0,0.0,0.0,10.9775,10.893,11.0959,11.6203,11.671,11.627,11.485,11.1065,10.8348,10.6808,0.0,0.0,0.0,0.0,0.0,0.0,0.0,0.0,0.0,0.0,0.0,0.0,0.0,0.0,0.0,0.0,0.0,0.0,0.0,0.0,0.0,0.0,0.0,0.0,0.0,0.0,0.0,0.0,0.0,0.0,0.0,0.0,0.0,0.0,0.0,0.0,0.0,0.0,0.0,10.3439,10.4724,0.0,0.0,0.0,0.0,0.0,0.0,0.0,0.0,9.5584,0.0,0.0,0.0,0.0,0.0,0.0,0.0,0.0,0.0,0.0,0.0,0.0,0.0,0.0,0.0,0.0,0.0,0.0,0.0,0.0,0.0,0.0,0.0,0.0,0.0,0.0,0.0,0.0,0.0,0.0,0.0,0.0,0.0,0.0,0.0,0.0,0.0,0.0,0.0,0.0,0.0,0.0,0.0,0.0,0.0,0.0,0.0,0.0,0.0,0.0,0.0,0.0,0.0,0.0,0.0,10.9268,11.0858,11.326,11.6778,11.7319,11.6643,11.468,11.035,10.7778,0.0,0.0,0.0,0.0,0.0,0.0,0.0,0.0,0.0,0.0,0.0,0.0,0.0,0.0,0.0,0.0,0.0,0.0,0.0,0.0,0.0,0.0,0.0,0.0,0.0,0.0,0.0,0.0,0.0,0.0,0.0,0.0,0.0,0.0,0.0,0.0,0.0,0.0,0.0,0.0,10.5997,10.6949,10.6174,0.0,0.0,0.0,0.0,0.0,0.0,9.8411,9.7787,0.0,0.0,0.0,0.0,0.0,0.0,0.0,0.0,0.0,0.0,0.0,0.0,0.0,0.0,0.0,0.0,0.0,0.0,0.0,0.0,0.0,0.0,0.0,0.0,0.0,0.0,0.0,0.0,0.0,0.0,0.0,0.0,0.0,0.0,0.0,0.0,0.0,0.0,0.0,0.0,0.0,0.0,0.0,0.0,0.0,0.0,0.0,0.0,0.0,0.0,0.0,0.0,0.0,0.0,0.0,10.8219,11.2346,11.5357,11.7082,11.7759,11.6879,11.4274,10.9775,10.7069,0.0,0.0,0.0,0.0,0.0,0.0,0.0,0.0,0.0,0.0,0.0,0.0,0.0,0.0,0.0,0.0,0.0,0.0,0.0,0.0,0.0,0.0,0.0,0.0,0.0,0.0,0.0,0.0,0.0,0.0,0.0,0.0,0.0,0.0,0.0,0.0,0.0,0.0,0.0,0.0,0.0,10.8866,10.9586,10.7907,0.0,0.0,0.0,0.0,10.0907,10.1898,0.0,0.0,0.0,0.0,0.0,0.0,0.0,0.0,0.0,0.0,0.0,0.0,0.0,0.0,0.0,0.0,0.0,0.0,0.0,0.0,0.0,0.0,0.0,0.0,0.0,0.0,0.0,0.0,0.0,0.0,0.0,0.0,0.0,0.0,0.0,0.0,0.0,0.0,0.0,0.0,0.0,0.0,0.0,0.0,0.0,0.0,0.0,0.0,0.0,0.0,0.0,0.0,0.0,0.0,0.0,0.0,10.8896,11.2143,11.512,11.7793,11.8063,11.6372,11.282,11.0249,10.7678,0.0,0.0,0.0,0.0,0.0,0.0,0.0,0.0,0.0,0.0,0.0,0.0,0.0,0.0,0.0,0.0,0.0,0.0,0.0,0.0,0.0,0.0,0.0,0.0,0.0,0.0,0.0,0.0,0.0,0.0,0.0,0.0,0.0,0.0,0.0,0.0,0.0,0.0,0.0,0.0,0.0,11.3619,11.1675,11.1503,11.0414,0.0,0.0,10.5899,10.6486,10.9055,0.0,0.0,0.0,0.0,0.0,0.0,0.0,0.0,0.0,0.0,0.0,0.0,0.0,0.0,0.0,0.0,0.0,0.0,0.0,0.0,0.0,0.0,0.0,0.0,0.0,0.0,0.0,0.0,0.0,0.0,0.0,0.0,0.0,0.0,0.0,0.0,0.0,0.0,0.0,0.0,0.0,0.0,0.0,0.0,0.0,0.0,0.0,0.0,0.0,0.0,0.0,0.0,0.0,0.0,0.0,10.443,10.9099,11.3327,11.6507,11.8605,11.8334,11.671,11.3801,10.9538,10.6663,0.0,0.0,0.0,0.0,0.0,0.0,0.0,0.0,0.0,0.0,0.0,0.0,0.0,0.0,0.0,0.0,0.0,0.0,0.0,0.0,0.0,0.0,0.0,0.0,0.0,0.0,0.0,0.0,0.0,0.0,0.0,0.0,0.0,0.0,0.0,0.0,0.0,0.0,0.0,0.0,0.0,0.0,11.4121,11.5818,0.0,0.0,0.0,11.1441,11.2249,0.0,0.0,0.0,0.0,0.0,0.0,0.0,0.0,0.0,0.0,0.0,0.0,0.0,0.0,0.0,0.0,0.0,0.0,0.0,0.0,0.0,0.0,0.0,0.0,0.0,0.0,0.0,0.0,0.0,0.0,0.0,0.0,0.0,0.0,0.0,0.0,0.0,0.0,0.0,0.0,0.0,0.0,0.0,0.0,0.0,0.0,0.0,0.0,0.0,0.0,0.0,0.0,0.0,0.0,0.0,0.0,0.0,10.9132,11.4477,11.786,11.9112,11.8469,11.6913,11.441,10.9369,0.0,0.0,0.0,0.0,0.0,0.0,0.0,0.0,0.0,0.0,0.0,0.0,0.0,0.0,0.0,0.0,0.0,0.0,0.0,0.0,0.0,0.0,0.0,0.0,0.0,0.0,0.0,9.0158,0.0,0.0,0.0,0.0,0.0,0.0,0.0,0.0,0.0,0.0,0.0,0.0,0.0,0.0,11.7305,11.6805,11.9827,12.1205,0.0,0.0,11.6837,11.7425,11.7535,11.5516,0.0,0.0,0.0,0.0,0.0,0.0,0.0,0.0,0.0,0.0,0.0,0.0,0.0,0.0,0.0,0.0,0.0,0.0,0.0,0.0,0.0,0.0,0.0,0.0,0.0,0.0,0.0,0.0,0.0,0.0,0.0,0.0,0.0,0.0,0.0,0.0,0.0,0.0,0.0,0.0,0.0,0.0,0.0,0.0,0.0,0.0,0.0,0.0,0.0,0.0,0.0,0.0,0.0,0.0,10.6122,10.9234,11.5019,11.8402,11.9146,11.8469,11.6676,11.3733,11.0621,10.7306,0.0,0.0,0.0,0.0,0.0,0.0,0.0,0.0,0.0,0.0,0.0,0.0,0.0,0.0,0.0,0.0,0.0,0.0,0.0,0.0,0.0,0.0,0.0,0.0,0.0,0.0,0.0,0.0,0.0,0.0,0.0,0.0,0.0,0.0,0.0,0.0,0.0,0.0,0.0,0.0,0.0,11.9094,11.9701,12.3001,12.528,0.0,0.0,12.1609,12.1683,12.5317,12.4582,11.3827,0.0,0.0,0.0,0.0,0.0,0.0,0.0,0.0,0.0,0.0,0.0,0.0,0.0,0.0,0.0,0.0,0.0,0.0,0.0,0.0,0.0,0.0,0.0,0.0,0.0,0.0,0.0,0.0,0.0,0.0,0.0,0.0,0.0,0.0,0.0,0.0,0.0,0.0,0.0,0.0,0.0,0.0,0.0,0.0,0.0,0.0,0.0,0.0,0.0,0.0,0.0,0.0,0.0,10.6392,10.9877,11.4816,11.8165,11.9721,11.8232,11.6609,11.5019,11.0756,10.6934,0.0,0.0,0.0,0.0,0.0,0.0,0.0,0.0,0.0,0.0,0.0,0.0,0.0,0.0,0.0,0.0,0.0,0.0,0.0,0.0,0.0,0.0,0.0,0.0,0.0,0.0,0.0,0.0,9.4524,9.5187,9.7294,0.0,0.0,0.0,0.0,0.0,0.0,0.0,0.0,0.0,0.0,12.1795,12.3583,12.6993,0.0,0.0,12.7115,12.6528,12.6528,12.6014,12.3298,11.647,11.324,0.0,0.0,0.0,0.0,0.0,0.0,0.0,0.0,0.0,0.0,0.0,0.0,0.0,0.0,0.0,0.0,0.0,0.0,0.0,0.0,0.0,0.0,0.0,0.0,0.0,0.0,0.0,0.0,0.0,0.0,0.0,0.0,0.0,0.0,0.0,0.0,0.0,0.0,0.0,0.0,0.0,0.0,0.0,0.0,0.0,0.0,0.0,0.0,0.0,0.0,0.0,0.0,10.6764,11.0283,11.4647,11.7894,11.989,11.7962,11.6541,11.5729,11.1196,10.7306,0.0,0.0,0.0,0.0,0.0,0.0,0.0,0.0,0.0,0.0,0.0,0.0,0.0,0.0,0.0,0.0,0.0,0.0,0.0,0.0,0.0,0.0,0.0,0.0,0.0,0.0,0.0,0.0,9.7685,9.8339,9.9358,0.0,0.0,0.0,0.0,0.0,0.0,0.0,0.0,0.0,0.0,12.4336,12.6749,12.9734,13.1373,13.0529,12.9575,12.895,12.895,12.6785,12.3298,11.8049,0.0,0.0,0.0,0.0,0.0,0.0,0.0,0.0,0.0,0.0,0.0,0.0,0.0,0.0,0.0,0.0,0.0,0.0,0.0,0.0,0.0,0.0,0.0,0.0,0.0,0.0,0.0,8.7631,0.0,0.0,8.9086,0.0,0.0,0.0,0.0,0.0,0.0,0.0,0.0,0.0,0.0,0.0,0.0,0.0,0.0,0.0,0.0,0.0,0.0,0.0,0.0,0.0,0.0,10.7272,11.0316,11.4647,11.7624,11.9146,11.7691,11.6541,11.5729,11.2211,10.8828,10.5716,0.0,0.0,0.0,0.0,0.0,0.0,0.0,0.0,0.0,0.0,0.0,0.0,0.0,0.0,0.0,0.0,0.0,0.0,0.0,0.0,0.0,0.0,0.0,0.0,0.0,0.0,10.1233,10.1428,10.0756,0.0,0.0,0.0,0.0,0.0,0.0,0.0,0.0,0.0,0.0,12.128,12.6491,12.8826,13.0639,13.196,13.2695,13.0199,12.818,12.8253,12.8694,12.6491,0.0,0.0,0.0,0.0,0.0,0.0,0.0,0.0,0.0,0.0,0.0,0.0,0.0,0.0,0.0,0.0,0.0,0.0,0.0,0.0,0.0,0.0,0.0,0.0,0.0,0.0,0.0,8.9203,9.0152,0.0,0.0,0.0,0.0,0.0,0.0,0.0,0.0,0.0,0.0,0.0,10.4633,10.416,0.0,0.0,0.0,0.0,0.0,0.0,0.0,0.0,0.0,0.0,0.0,0.0,10.7779,11.167,11.468,11.715,11.9078,11.7218,11.5831,11.5053,11.2448,10.8829,10.4248,0.0,0.0,0.0,0.0,0.0,0.0,0.0,0.0,0.0,0.0,0.0,0.0,0.0,0.0,0.0,0.0,0.0,0.0,0.0,0.0,0.0,0.0,0.0,0.0,0.0,10.142,0.0,0.0,0.0,0.0,0.0,0.0,0.0,0.0,0.0,0.0,0.0,11.3745,11.8446,12.2869,12.6565,12.8987,13.1153,13.2768,0.0,0.0,0.0,0.0,0.0,0.0,0.0,0.0,0.0,0.0,0.0,0.0,0.0,0.0,12.0765,11.302,11.0524,10.9606,10.9606,0.0,0.0,0.0,0.0,0.0,0.0,0.0,0.0,0.0,0.0,0.0,0.0,0.0,0.0,9.1874,9.3431,9.2579,0.0,0.0,0.0,0.0,0.0,0.0,0.0,0.0,10.416,10.5513,10.6866,10.6392,10.5648,10.4667,10.4227,10.2367,0.0,0.0,0.0,0.0,0.0,0.0,0.0,0.0,10.7745,11.1636,11.4173,11.6372,11.8199,11.6473,11.5188,11.4647,11.1771,10.8013,10.3398,10.1327,9.9791,0.0,0.0,0.0,0.0,0.0,0.0,0.0,0.0,0.0,0.0,0.0,0.0,0.0,0.0,0.0,0.0,0.0,0.0,0.0,0.0,0.0,0.0,0.0,10.34,0.0,0.0,0.0,0.0,0.0,0.0,0.0,0.0,0.0,11.2469,11.3901,11.6911,12.227,12.4546,12.6858,13.0125,0.0,0.0,0.0,0.0,0.0,0.0,0.0,12.7446,12.5243,12.4546,12.4472,12.5243,12.7813,12.8877,12.6234,0.0,0.0,11.8893,11.636,11.5442,11.5442,11.5149,11.4965,11.5296,11.4708,11.4194,0.0,0.0,0.0,0.0,9.1538,0.0,0.0,0.0,9.2805,9.4716,0.0,9.5386,0.0,0.0,0.0,0.0,10.0307,10.2502,0.0,0.0,10.5953,10.7001,10.7069,10.7137,10.6325,10.5005,10.6291,10.5039,10.1487,9.9288,0.0,0.0,0.0,0.0,0.0,0.0,10.734,11.0418,11.3293,11.5425,11.6778,11.5425,11.4613,11.441,11.0283,10.6558,10.373,10.3391,10.2568,10.1052,10.2763,0.0,0.0,0.0,0.0,0.0,0.0,0.0,0.0,0.0,0.0,0.0,0.0,0.0,0.0,0.0,0.0,0.0,0.0,0.0,0.0,10.4232,0.0,0.0,0.0,0.0,0.0,0.0,0.0,0.0,0.0,0.0,11.5479,11.7902,12.1536,12.6197,0.0,0.0,0.0,0.0,13.1153,13.2805,13.2988,13.2438,13.0896,13.1814,13.119,12.6711,0.0,0.0,12.9978,13.152,13.2107,12.895,12.9171,12.9024,12.7299,12.4766,12.3261,12.3188,12.1389,12.0251,12.0838,12.0361,11.9554,9.4079,0.0,0.0,0.0,0.0,9.4178,9.5592,9.8281,9.7856,9.8351,9.9353,9.8208,0.0,0.0,0.0,0.0,0.0,0.0,10.3957,10.5986,10.7745,10.9099,11.0114,11.0621,11.0114,10.8727,10.8591,10.6866,10.3787,10.257,10.0912,9.8815,0.0,0.0,0.0,0.0,10.8321,11.1737,11.3733,11.5154,11.6101,11.468,11.3158,11.1602,10.876,10.6794,10.5812,10.4739,10.4124,10.402,10.3672,0.0,0.0,0.0,0.0,0.0,0.0,0.0,0.0,0.0,0.0,0.0,0.0,0.0,0.0,0.0,0.0,0.0,0.0,0.0,10.5735,10.5283,10.5757,0.0,0.0,0.0,0.0,0.0,0.0,0.0,0.0,0.0,12.3151,12.3701,12.4693,0.0,0.0,12.9391,13.0235,13.0896,13.2144,13.4346,13.4163,0.0,13.3135,13.1997,13.1116,13.0859,13.3943,13.6145,13.5484,13.6402,13.6402,13.3759,13.3943,13.3796,13.152,12.8767,12.6858,12.6638,12.6087,12.572,12.5941,12.539,12.4729,9.6301,9.4104,9.5432,9.6835,9.7964,9.7681,9.8639,10.0343,10.0313,10.0786,10.1475,10.0785,10.0506,10.0641,10.0032,0.0,0.0,0.0,10.4363,10.6934,10.8151,10.9674,11.1365,11.1873,11.1433,11.035,11.0147,10.8659,10.5986,10.5547,10.399,10.1352,0.0,0.0,10.3382,10.5716,10.8456,11.1534,11.3057,11.4173,11.4883,11.3496,11.167,10.9471,10.805,10.7033,10.6378,10.5752,10.5407,10.5455,10.5115,10.5447,0.0,0.0,0.0,0.0,0.0,0.0,0.0,0.0,0.0,0.0,0.0,9.9145,9.9818,0.0,0.0,0.0,10.3976,10.5612,10.6668,10.657,0.0,0.0,0.0,0.0,0.0,0.0,0.0,11.7314,12.1179,12.4665,12.7065,12.8415,12.9425,13.0147,13.0419,13.0786,13.1593,0.0,13.2649,13.5027,13.4975,13.4884,13.5394,13.4053,13.3355,13.464,13.6696,13.8347,13.8714,13.8678,13.8017,13.6769,13.6255,13.5668,13.4163,13.2254,13.0712,13.0125,12.9721,12.9538,12.9501,12.8877,12.818,9.8264,9.8058,10.0409,10.1308,10.1283,10.167,10.1178,10.0149,10.1127,10.2277,10.3496,10.2886,10.3314,10.4396,10.3111,0.0,10.2705,10.3382,10.487,10.7001,10.7779,10.9234,11.1264,11.1365,11.1061,11.0418,11.0993,11.0215,10.8185,10.8084,10.6967,10.4769,10.284,10.2874,10.4769,10.6223,10.8118,11.035,11.1771,11.2752,11.3327,11.194,11.0147,10.8016,10.7915,10.7272,10.5986,10.648,10.653,10.5872,10.6682,10.7499,10.8107,0.0,0.0,0.0,0.0,0.0,0.0,0.0,0.0,0.0,0.0,0.0,0.0,0.0,0.0,10.5537,10.6222,0.0,10.6522,10.8064,0.0,0.0,0.0,11.3285,11.5385,11.6874,11.8352,12.0119,0.0,0.0,12.8216,13.1795,13.4533,13.5322,13.2862,13.2034,13.4897,13.3458,13.2964,13.5029,13.5377,13.5903,13.6807,13.6605,13.6512,13.732,13.8421,13.9082,13.9816,13.8935,13.798,13.7687,13.6622,13.5594,13.5448,13.5191,13.497,13.3319,13.2401,13.185,13.1777,13.119,13.0199,10.022,10.0786,10.216,10.187,10.0482,10.1155,10.189,10.262,10.3431,10.3706,10.3563,10.3392,10.3212,10.3009,10.2671,10.3111,10.416,10.4329,10.5614,10.7745,10.8557,10.9505,11.0553,11.1128,11.1298,11.1128,11.0756,10.9978,10.8963,10.8896,10.7745,10.5682,10.6122,10.6156,10.5614,10.7001,10.8862,11.1128,11.2008,11.2042,11.1095,11.0181,10.8896,10.7204,10.717,10.7001,10.6629,10.6763,10.6756,10.653,10.6253,10.6147,10.621,10.4969,0.0,0.0,0.0,0.0,0.0,0.0,0.0,0.0,0.0,10.1483,10.262,0.0,10.5989,0.0,10.7508,10.8519,10.9873,11.0416,0.0,0.0,11.5943,11.7242,11.9713,12.1136,12.244,12.3666,12.6631,12.9054,13.0219,13.2095,13.3821,13.5299,13.5323,13.5007,13.4567,13.4152,13.4003,13.4496,13.4319,13.4292,13.5117,13.6056,13.6879,13.765,13.7944,13.8531,13.9962,13.9375,13.8531,13.798,13.8054,13.743,13.5741,13.5888,13.5925,13.5007,13.4126,13.3502,13.3502,13.2841,13.1997,10.059,10.1128,10.1746,10.1447,10.0741,10.2645,10.3576,10.4027,10.4768,10.467,10.4121,10.4775,10.4667,10.399,10.399,10.4396,10.5174,10.5174,10.6189,10.8016,10.8794,10.9572,11.0316,11.0722,11.0925,11.0892,11.0147,10.9572,10.9166,10.8828,10.8016,10.6832,10.7272,10.7272,10.6866,10.7948,10.9302,11.0892,11.0993,11.0452,10.9335,10.8557,10.7745,10.69,10.6257,10.6054,10.6392,10.6088,10.6084,10.6312,10.5923,10.5829,10.6071,10.5029,10.3861,0.0,0.0,0.0,0.0,0.0,0.0,0.0,0.0,0.0,0.0,0.0,10.7289,10.9015,10.9475,11.0695,11.3267,11.3657,11.5162,11.8836,11.9542,12.0636,12.2888,12.4137,12.5348,12.6636,12.8415,13.0008,13.1193,13.2181,13.3189,13.4256,13.5083,13.5611,13.5634,13.51,13.4589,13.4875,13.3857,13.3405,13.4251,13.5687,13.6825,13.7192,13.754,13.809,13.8935,13.8458,13.776,13.7356,13.7356,13.7026,13.5705,13.5741,13.5888,13.5521,13.5044,13.4456,13.3722,13.2952,13.2071,10.0131,10.0414,10.0509,10.0776,10.1356,10.4389,10.5072,10.4212,10.5114,10.5178,10.4861,10.6255,10.6528,10.5953,10.5953,10.5886,10.5819,10.5819,10.6495,10.7778,10.8522,10.93,11.0012,11.0114,11.0181,11.0114,10.9403,10.9031,10.9031,10.8354,10.7982,10.7847,10.7306,10.7373,10.8016,10.8693,10.9403,11.0147,10.9606,10.893,10.8185,10.7441,10.7001,10.6832,10.5445,10.4971,10.5614,10.5039,10.4971,10.558,10.5527,10.5755,10.6394,10.4966,10.381,0.0,10.2036,0.0,0.0,0.0,0.0,0.0,0.0,0.0,0.0,10.7463,10.8984,11.1735,11.1878,11.3137,11.6409,11.7034,11.8413,12.1291,12.2362,12.3481,12.5128,12.637,12.7493,12.8834,12.9573,13.0374,13.1337,13.2024,13.2406,13.2948,13.3625,13.4816,13.6763,13.5571,13.4464,13.5156,13.3661,13.2928,13.3922,13.5401,13.6434,13.6514,13.6935,13.754,13.7797,13.7209,13.6622,13.6549,13.6072,13.5448,13.5264,13.5117,13.5044,13.497,13.4897,13.4493,13.3429,13.2548,13.1336,9.9894,10.0037,10.0622,10.1114,10.1636,10.3083,10.3201,10.2376,10.4017,10.5115,10.5598,10.6494,10.6798,10.6697,10.6697,10.6359,10.5813,10.5813,10.5947,10.6249,10.6987,10.7737,10.849,10.9099,10.9403,10.9335,10.8591,10.8219,10.8253,10.8084,10.7712,10.7137,10.7576,10.7881,10.8016,0.0,0.0,0.0,10.9877,10.9708,10.8963,10.8185,10.7509,10.69,10.5479,0.0,10.487,10.4769,10.4735,10.487,10.4324,0.0,0.0,0.0,0.0,0.0,0.0,0.0,0.0,0.0,0.0,0.0,10.78,10.8145,10.9206,11.089,11.2499,11.3903,11.4561,11.5926,11.8255,11.9135,12.0632,12.3308,12.4358,12.5318,12.6429,12.8211,12.9323,12.8841,12.9717,13.048,13.0706,13.0631,13.1082,13.2414,13.2891,13.3727,13.5553,13.4203,13.3034,13.3023,13.2804,13.2599,13.2807,13.3988,13.513,13.5594,13.5799,13.6348,13.7356,13.7099,13.6585,13.6549,13.5961,13.5154,13.4493,13.3832,13.3502,13.3392,13.3429,13.3502,13.3796,13.3208,13.2217,9.9497,9.9926,10.0274,10.0369,0.0,10.1062,10.1196,10.1049,10.3101,10.4275,10.4718,10.5482,10.5783,10.5817,10.5449,10.5043,10.4735,10.4724,10.4924,10.5304,10.6376,10.7329,10.8016,10.8422,10.8625,10.8591,10.7813,10.7475,10.7475,10.7441,10.7272,10.69,10.7272,10.7475,10.7441,10.7475,10.7847,10.8591,10.8625,10.8422,10.8016,10.6934,10.6358,10.6291,10.4566,0.0,0.0,0.0,0.0,0.0,0.0,0.0,0.0,10.3787,0.0,10.3043,10.3382,10.4004,10.5018,10.57,10.6831,10.8661,11.0136,11.0863,11.0683,11.2368,11.3809,11.4866,11.5694,11.7268,11.9877,12.1186,12.285,12.5268,12.5974,12.6461,12.7121,12.8465,12.927,12.917,12.9866,13.0529,13.0529,13.0061,13.0202,13.1122,13.1361,13.1897,13.3026,13.3413,13.3305,13.2687,13.2257,13.2167,13.2441,13.2988,13.3864,13.4652,13.4992,13.5378,13.6421,13.6292,13.5998,13.5961,13.5337,13.4567,13.4163,13.3465,13.3025,13.3355,13.3172,13.3025,13.3392,13.2548,13.1373,9.8556,9.9197,9.9071,9.8852,9.8474,9.8864,9.9515,10.0223,10.2345,0.0,0.0,10.417,10.4535,10.4469,10.3867,10.3427,10.322,10.3194,10.3496,10.419,10.5665,10.6718,10.7406,10.7678,10.7847,10.7779,10.7069,10.6764,10.6866,10.6764,10.6764,10.6866,10.69,10.6832,10.6731,10.6832,10.7137,10.7576,10.7272,10.7103,10.7069,10.5783,10.531,10.5817,10.3787,10.2976,10.3551,10.3009,10.3043,10.3754,10.3787,10.4058,10.4633,10.4701,10.4701,10.4701,10.4701,10.5063,10.5812,10.6316,10.7188,10.8696,11.1369,11.252,11.1578,11.2868,11.3994,11.4949,11.5583,11.7311,12.0534,12.2048,12.3815,12.6138,12.6403,12.6502,12.6999,12.7726,12.8333,12.8908,12.9593,13.0184,13.0015,12.9787,12.9514,12.9717,12.9958,13.0199,13.1113,13.2678,13.332,13.2628,13.2056,13.1763,13.2167,13.2502,13.2928,13.3886,13.4137,13.4477,13.5012,13.5212,13.523,13.5191,13.4456,13.3906,13.3649,13.2915,13.2805,13.3502,13.3172,13.2695,13.2584,13.152,13.0272,9.6643,9.6694,9.6137,9.6262,9.6885,9.7279,9.852,10.0275,10.1833,10.2606,10.2697,10.3426,10.38,10.3766,10.3631,10.2878,10.1718,10.1707,10.174,10.1916,10.3347,10.4448,10.5209,10.6461,10.7069,10.7001,10.6291,10.6291,10.6764,10.6257,10.6257,10.6798,10.69,10.6561,10.6054,10.6561,10.6629,10.6156,10.7272,10.7847,10.7847,10.7035,10.6325,10.5783,10.4295,10.3483,10.3585,10.3483,10.3787,10.4498,10.4532,10.4599,10.4667,10.4701,10.4701,10.4701,10.4701,10.5267,10.653,10.6693,10.7385,10.881,11.0519,11.1667,11.2091,11.292,11.3568,11.3752,11.3925,11.5319,11.8444,11.9744,12.1411,12.3636,12.4136,12.4616,12.5878,12.621,12.6793,12.7829,12.854,12.8939,12.8844,12.9165,12.9168,12.8848,12.92,12.9968,13.0831,13.1624,13.1929,13.1786,13.1679,13.1671,13.1826,13.2167,13.2538,13.2685,13.3286,13.3814,13.4421,13.4589,13.4536,13.4313,13.3632,13.2952,13.2291,13.1373,13.141,13.1997,13.1997,13.185,13.1887,13.1116,13.0015,9.5781,9.61,9.5566,9.5556,9.6008,9.6899,9.7598,9.8244,9.9702,10.1066,10.2142,10.2356,10.2391,10.2391,10.1986,10.1233,10.0214,10.021,10.0446,10.0908,10.2309,10.361,10.4669,10.5381,10.5919,10.6223,10.5547,10.5344,10.5682,10.575,10.5783,10.5716,10.5682,10.5716,10.5817,10.5716,10.5919,10.6392,10.7069,10.7407,10.7373,10.6697,10.6156,10.5783,10.4735,10.4193,10.4193,10.4193,10.4329,10.4667,10.4701,10.487,10.5242,10.5276,10.5479,10.5851,10.5885,10.6154,10.6824,10.7219,10.7851,10.8929,10.9969,11.089,11.1652,11.2801,11.3419,11.3538,11.3817,11.4976,11.7123,11.8694,12.0107,12.1362,12.2448,12.3323,12.3849,12.4966,12.6082,12.7227,12.8234,12.8733,12.8609,12.8716,12.8751,12.8367,12.8751,12.9345,12.9834,13.0169,13.0768,13.1618,13.16,13.1451,13.1543,13.1826,13.2105,13.2379,13.2782,13.3167,13.3756,13.4101,13.4112,13.3695,13.3162,13.2621,13.185,13.1043,13.0969,13.141,13.13,13.1226,13.141,13.0749,12.9354,9.4646,9.5096,9.4637,9.4672,9.5118,9.6409,9.6735,9.6614,9.7721,9.9375,10.1106,10.1152,10.1253,10.132,10.0648,9.9896,9.9264,9.9036,9.9224,9.9903,10.1339,10.2737,10.3893,10.4304,10.4839,10.5411,10.4802,10.4532,10.4735,10.5107,10.5107,10.4701,10.4701,10.4904,10.5276,10.4904,10.5242,10.6325,10.6392,10.6561,10.6866,10.6325,10.5986,10.5783,10.5242,10.4938,10.4938,10.4938,10.5005,10.5174,10.5174,10.5445,10.602,10.6054,10.6325,10.6832,10.69,10.69,10.6967,10.74,10.7969,10.8549,10.9214,10.993,11.0764,11.2022,11.2871,11.3043,11.3422,11.4208,11.533,11.7107,11.8587,11.9053,12.0677,12.1683,12.1825,12.3212,12.474,12.5885,12.6996,12.7629,12.7808,12.7876,12.7769,12.7979,12.8154,12.8225,12.8399,12.8646,12.9484,13.0519,13.0848,13.0662,13.0889,13.1055,13.1344,13.1881,13.1952,13.2383,13.2963,13.3647,13.3778,13.3254,13.3054,13.2605,13.1814,13.1043,13.0896,13.1447,13.13,13.1043,13.152,13.0419,12.8877,9.2513,9.2087,9.2081,9.2538,9.3519,9.4993,9.6076,9.6742,9.6986,9.7939,9.9405,10.0135,10.0784,10.1253,10.058,9.9896,9.9128,9.8516,9.8221,9.8535,9.9837,10.0906,10.1907,10.3058,10.4069,10.4635,10.4058,10.399,10.4498,10.4092,10.4092,10.4633,10.4701,10.4363,10.3957,10.4363,10.4735,10.487,10.487,10.5547,10.6798,10.6832,10.6494,10.5817,10.575,10.5716,10.5716,10.5716,10.602,10.6629,10.6663,10.6697,10.6764,10.6798,10.6832,10.6866,10.69,10.69,10.69,10.6967,10.7068,10.717,10.7813,10.8592,10.9337,11.0152,11.0897,11.1475,11.1713,11.2195,11.2743,11.4282,11.5791,11.6889,11.7989,11.8981,12.0161,12.0634,12.1352,12.2823,12.3936,12.4457,12.5297,12.5923,12.6479,12.6997,12.6708,12.6625,12.7178,12.7286,12.7393,12.8148,12.8751,12.9135,12.8961,12.9444,13.0089,13.0255,13.0416,13.1218,13.2153,13.2602,13.2536,13.2641,13.2946,13.2552,13.1688,13.1079,13.0823,13.13,13.1447,13.152,13.1483,13.0455,12.8914,9.2224,9.1596,9.1207,9.1299,9.1987,9.3173,9.3879,9.4309,9.498,9.6158,9.7522,9.809,9.9019,10.0069,10.024,9.9688,9.8523,9.802,9.7875,9.8124,9.8959,10.0066,10.1335,10.1954,10.2892,10.3957,10.3314,10.3111,10.3314,10.3077,10.3314,10.3923,10.3618,10.3449,10.3551,10.3449,10.4024,10.5276,10.4464,10.4769,10.6054,10.6257,10.6325,10.6426,10.6426,10.646,10.6426,10.646,10.6595,10.6866,10.69,10.69,10.69,10.69,10.69,10.69,10.69,10.69,10.69,10.69,10.69,10.69,10.717,10.7678,10.8422,10.92,10.9944,11.0655,11.1128,11.1505,11.1852,11.2804,11.3658,11.4379,11.5699,11.6954,11.7514,11.8856,12.0135,12.1177,12.2364,12.3127,12.3641,12.4567,12.5325,12.5703,12.5443,12.5603,12.6289,12.6008,12.5755,12.5988,12.6691,12.7539,12.7972,12.8541,12.91,12.9681,12.9976,13.057,13.154,13.2261,13.2266,13.1622,13.1973,13.174,13.0588,13.0666,13.0639,13.1006,13.1006,13.0969,13.1006,13.0492,12.9391,9.2105,9.1327,9.0638,9.0563,9.0909,9.1452,9.1992,9.2494,9.3236,9.4533,9.6062,9.6518,9.7399,9.8535,9.9479,9.9199,9.8308,9.7729,9.7584,9.777,9.7937,9.8911,10.0522,10.0749,10.1586,10.2751,10.2643,10.2536,10.2536,10.2536,10.2806,10.3145,10.2773,10.2773,10.3179,10.2739,10.3483,10.5174,10.4227,10.4329,10.558,10.558,10.5851,10.6528,10.6798,10.69,10.69,10.69,10.69,10.69,10.69,10.69,10.69,10.69,10.69,10.69,10.69,10.69,10.69,10.69,10.69,10.69,10.69,10.7204,10.7915,10.8557,10.9302,11.0249,11.079,11.1128,11.1433,11.2042,11.2448,11.2583,11.4342,11.5492,11.5667,11.7362,11.8775,11.9461,12.0439,12.1619,12.2321,12.3375,12.423,12.4742,12.4653,12.4773,12.5353,12.514,12.4816,12.4671,12.524,12.5939,12.7027,12.7539,12.8151,12.8784,12.9158,12.9826,13.0809,13.1424,13.1999,13.1292,13.1391,13.1279,13.0607,13.0482,13.0089,13.0231,13.0336,13.0477,13.0602,13.0492,12.9905,9.1835,9.0668,8.998,9.0141,9.0829,9.029,9.0849,9.211,9.2137,9.3279,9.5106,9.5715,9.6342,9.7047,9.8106,9.86,9.8419,9.777,9.7291,9.7006,9.6689,9.7268,9.8742,9.9101,10.0085,10.1686,10.231,10.2536,10.2536,10.2536,10.2536,10.257,10.2536,10.2536,10.2603,10.257,10.3246,10.4532,10.4024,10.4295,10.5547,10.5141,10.5174,10.5885,10.6528,10.6866,10.69,10.69,10.69,10.69,10.69,10.69,10.69,10.69,10.69,10.69,10.69,10.69,10.69,10.69,10.69,10.69,10.69,10.7204,10.7813,10.8084,10.8794,11.0147,11.035,11.0689,11.1331,11.194,11.238,11.2482,11.3801,11.4647,11.4748,11.614,11.6919,11.7291,11.8258,11.964,12.1206,12.2139,12.3288,12.4202,12.4119,12.4004,12.4512,12.4715,12.4603,12.4637,12.4738,12.4851,12.4973,12.5897,12.6677,12.7277,12.805,12.8818,12.9292,12.9821,13.0461,13.0801,13.052,13.0414,13.0566,13.0251,12.9514,12.9553,13.0126,13.0336,13.044,13.0492,12.9868,9.1446,9.0549,8.9471,8.9267,8.9359,8.8862,8.9003,8.9591,9.0514,9.1592,9.2793,9.3477,9.4542,9.5955,9.6292,9.6809,9.7446,9.6964,9.6742,9.6826,9.6301,9.6915,9.8541,9.9035,9.9984,10.132,10.2144,10.2536,10.2536,10.2536,10.2536,10.2536,10.2536,10.2536,10.2536,10.2536,10.3212,10.443,10.3957,10.4329,10.5648,10.5547,10.5547,10.5783,10.6054,10.6426,10.69,10.69,10.69,10.69,10.69,10.69,10.69,10.69,10.69,10.69,10.69,10.69,10.69,10.69,10.69,10.69,10.69,10.7001,10.734,10.7745,10.8456,10.9403,11.008,11.0621,11.123,11.1636,11.1771,11.1974,11.309,11.4004,11.4241,11.5289,11.6372,11.6947,11.7996,11.933,12.0503,12.1733,12.2921,12.3761,12.3767,12.3747,12.3916,12.4017,12.4051,12.4119,12.4389,12.4694,12.4694,12.5007,12.5506,12.6048,12.6685,12.742,12.8006,12.9093,12.9867,12.9583,12.9384,12.9266,12.9326,12.9104,12.8584,12.9187,12.9769,12.98,13.044,12.9896,12.9325,9.0938,9.016,8.8933,8.8364,8.8295,8.7772,8.7681,8.7992,8.9037,9.012,9.1056,9.1824,9.3036,9.4249,9.4631,9.5075,9.5881,9.6146,9.6369,9.6455,9.5636,9.6214,9.7664,9.8183,9.9179,10.0819,10.2013,10.2536,10.2536,10.2536,10.2536,10.2536,10.2536,10.2536,10.2536,10.2536,10.3212,10.4295,10.4193,10.4599,10.5648,10.5817,10.5817,10.5817,10.5817,10.6122,10.6866,10.69,10.69,10.69,10.69,10.69,10.69,10.69,10.69,10.69,10.69,10.69,10.69,10.69,10.69,10.69,10.69,10.69,10.6934,10.7576,10.8354,10.9099,10.9877,11.0621,11.1196,11.1399,11.1399,11.1568,11.2718,11.3598,11.3699,11.4951,11.6067,11.6947,11.8232,11.9383,12.0262,12.1379,12.2461,12.3476,12.3611,12.3679,12.3916,12.3747,12.3611,12.3645,12.4017,12.4085,12.4017,12.4105,12.4544,12.5054,12.5501,12.62,12.6615,12.7842,12.8642,12.8333,12.8224,12.8057,12.7965,12.7757,12.8158,12.8739,12.8713,12.8624,12.8912,12.9043,12.8384,9.0279,8.9591,8.8274,8.7796,8.7676,8.7067,8.7211,8.7759,8.7962,8.8838,8.9928,9.0918,9.1606,9.2444,9.3076,9.3574,9.4059,9.5339,9.5847,9.5495,9.462,9.5001,9.637,9.6673,9.7994,10.0072,10.1651,10.2437,10.2536,10.2536,10.2536,10.2536,10.2536,10.2536,10.2536,10.2637,10.328,10.4363,10.4633,10.5073,10.5716,10.5919,10.5919,10.5885,10.5885,10.6223,10.6866,10.69,10.69,10.69,10.69,10.69,10.69,10.69,10.69,10.69,10.69,10.69,10.69,10.69,10.69,10.69,10.69,10.69,10.7001,10.761,10.8354,10.9099,10.9877,11.0621,11.1298,11.1433,11.1399,11.1534,11.2718,11.3564,11.3869,11.4985,11.6135,11.6981,11.83,11.9484,12.0262,12.1074,12.2089,12.3341,12.3679,12.378,12.422,12.4017,12.3747,12.3577,12.3679,12.3713,12.3408,12.3147,12.3668,12.4134,12.4608,12.4988,12.481,12.5566,12.6766,12.6846,12.706,12.6962,12.6451,12.6364,12.6867,12.735,12.7271,12.7592,12.7913,12.8058,12.7306,9.0249,8.9591,8.8753,8.8125,8.7646,8.6958,8.6817,8.7133,8.7603,8.7917,8.8119,8.8743,8.9491,9.0244,9.1075,9.1874,9.2827,9.393,9.4387,9.4154,9.3721,9.4259,9.5477,9.6201,9.8033,10.0517,10.1453,10.2013,10.2471,10.2536,10.2536,10.2536,10.2536,10.2536,10.257,10.3009,10.3754,10.4599,10.5208,10.5817,10.6494,10.6561,10.6561,10.6561,10.6561,10.6697,10.6866,10.69,10.69,10.69,10.69,10.69,10.69,10.69,10.69,10.69,10.69,10.69,10.69,10.69,10.69,10.69,10.69,10.69,10.6967,10.7644,10.8388,10.9132,10.9877,11.0756,11.1737,11.167,11.1467,11.1399,11.2685,11.3632,11.4004,11.5831,11.7015,11.7184,11.8672,12.0127,12.0837,12.1345,12.2123,12.378,12.3882,12.378,12.395,12.422,12.3814,12.3138,12.3307,12.3408,12.307,12.2799,12.2981,12.3198,12.3499,12.3552,12.3262,12.3663,12.4806,12.5694,12.5917,12.5828,12.5322,12.5332,12.5918,12.631,12.6669,12.6974,12.7282,12.7003,12.6351,8.9216,8.8873,8.8215,8.7706,8.7287,8.6838,8.6689,8.6768,8.7211,8.7205,8.6998,8.7387,8.7859,8.8485,8.9195,8.996,9.0843,9.1619,9.1925,9.2149,9.2826,9.3594,9.4768,9.6084,9.7859,10.015,10.132,10.222,10.2908,10.2908,10.2908,10.2908,10.2637,10.2671,10.2908,10.3348,10.4058,10.5005,10.5547,10.6156,10.6731,10.69,10.69,10.69,10.69,10.69,10.69,10.69,10.69,10.69,10.69,10.69,10.69,10.69,10.69,10.69,10.69,10.69,10.69,10.69,10.7035,10.7238,10.7306,10.7475,10.7779,10.8422,10.9132,10.9606,11.0283,11.1196,11.2143,11.2109,11.194,11.2211,11.3023,11.3801,11.4545,11.6575,11.7759,11.7894,11.9078,12.0296,12.0837,12.1345,12.2021,12.3442,12.3747,12.3814,12.3916,12.4186,12.3577,12.307,12.3036,12.2969,12.2766,12.2529,12.236,12.2319,12.2276,12.2095,12.1832,12.2495,12.3486,12.4564,12.5039,12.5339,12.4945,12.5037,12.5363,12.5693,12.591,12.5984,12.6071,12.5966,12.5476,8.7582,8.7515,8.7018,8.6838,8.6748,8.6689,8.6689,8.6659,8.6648,8.6558,8.6536,8.6497,8.6654,8.6898,8.7659,8.8145,8.8312,8.9141,8.9632,9.0058,9.1193,9.2657,9.3785,9.5604,9.7308,9.9026,10.1148,10.2659,10.3356,10.3587,10.3652,10.3585,10.3145,10.3009,10.3585,10.3686,10.4498,10.5547,10.5851,10.6291,10.6866,10.69,10.69,10.69,10.69,10.69,10.69,10.69,10.69,10.69,10.69,10.69,10.69,10.69,10.69,10.7035,10.7001,10.7103,10.7069,10.7272,10.7475,10.8016,10.8118,10.8354,10.893,10.9538,11.0046,11.0215,11.0858,11.167,11.238,11.2414,11.2752,11.3496,11.3733,11.4342,11.5729,11.7218,11.7962,11.8368,11.9383,12.033,12.0533,12.1074,12.1785,12.263,12.3273,12.3645,12.4254,12.422,12.3713,12.3307,12.2867,12.2495,12.2258,12.2055,12.1954,12.2301,12.2116,12.1751,12.1461,12.2105,12.2736,12.3765,12.4358,12.4597,12.4554,12.4377,12.4469,12.462,12.4757,12.4794,12.5004,12.5151,12.5257,8.697,8.6349,8.7095,8.7137,8.6718,8.6689,8.6689,8.6599,8.615,8.5761,8.53,8.4766,8.495,8.531,8.6184,8.7021,8.7799,8.8685,8.9113,8.9189,8.9646,9.1281,9.2958,9.4301,9.6314,9.8711,10.0408,10.1909,10.3093,10.3966,10.4331,10.4396,10.416,10.4126,10.443,10.4904,10.5377,10.5817,10.6358,10.6663,10.6832,10.69,10.69,10.69,10.69,10.69,10.69,10.69,10.69,10.69,10.69,10.69,10.69,10.6934,10.717,10.7576,10.7712,10.7982,10.8422,10.849,10.8659,10.8828,10.8862,10.8963,10.9166,10.9877,11.0249,11.0418,11.0959,11.194,11.2888,11.2888,11.3192,11.4139,11.4444,11.5019,11.6338,11.7454,11.83,11.8875,11.9721,12.0364,12.0871,12.1311,12.192,12.2833,12.3138,12.3341,12.4153,12.4119,12.3577,12.3002,12.2529,12.2089,12.1751,12.1582,12.1683,12.2224,12.2267,12.2098,12.209,12.2551,12.3128,12.3788,12.393,12.4216,12.3524,12.3038,12.3276,12.3752,12.4321,12.4805,12.4928,12.5127,12.5283,8.5017,8.4562,8.5855,8.6216,8.5941,8.642,8.6689,8.6539,8.597,8.5492,8.4983,8.4115,8.3936,8.4372,8.5103,8.5588,8.6239,8.752,8.8039,8.81,8.8374,8.9775,9.1543,9.2872,9.5003,9.7667,9.9306,10.1215,10.3177,10.4168,10.4674,10.5007,10.4836,10.4836,10.5174,10.5547,10.5986,10.6257,10.6697,10.69,10.69,10.69,10.69,10.69,10.69,10.69,10.69,10.69,10.69,10.69,10.69,10.69,10.6934,10.7204,10.7576,10.8016,10.8287,10.8727,10.9031,10.9166,10.9335,10.9572,10.964,10.9843,11.0114,11.0553,11.0824,11.1298,11.1636,11.2549,11.3699,11.3902,11.4308,11.5019,11.5425,11.5966,11.6845,11.7894,11.8638,11.9214,11.9822,12.0398,12.0939,12.1412,12.219,12.2867,12.3104,12.3679,12.4356,12.3882,12.3577,12.3239,12.2901,12.2664,12.2326,12.2123,12.1954,12.2393,12.2867,12.2664,12.2683,12.2955,12.3281,12.3672,12.3647,12.3489,12.2989,12.2653,12.3039,12.3659,12.4307,12.4703,12.4805,12.5006,12.5146,8.2471,8.2679,8.3956,8.4503,8.4696,8.578,8.6181,8.6301,8.5614,8.5365,8.5192,8.4175,8.3756,8.3799,8.4581,8.4534,8.4354,8.6266,8.6787,8.7256,8.7756,8.8904,9.0309,9.1639,9.37,9.6115,9.7877,10.0285,10.2397,10.3446,10.4528,10.5077,10.4909,10.5277,10.5817,10.5986,10.6291,10.6697,10.6832,10.69,10.69,10.69,10.69,10.69,10.69,10.7001,10.7069,10.7069,10.7103,10.717,10.7001,10.6967,10.7069,10.7712,10.805,10.8321,10.8896,10.9335,10.9471,10.964,10.9741,11.0283,11.0418,11.0655,11.1095,11.1365,11.1703,11.2143,11.2515,11.326,11.4342,11.5222,11.5526,11.5763,11.6338,11.6812,11.7251,11.83,11.9214,11.9315,11.9924,12.0195,12.0634,12.1379,12.236,12.2292,12.2698,12.3408,12.3916,12.3848,12.3848,12.4017,12.3713,12.3476,12.3138,12.2799,12.2664,12.2766,12.3442,12.3544,12.3341,12.3471,12.3566,12.3702,12.369,12.3409,12.2922,12.2843,12.2961,12.3142,12.3593,12.4071,12.4508,12.4796,12.4998,8.2111,8.1848,8.2708,8.3096,8.3263,8.3874,8.4532,8.5067,8.4327,8.4495,8.4499,8.3576,8.3636,8.4474,8.4714,8.5132,8.5731,8.6419,8.6928,8.7556,8.8155,8.8945,8.9772,9.0423,9.2354,9.5006,9.6745,9.8452,10.0205,10.2198,10.3428,10.4188,10.5065,10.592,10.6427,10.6494,10.6697,10.6866,10.69,10.69,10.69,10.69,10.69,10.6967,10.6967,10.7272,10.7678,10.7779,10.8084,10.8253,10.7678,10.7306,10.7712,10.8016,10.8388,10.8963,10.964,11.0283,11.0756,11.079,11.0959,11.1027,11.1061,11.123,11.1365,11.194,11.2245,11.2617,11.3023,11.3767,11.468,11.5391,11.5729,11.5966,11.6507,11.7184,11.7827,11.8638,11.9349,11.989,12.0127,12.0262,12.033,12.1074,12.1649,12.1751,12.2292,12.3002,12.3375,12.3679,12.3916,12.4153,12.4119,12.3814,12.3544,12.3307,12.3341,12.3307,12.3848,12.422,12.4017,12.395,12.4048,12.3844,12.3641,12.3235,12.2906,12.2617,12.2717,12.2739,12.2965,12.3698,12.4316,12.4517,12.491,8.0687,8.0643,8.14,8.1718,8.1916,8.2958,8.3874,8.4521,8.4104,8.4378,8.4797,8.4085,8.4115,8.4714,8.5013,8.5492,8.5821,8.6449,8.7227,8.7945,8.8304,8.8723,8.9463,8.9771,9.1163,9.4388,9.5747,9.734,9.9556,10.0884,10.23,10.3513,10.4444,10.5155,10.6153,10.6596,10.6866,10.69,10.69,10.69,10.69,10.69,10.7137,10.734,10.7441,10.7779,10.849,10.8557,10.8997,10.92,10.8625,10.8118,10.8557,10.8896,10.9302,10.9708,11.0384,11.0925,11.1298,11.1399,11.1365,11.1399,11.1399,11.1399,11.1534,11.2076,11.2651,11.3057,11.3666,11.441,11.512,11.5492,11.5797,11.6034,11.6812,11.7624,11.8097,11.874,11.9484,12.0059,12.0262,12.0262,12.0499,12.0939,12.1277,12.1514,12.1615,12.2326,12.3205,12.3476,12.3747,12.3983,12.4186,12.4085,12.3882,12.3814,12.3983,12.4051,12.4322,12.4525,12.4423,12.4457,12.4491,12.422,12.3882,12.3476,12.315,12.2794,12.2654,12.301,12.3359,12.3728,12.4045,12.4319,12.4788,7.9064,7.947,7.9971,8.0253,8.0544,8.2001,8.3096,8.3894,8.3987,8.4168,8.5178,8.4767,8.4474,8.4953,8.5402,8.5342,8.5581,8.6509,8.7796,8.8454,8.8424,8.8873,8.9463,8.9627,9.0517,9.3563,9.4726,9.6803,9.8677,10.0121,10.098,10.2565,10.3367,10.4052,10.5007,10.6016,10.6528,10.646,10.6765,10.69,10.69,10.69,10.7238,10.7779,10.7948,10.8422,10.9099,10.9403,10.9708,11.035,10.9843,10.9572,10.964,10.9911,11.0283,11.0316,11.0892,11.1399,11.1568,11.1534,11.1433,11.1501,11.1433,11.1501,11.1703,11.2346,11.3023,11.3767,11.4444,11.5086,11.5729,11.5797,11.5864,11.6169,11.7218,11.7928,11.8334,11.8841,11.9484,12.0093,12.0262,12.0262,12.0431,12.0736,12.1006,12.1277,12.1345,12.1751,12.263,12.3375,12.3679,12.4085,12.4356,12.4423,12.422,12.4153,12.4356,12.4423,12.466,12.466,12.4694,12.466,12.4626,12.4559,12.4254,12.3848,12.3476,12.3123,12.3167,12.341,12.3592,12.381,12.3934,12.4115,12.4661,7.8537,7.8972,7.8566,7.8597,7.8965,7.9729,8.0658,8.1265,8.1977,8.2779,8.3987,8.393,8.4528,8.5264,8.5611,8.591,8.64,8.7306,8.8253,8.8813,8.8933,8.9412,8.9501,8.9583,9.0334,9.1537,9.3251,9.5188,9.6719,9.8202,9.972,10.0378,10.1688,10.2876,10.3757,10.4795,10.5601,10.567,10.6392,10.69,10.6765,10.6934,10.7441,10.8151,10.8287,10.893,10.9843,11.0147,11.0452,11.1095,11.1095,11.0993,11.0824,11.0553,11.0418,11.0519,11.1027,11.1568,11.2008,11.1737,11.1805,11.1974,11.1873,11.1873,11.2312,11.2989,11.3733,11.441,11.512,11.5661,11.5763,11.5932,11.6203,11.6609,11.715,11.7793,11.8672,11.918,11.9518,12.0161,12.0262,12.0296,12.0398,12.0499,12.0634,12.0871,12.1006,12.1582,12.2495,12.3205,12.3747,12.4186,12.4626,12.466,12.4592,12.4559,12.4592,12.4559,12.4694,12.4694,12.4694,12.4694,12.466,12.4592,12.4525,12.4254,12.3882,12.3577,12.3384,12.3532,12.369,12.3729,12.3982,12.4178,12.467,7.7572,7.7693,7.7862,7.8143,7.839,7.9074,7.9982,8.1024,8.1322,8.2184,8.3313,8.4016,8.4654,8.5347,8.5545,8.5902,8.6615,8.709,8.8107,8.8971,8.9202,8.9382,8.9621,8.9681,9.0193,9.1304,9.2914,9.4606,9.5958,9.7926,9.904,9.983,10.0845,10.1675,10.2728,10.4295,10.4581,10.4795,10.5809,10.6528,10.6254,10.6865,10.7948,10.8896,10.92,10.9809,11.0553,11.0858,11.1027,11.1298,11.1365,11.1399,11.1264,11.1128,11.0858,11.0925,11.123,11.1737,11.2312,11.2143,11.2312,11.2921,11.2651,11.2685,11.3124,11.3733,11.4477,11.512,11.5459,11.6,11.6338,11.6372,11.6778,11.7421,11.7827,11.8368,11.9011,11.9484,11.989,12.0228,12.0262,12.0262,12.0296,12.033,12.0296,12.0431,12.0668,12.1446,12.2393,12.2901,12.351,12.4288,12.4694,12.4694,12.4694,12.4694,12.4694,12.4694,12.4694,12.4694,12.4694,12.4694,12.4694,12.466,12.4592,12.4491,12.4457,12.4153,12.3882,12.3611,12.3727,12.3887,12.4014,12.4337,12.4774,7.6528,7.6555,7.7271,7.7652,7.7832,7.856,7.9448,8.0488,8.0803,8.1548,8.2845,8.3671,8.4188,8.4749,8.5,8.5375,8.6074,8.6385,8.7758,8.8941,8.933,8.9441,8.9561,8.9883,9.0159,9.0708,9.265,9.4555,9.6124,9.7833,9.8909,9.9452,9.9893,10.0209,10.1249,10.2695,10.3245,10.3829,10.4936,10.5703,10.5968,10.7023,10.8656,11.0114,11.0316,11.0587,11.1196,11.1298,11.1298,11.1365,11.1399,11.1399,11.1399,11.1399,11.1399,11.1399,11.1534,11.2008,11.2482,11.2718,11.2921,11.3395,11.3395,11.3429,11.3801,11.4308,11.5222,11.5831,11.5864,11.627,11.6913,11.6981,11.7387,11.8165,11.8774,11.9281,11.9518,11.9822,12.0059,12.0262,12.0296,12.0296,12.033,12.033,12.0364,12.0567,12.0803,12.1615,12.2427,12.2495,12.3104,12.4186,12.4694,12.4694,12.4694,12.4694,12.4694,12.4694,12.4694,12.4694,12.4694,12.4694,12.4728,12.4761,12.4694,12.4626,12.4694,12.4694,12.4389,12.4119,12.3983,12.4134,12.4674,12.4613,12.4682,7.6056,7.597,7.6159,7.6347,7.6757,7.7209,7.7565,7.804,7.9403,8.0243,8.1175,8.1801,8.2556,8.3122,8.36,8.4279,8.5276,8.6584,8.7646,8.8801,8.9709,8.998,8.986,9.0309,9.0182,9.0481,9.211,9.39,9.5592,9.7435,9.856,9.8868,9.8846,9.8905,9.9323,10.0722,10.0799,10.1108,10.2835,10.4692,10.6071,10.7022,10.8463,10.9731,11.0418,11.0689,11.1298,11.1399,11.1399,11.1399,11.1399,11.1399,11.1399,11.1399,11.1399,11.1568,11.2008,11.2651,11.3226,11.3327,11.353,11.3666,11.3226,11.3124,11.3801,11.485,11.5864,11.6643,11.627,11.6609,11.7488,11.7353,11.7793,11.8503,11.9214,11.9619,11.9924,11.9992,12.0228,12.0398,12.0431,12.0431,12.0431,12.0431,12.0465,12.0668,12.104,12.1886,12.2596,12.2799,12.307,12.422,12.4694,12.4694,12.4694,12.4694,12.4728,12.4728,12.4863,12.4863,12.4964,12.4998,12.4863,12.4863,12.4795,12.4728,12.4694,12.4694,12.4694,12.4592,12.4356,12.4891,12.5574,12.5269,12.4677,7.5242,7.4686,7.5162,7.5482,7.5735,7.6114,7.7096,7.8106,7.8578,7.9333,8.0378,8.1227,8.1774,8.2029,8.2766,8.3591,8.4647,8.6272,8.7787,8.8792,8.9877,9.0376,9.0339,9.0489,9.0399,9.0602,9.1503,9.2949,9.4729,9.623,9.7379,9.7852,9.7876,9.7816,9.7898,9.8989,9.9592,10.0543,10.232,10.4474,10.6181,10.745,10.8528,10.9767,11.0507,11.1025,11.1298,11.1399,11.1399,11.1399,11.1399,11.1399,11.1399,11.1399,11.1399,11.1501,11.2515,11.3226,11.353,11.3598,11.4038,11.4342,11.3869,11.353,11.4241,11.5188,11.6135,11.6812,11.6643,11.7218,11.83,11.8368,11.8875,11.9417,11.9687,11.9856,12.0127,12.0195,12.0296,12.0465,12.0634,12.0736,12.0905,12.1108,12.1176,12.1311,12.1683,12.2326,12.3138,12.3747,12.4051,12.4491,12.4694,12.4694,12.4694,12.4694,12.4829,12.4931,12.5438,12.5438,12.5438,12.5438,12.5269,12.5066,12.4998,12.4897,12.4761,12.4694,12.4694,12.4694,12.4694,12.4983,12.519,12.5206,12.4762,7.4548,7.3891,7.4382,7.4685,7.4728,7.5125,7.6244,7.7706,7.7705,7.8341,7.9576,8.039,8.0815,8.1166,8.1904,8.264,8.3718,8.5594,8.729,8.8638,8.969,9.0306,9.0496,9.0638,9.0638,9.0668,9.1051,9.2097,9.3229,9.4652,9.5852,9.7095,9.7012,9.6907,9.7125,9.7621,9.833,9.9373,10.146,10.3604,10.5492,10.6993,10.8061,10.9198,11.0231,11.1013,11.1084,11.1399,11.1399,11.1399,11.1399,11.1399,11.1399,11.1399,11.1399,11.1602,11.2482,11.326,11.3666,11.4038,11.4647,11.4816,11.485,11.4173,11.4917,11.5661,11.6609,11.7556,11.7319,11.803,11.8977,11.9281,11.945,11.9822,12.0195,12.0262,12.0296,12.033,12.0533,12.0837,12.1074,12.1412,12.1582,12.1886,12.1988,12.2021,12.2393,12.2901,12.3611,12.4423,12.4897,12.5201,12.5472,12.5506,12.5472,12.537,12.5269,12.5303,12.581,12.6081,12.6148,12.5946,12.5709,12.5472,12.5269,12.4897,12.4694,12.4694,12.4694,12.4694,12.466,12.4457,12.4454,12.4612,12.4899,7.4423,7.4322,7.3916,7.3785,7.371,7.4098,7.4669,7.5713,7.6331,7.7323,7.8394,7.8695,7.9585,8.0179,8.0665,8.1593,8.2913,8.4278,8.602,8.7438,8.8673,8.9749,9.0252,9.0472,9.0638,9.0638,9.0848,9.1177,9.1913,9.3,9.4828,9.6692,9.6175,9.6068,9.6159,9.6618,9.7428,9.8638,10.0536,10.2228,10.393,10.5491,10.6959,10.8215,10.9143,10.9836,11.0265,11.08,11.1154,11.1154,11.1225,11.1399,11.1399,11.1399,11.1399,11.1771,11.238,11.3192,11.3767,11.4477,11.5019,11.4917,11.4782,11.4883,11.5492,11.6338,11.7421,11.8469,11.8232,11.8706,11.9417,11.9755,11.9789,12.0025,12.0262,12.0262,12.033,12.0465,12.0702,12.1176,12.1615,12.2089,12.2495,12.2799,12.2799,12.2833,12.3273,12.3814,12.4288,12.4998,12.554,12.5979,12.6453,12.6622,12.669,12.6554,12.6182,12.625,12.6622,12.6825,12.6927,12.6622,12.6419,12.5878,12.5607,12.5134,12.4694,12.4694,12.4694,12.4694,12.4694,12.4761,12.4592,12.46,12.502,7.4925,7.4875,7.4322,7.3694,7.3042,7.3194,7.4165,7.5472,7.5928,7.7054,7.8456,7.8624,7.8808,7.9455,8.0433,8.1269,8.251,8.4641,8.5818,8.711,8.8422,8.9422,8.9952,9.0276,9.0638,9.0608,9.0638,9.0968,9.1656,9.2284,9.3257,9.4548,9.5122,9.5161,9.5312,9.6254,9.7314,9.84,10.0364,10.2347,10.3085,10.4857,10.6229,10.6746,10.7945,10.8548,10.9061,10.9357,10.9975,11.0409,11.0657,11.0871,11.1258,11.1258,11.1532,11.1974,11.2651,11.329,11.397,11.4477,11.4274,11.441,11.4782,11.556,11.6,11.6541,11.7657,11.8469,11.8977,11.9349,11.989,12.0025,12.0059,12.0228,12.0262,12.0262,12.0398,12.0567,12.0973,12.148,12.2292,12.3002,12.3408,12.378,12.3713,12.3679,12.4186,12.4694,12.51,12.5675,12.6284,12.669,12.7096,12.7231,12.7299,12.7163,12.7028,12.7231,12.7468,12.7569,12.7671,12.7637,12.7332,12.6656,12.5844,12.5269,12.4897,12.4761,12.4761,12.4863,12.5167,12.5472,12.5167,12.4694,12.4905,7.5101,7.5151,7.4448,7.382,7.3242,7.3067,7.3875,7.5208,7.5227,7.6288,7.8168,7.8147,7.8587,7.9316,8.021,8.1482,8.2576,8.4235,8.5362,8.653,8.7602,8.8566,8.9013,8.9626,9.0103,9.0293,9.0638,9.0968,9.1626,9.2284,9.3057,9.3802,9.4229,9.4615,9.5031,9.6185,9.7313,9.8145,9.9858,10.1694,10.2035,10.3692,10.4919,10.5322,10.6401,10.7333,10.7826,10.8205,10.8805,10.9357,10.9724,11.0193,11.0552,11.1043,11.1346,11.2167,11.2775,11.3412,11.4236,11.4545,11.4274,11.4714,11.5492,11.6169,11.6575,11.715,11.8435,11.9315,11.9552,11.9721,12.0296,12.0195,12.0161,12.0262,12.0262,12.0296,12.0533,12.0736,12.1277,12.1818,12.2698,12.3544,12.4017,12.4322,12.4356,12.4389,12.4863,12.5269,12.5641,12.6284,12.713,12.7468,12.7738,12.7738,12.7705,12.7874,12.8043,12.8111,12.8314,12.8381,12.8449,12.828,12.7806,12.6927,12.6115,12.5438,12.5134,12.5032,12.5066,12.5134,12.5472,12.5844,12.5506,12.5066,12.466,7.4799,7.5075,7.4146,7.3996,7.4272,7.3795,7.3966,7.449,7.4183,7.5001,7.6636,7.7134,7.8361,7.9804,8.03,8.1459,8.2758,8.3753,8.4539,8.555,8.6407,8.7116,8.7811,8.8631,8.9596,8.9845,9.0339,9.0968,9.1626,9.2284,9.2943,9.3601,9.4229,9.4618,9.4678,9.5277,9.6023,9.6828,9.8486,9.9652,10.0542,10.2129,10.3057,10.3692,10.4919,10.5881,10.6244,10.698,10.7629,10.8478,10.8586,10.9219,11.0164,10.9763,11.0464,11.2184,11.1857,11.2708,11.4507,11.5284,11.5695,11.5661,11.6338,11.6947,11.786,11.8638,11.918,11.9856,12.0195,12.0262,12.0364,12.033,12.0398,12.0465,12.0465,12.0533,12.0803,12.1446,12.2089,12.2495,12.3172,12.3882,12.4389,12.4761,12.4863,12.5066,12.5506,12.5912,12.6318,12.7028,12.7941,12.8144,12.8347,12.8415,12.8483,12.8821,12.9024,12.9092,12.8956,12.8855,12.8517,12.8077,12.7569,12.696,12.625,12.5404,12.5337,12.5337,12.5675,12.6047,12.5912,12.6013,12.5709,12.5404,12.5032,7.5603,7.5728,7.5377,7.5327,7.5301,7.4121,7.3895,7.4343,7.454,7.5173,7.5987,7.6572,7.7652,7.9186,8.0412,8.1498,8.2925,8.3697,8.4316,8.486,8.5451,8.5865,8.6683,8.7781,8.8922,8.9566,9.0222,9.0914,9.1626,9.2284,9.2943,9.3571,9.4259,9.4588,9.4917,9.5546,9.6414,9.692,9.8408,9.9811,10.0051,10.1043,10.1904,10.2074,10.3319,10.4117,10.464,10.5514,10.6473,10.7552,10.7773,10.859,10.9542,10.9444,11.0222,11.1759,11.195,11.3555,11.5498,11.6778,11.7015,11.6913,11.6913,11.7624,11.8605,11.8977,11.9552,12.0195,12.0702,12.0871,12.104,12.1074,12.1074,12.1074,12.1108,12.1108,12.1412,12.2393,12.3172,12.3408,12.3916,12.466,12.5269,12.5641,12.5776,12.6081,12.6554,12.6927,12.7299,12.8009,12.8821,12.8855,12.8956,12.9058,12.9193,12.9362,12.9295,12.9125,12.9024,12.8855,12.8449,12.7975,12.7299,12.6724,12.6047,12.5404,12.554,12.5844,12.669,12.7062,12.696,12.6656,12.6385,12.5946,12.5404,7.5879,7.603,7.5854,7.5879,7.5854,7.4699,7.4222,7.4142,7.4211,7.471,7.5516,7.5942,7.7282,7.8977,8.0095,8.1473,8.3033,8.344,8.3752,8.4168,8.4557,8.4789,8.5479,8.6742,8.764,8.8673,8.9669,9.0615,9.1835,9.2324,9.3122,9.39,9.4379,9.4738,9.5217,9.5965,9.6533,9.707,9.8293,9.9406,9.9852,10.0501,10.1058,10.1652,10.2351,10.2912,10.3462,10.4261,10.5302,10.6472,10.7232,10.7956,10.887,10.9303,11.0043,11.1417,11.3601,11.4972,11.648,11.7516,11.7685,11.7827,11.7691,11.8165,11.9078,11.9417,12.0025,12.0634,12.1108,12.1311,12.1412,12.148,12.1683,12.1649,12.1717,12.1717,12.2157,12.3138,12.3983,12.422,12.4964,12.5675,12.6148,12.6521,12.6791,12.7197,12.7603,12.7941,12.828,12.8889,12.9498,12.9599,12.9599,12.9667,12.9701,12.9701,12.9565,12.9227,12.9058,12.8922,12.8517,12.8077,12.7265,12.6419,12.5776,12.5404,12.5844,12.6351,12.7163,12.7806,12.8077,12.7671,12.7163,12.6588,12.6047,7.5578,7.5929,7.5502,7.5603,7.5904,7.5301,7.4548,7.3619,7.3092,7.3762,7.5001,7.5104,7.6684,7.9121,7.9667,8.0964,8.2603,8.2981,8.3305,8.3465,8.3961,8.3877,8.4364,8.5442,8.6731,8.7582,8.8679,9.0155,9.189,9.2605,9.3451,9.4379,9.4738,9.5127,9.5695,9.6294,9.6713,9.7221,9.8029,9.8898,9.9408,9.9736,10.0515,10.1116,10.1919,10.2451,10.316,10.3984,10.468,10.5519,10.6204,10.7235,10.7841,10.7759,10.9701,11.2134,11.493,11.6214,11.7051,11.7817,11.8597,11.8909,11.9078,11.9214,11.9383,11.9822,12.0296,12.077,12.1209,12.1379,12.1514,12.1852,12.219,12.2258,12.2326,12.2529,12.2867,12.3645,12.4559,12.5303,12.6216,12.6859,12.7028,12.7332,12.8009,12.8449,12.8821,12.9058,12.9362,12.943,13.0005,13.0309,13.0343,13.0343,13.0309,13.0174,12.9904,12.9633,12.9227,12.9024,12.8618,12.8144,12.7434,12.6622,12.5641,12.554,12.6453,12.7096,12.7603,12.8178,12.8652,12.8246,12.7603,12.7332,12.6791,7.5904,7.603,7.5879,7.5929,7.5904,7.5075,7.4448,7.4146,7.3996,7.444,7.5137,7.5137,7.6407,7.8117,7.8653,8.0246,8.1451,8.2493,8.3211,8.3495,8.3549,8.3977,8.4585,8.5303,8.6502,8.7352,8.8271,8.9468,9.139,9.249,9.3904,9.5097,9.5187,9.5636,9.6204,9.6892,9.7102,9.7431,9.8149,9.8598,9.8987,9.9349,9.998,10.0582,10.1516,10.2026,10.2628,10.3399,10.4051,10.4654,10.4891,10.5507,10.61,10.6801,10.8559,11.1826,11.4522,11.6545,11.7582,11.8862,11.9653,11.9789,11.989,11.9958,12.0025,12.0127,12.0431,12.0973,12.1412,12.1649,12.2089,12.2495,12.2833,12.307,12.3273,12.3679,12.4085,12.4863,12.5743,12.6487,12.7434,12.7671,12.7874,12.8652,12.9295,12.9734,13.0073,13.0276,13.0343,13.0411,13.0445,13.0783,13.102,13.0986,13.0749,13.0614,13.0309,13.0005,12.9531,12.9024,12.8584,12.8111,12.7603,12.6994,12.6216,12.6622,12.7569,12.7941,12.8009,12.855,12.899,12.855,12.8111,12.7908,12.7468,7.6055,7.6055,7.6055,7.6055,7.5954,7.5352,7.505,7.495,7.4397,7.4498,7.5201,7.5201,7.6115,7.7574,7.8102,7.9139,8.0876,8.092,8.1472,8.2319,8.3086,8.3238,8.3982,8.502,8.5888,8.6727,8.7674,8.8842,9.0663,9.245,9.4037,9.5037,9.5396,9.5995,9.6533,9.7102,9.7611,9.791,9.8299,9.8628,9.8927,9.9137,9.9436,10.0246,10.1275,10.1517,10.2183,10.2999,10.3693,10.421,10.433,10.4842,10.5637,10.663,10.7878,11.1012,11.352,11.5464,11.6764,11.863,11.9628,12.0186,12.0262,12.0262,12.0228,12.0262,12.077,12.1311,12.1683,12.2089,12.2664,12.3205,12.3611,12.3983,12.4423,12.4863,12.5573,12.6318,12.7028,12.7738,12.8178,12.8449,12.8956,12.9836,13.0343,13.0411,13.0851,13.1493,13.1392,13.1189,13.1088,13.1155,13.146,13.1629,13.129,13.0817,13.0445,13.0005,12.9464,12.899,12.855,12.8212,12.784,12.7434,12.6927,12.7569,12.828,12.8144,12.8246,12.8855,12.9227,12.8889,12.8686,12.8618,12.8043,7.603,7.5954,7.5929,7.5879,7.5979,7.5829,7.5854,7.5879,7.4498,7.4322,7.5201,7.5327,7.6118,7.7111,7.7434,7.8251,7.9359,7.9702,8.034,8.0871,8.1969,8.2506,8.3394,8.3982,8.5246,8.6029,8.6825,8.8002,8.9705,9.1531,9.3216,9.4505,9.5251,9.5938,9.6803,9.7431,9.794,9.8299,9.8508,9.8748,9.9137,9.9256,9.9496,10.0932,10.1294,10.1294,10.2349,10.3114,10.379,10.4066,10.4492,10.4946,10.5891,10.678,10.8099,10.989,11.252,11.4184,11.5823,11.7647,11.9087,11.9772,12.0186,12.0262,12.0262,12.0262,12.0736,12.1379,12.1785,12.2427,12.3002,12.3544,12.395,12.4559,12.5167,12.5844,12.669,12.7434,12.8144,12.8686,12.8787,12.9092,12.9701,13.0479,13.0715,13.0817,13.1358,13.2204,13.2373,13.2035,13.173,13.1595,13.1798,13.1866,13.1223,13.0749,13.0411,12.9971,12.9531,12.9193,12.8922,12.855,12.8144,12.8314,12.8618,12.8415,12.8686,12.8787,12.8922,12.9193,12.943,12.9227,12.9159,12.9125,12.8753,7.5804,7.5402,7.4975,7.5025,7.5352,7.4975,7.5327,7.5979,7.5226,7.5201,7.5778,7.5952,7.6101,7.6523,7.6646,7.729,7.8102,7.8812,7.9845,8.0738,8.1636,8.2292,8.3455,8.3837,8.4926,8.5862,8.6526,8.7253,8.907,9.0731,9.2362,9.4074,9.4903,9.5793,9.6924,9.7671,9.8329,9.8538,9.8568,9.8927,9.9466,10.0034,10.0573,10.1381,10.162,10.189,10.2552,10.2676,10.2832,10.2956,10.353,10.4419,10.5709,10.6687,10.7735,10.9208,11.1364,11.2911,11.4389,11.6267,11.8032,11.8965,11.9464,12.0034,12.0262,12.0262,12.0634,12.1345,12.1988,12.2664,12.3341,12.3848,12.4356,12.51,12.5878,12.6757,12.7671,12.8449,12.9193,12.9362,12.9396,12.9836,13.0411,13.0817,13.1054,13.146,13.1967,13.2576,13.288,13.2745,13.2204,13.2069,13.217,13.2035,13.1257,13.0648,13.0309,13.0208,12.9904,12.9599,12.9362,12.9396,12.9464,13.0208,13.0546,13.0005,12.9667,12.9904,13.0039,12.987,12.9667,12.9498,12.943,12.9396,12.9159,7.5879,7.5527,7.5025,7.4799,7.4849,7.4799,7.5151,7.5603,7.5628,7.5753,7.603,7.6055,7.6055,7.6055,7.6153,7.6479,7.7347,7.7881,7.869,7.9778,8.1015,8.1778,8.2565,8.3294,8.4229,8.5126,8.6026,8.7042,8.8787,8.9762,9.128,9.3093,9.4246,9.5552,9.6686,9.764,9.8538,9.8538,9.8538,9.9047,9.9675,10.0154,10.0663,10.1291,10.183,10.2189,10.2458,10.2488,10.2488,10.2668,10.3151,10.4239,10.5314,10.5982,10.6725,10.7943,10.9615,11.1261,11.2535,11.4442,11.6595,11.7406,11.8224,11.8574,12.0685,12.0752,12.098,12.1621,12.2089,12.2698,12.3747,12.4423,12.4863,12.5506,12.6318,12.7163,12.8043,12.8889,12.9498,12.9904,13.0005,13.0276,13.0885,13.1595,13.1798,13.2035,13.2576,13.2948,13.3253,13.3219,13.2745,13.2339,13.2305,13.1764,13.0851,13.0411,13.0174,13.0106,13.014,13.0343,13.0377,13.058,13.0918,13.129,13.1358,13.0918,13.0749,13.0783,13.0479,13.014,12.9937,12.9768,12.9734,12.9701,12.9565,7.6004,7.5879,7.5352,7.4925,7.4623,7.5025,7.5301,7.5452,7.5854,7.6055,7.6055,7.6055,7.608,7.6155,7.6306,7.6632,7.7084,7.7687,7.809,7.8696,7.976,8.075,8.1487,8.2068,8.3168,8.4381,8.5444,8.716,8.9036,8.9417,9.0156,9.175,9.3412,9.5015,9.573,9.7162,9.8538,9.8538,9.8718,9.9286,9.9675,10.0004,10.0663,10.1201,10.165,10.192,10.2309,10.2488,10.2488,10.2817,10.3266,10.4439,10.5218,10.5853,10.6063,10.7104,10.8148,10.9181,11.0137,11.2182,11.4068,11.5506,11.63,11.7657,11.969,12.0518,12.0742,12.1537,12.2006,12.3036,12.4085,12.4728,12.5201,12.5912,12.6724,12.7603,12.8483,12.9295,12.9836,13.0377,13.0648,13.0851,13.1595,13.2305,13.2441,13.2677,13.2982,13.3354,13.3557,13.3219,13.2813,13.2373,13.2069,13.1392,13.0377,13.0276,13.0106,13.0005,13.0106,13.0783,13.1358,13.1527,13.1696,13.1899,13.1832,13.1764,13.146,13.1324,13.0952,13.0682,13.0512,13.0411,13.0106,13.0073,13.0005,7.5804,7.5352,7.4799,7.4749,7.505,7.5201,7.5502,7.5854,7.5979,7.6055,7.6179,7.6105,7.6256,7.6758,7.7235,7.7411,7.7285,7.7737,7.8139,7.8617,7.9327,8.0091,8.0829,8.1362,8.2569,8.3664,8.48,8.6379,8.7901,8.8331,8.9355,9.1204,9.2942,9.4409,9.5492,9.6922,9.8418,9.8448,9.8688,9.9167,10.0094,10.0573,10.1171,10.174,10.2309,10.2368,10.2488,10.2488,10.2488,10.2847,10.3625,10.4852,10.563,10.6079,10.6229,10.6483,10.7411,10.7859,10.9025,11.0535,11.2239,11.2911,11.3907,11.5529,11.7103,11.814,11.9012,12.0923,12.1769,12.3231,12.4199,12.4592,12.5066,12.6081,12.6994,12.8043,12.9024,12.9701,13.0343,13.0851,13.1257,13.1899,13.2847,13.2982,13.2542,13.2745,13.288,13.3286,13.3625,13.3286,13.2948,13.2508,13.2069,13.0783,12.9768,13.0174,13.0174,13.0005,13.0276,13.1324,13.2035,13.2373,13.2576,13.2677,13.2914,13.305,13.2644,13.1832,13.1899,13.1663,13.1358,13.1121,13.0749,13.0546,13.058]}]]